<?xml version="1.0" encoding="UTF-8" standalone="no" ?>
<gpx xmlns="http://www.topografix.com/GPX/1/1" xmlns:xsi="http://www.w3.org/2001/XMLSchema-instance" xsi:schemaLocation="http://www.topografix.com/GPX/1/1 http://www.topografix.com/GPX/1/1/gpx.xsd" version="1.1" creator="VisuGPX - https://www.visugpx.com">
  <metadata>
    <name>roc'n bike 2010</name>
    <desc><![CDATA[Randonnée Roc'n bike 2010. Parcours du 45km.]]></desc>
  </metadata>
  <trk>
    <name><![CDATA[Roc'n Tour 2010]]></name>
    <cmt><![CDATA[Avec régis]]></cmt>
    <trkseg>
      <trkpt lat="45.71466" lon="3.22295">
        <ele>341.4052734375</ele>
        <time>2010-05-30T06:09:23Z</time>
      </trkpt>
      <trkpt lat="45.71464" lon="3.22298">
        <ele>341.88598632812</ele>
        <time>2010-05-30T06:09:25Z</time>
      </trkpt>
      <trkpt lat="45.71456" lon="3.22312">
        <ele>343.32788085938</ele>
        <time>2010-05-30T06:09:32Z</time>
      </trkpt>
      <trkpt lat="45.71447" lon="3.22323">
        <ele>346.21203613281</ele>
        <time>2010-05-30T06:09:38Z</time>
      </trkpt>
      <trkpt lat="45.71435" lon="3.22329">
        <ele>347.65393066406</ele>
        <time>2010-05-30T06:09:45Z</time>
      </trkpt>
      <trkpt lat="45.71427" lon="3.22331">
        <ele>348.615234375</ele>
        <time>2010-05-30T06:09:49Z</time>
      </trkpt>
      <trkpt lat="45.71423" lon="3.2233">
        <ele>349.57653808594</ele>
        <time>2010-05-30T06:09:51Z</time>
      </trkpt>
      <trkpt lat="45.71421" lon="3.2233">
        <ele>349.57653808594</ele>
        <time>2010-05-30T06:09:52Z</time>
      </trkpt>
      <trkpt lat="45.71408" lon="3.22333">
        <ele>350.53784179688</ele>
        <time>2010-05-30T06:09:58Z</time>
      </trkpt>
      <trkpt lat="45.71396" lon="3.22337">
        <ele>351.01843261719</ele>
        <time>2010-05-30T06:10:05Z</time>
      </trkpt>
      <trkpt lat="45.71396" lon="3.22347">
        <ele>352.46057128906</ele>
        <time>2010-05-30T06:10:10Z</time>
      </trkpt>
      <trkpt lat="45.71399" lon="3.22349">
        <ele>353.421875</ele>
        <time>2010-05-30T06:10:12Z</time>
      </trkpt>
      <trkpt lat="45.71402" lon="3.22351">
        <ele>353.421875</ele>
        <time>2010-05-30T06:10:14Z</time>
      </trkpt>
      <trkpt lat="45.71404" lon="3.22352">
        <ele>353.90258789062</ele>
        <time>2010-05-30T06:10:20Z</time>
      </trkpt>
      <trkpt lat="45.71404" lon="3.2235">
        <ele>354.38317871094</ele>
        <time>2010-05-30T06:10:30Z</time>
      </trkpt>
      <trkpt lat="45.71406" lon="3.22349">
        <ele>353.90258789062</ele>
        <time>2010-05-30T06:10:38Z</time>
      </trkpt>
      <trkpt lat="45.71407" lon="3.22348">
        <ele>354.38317871094</ele>
        <time>2010-05-30T06:10:48Z</time>
      </trkpt>
      <trkpt lat="45.71408" lon="3.22349">
        <ele>353.90258789062</ele>
        <time>2010-05-30T06:10:55Z</time>
      </trkpt>
      <trkpt lat="45.71408" lon="3.22349">
        <ele>353.90258789062</ele>
        <time>2010-05-30T06:11:00Z</time>
      </trkpt>
      <trkpt lat="45.71408" lon="3.22348">
        <ele>353.90258789062</ele>
        <time>2010-05-30T06:11:04Z</time>
      </trkpt>
      <trkpt lat="45.71408" lon="3.22348">
        <ele>353.421875</ele>
        <time>2010-05-30T06:11:10Z</time>
      </trkpt>
      <trkpt lat="45.71409" lon="3.22348">
        <ele>353.90258789062</ele>
        <time>2010-05-30T06:11:15Z</time>
      </trkpt>
      <trkpt lat="45.71408" lon="3.22348">
        <ele>353.421875</ele>
        <time>2010-05-30T06:11:20Z</time>
      </trkpt>
      <trkpt lat="45.71409" lon="3.22348">
        <ele>353.421875</ele>
        <time>2010-05-30T06:11:27Z</time>
      </trkpt>
      <trkpt lat="45.71408" lon="3.22348">
        <ele>354.38317871094</ele>
        <time>2010-05-30T06:11:33Z</time>
      </trkpt>
      <trkpt lat="45.71413" lon="3.22349">
        <ele>355.34448242188</ele>
        <time>2010-05-30T06:11:37Z</time>
      </trkpt>
      <trkpt lat="45.71418" lon="3.22357">
        <ele>355.34448242188</ele>
        <time>2010-05-30T06:11:40Z</time>
      </trkpt>
      <trkpt lat="45.7142" lon="3.22361">
        <ele>355.34448242188</ele>
        <time>2010-05-30T06:11:41Z</time>
      </trkpt>
      <trkpt lat="45.71437" lon="3.22391">
        <ele>357.26708984375</ele>
        <time>2010-05-30T06:11:48Z</time>
      </trkpt>
      <trkpt lat="45.71457" lon="3.22424">
        <ele>357.26708984375</ele>
        <time>2010-05-30T06:11:54Z</time>
      </trkpt>
      <trkpt lat="45.71473" lon="3.2246">
        <ele>357.26708984375</ele>
        <time>2010-05-30T06:11:59Z</time>
      </trkpt>
      <trkpt lat="45.7148" lon="3.22475">
        <ele>356.78637695312</ele>
        <time>2010-05-30T06:12:01Z</time>
      </trkpt>
      <trkpt lat="45.71504" lon="3.22536">
        <ele>356.30578613281</ele>
        <time>2010-05-30T06:12:08Z</time>
      </trkpt>
      <trkpt lat="45.7153" lon="3.22602">
        <ele>353.421875</ele>
        <time>2010-05-30T06:12:15Z</time>
      </trkpt>
      <trkpt lat="45.71555" lon="3.22653">
        <ele>352.46057128906</ele>
        <time>2010-05-30T06:12:21Z</time>
      </trkpt>
      <trkpt lat="45.71577" lon="3.22682">
        <ele>351.49914550781</ele>
        <time>2010-05-30T06:12:25Z</time>
      </trkpt>
      <trkpt lat="45.71594" lon="3.22715">
        <ele>351.49914550781</ele>
        <time>2010-05-30T06:12:29Z</time>
      </trkpt>
      <trkpt lat="45.71617" lon="3.22756">
        <ele>353.421875</ele>
        <time>2010-05-30T06:12:35Z</time>
      </trkpt>
      <trkpt lat="45.71624" lon="3.22768">
        <ele>352.94116210938</ele>
        <time>2010-05-30T06:12:37Z</time>
      </trkpt>
      <trkpt lat="45.71644" lon="3.22802">
        <ele>353.421875</ele>
        <time>2010-05-30T06:12:43Z</time>
      </trkpt>
      <trkpt lat="45.71649" lon="3.22814">
        <ele>353.421875</ele>
        <time>2010-05-30T06:12:45Z</time>
      </trkpt>
      <trkpt lat="45.71664" lon="3.22845">
        <ele>354.86376953125</ele>
        <time>2010-05-30T06:12:52Z</time>
      </trkpt>
      <trkpt lat="45.71673" lon="3.22863">
        <ele>357.26708984375</ele>
        <time>2010-05-30T06:12:57Z</time>
      </trkpt>
      <trkpt lat="45.71679" lon="3.22876">
        <ele>358.22839355469</ele>
        <time>2010-05-30T06:13:01Z</time>
      </trkpt>
      <trkpt lat="45.71688" lon="3.22903">
        <ele>359.67041015625</ele>
        <time>2010-05-30T06:13:09Z</time>
      </trkpt>
      <trkpt lat="45.71686" lon="3.22926">
        <ele>361.59313964844</ele>
        <time>2010-05-30T06:13:15Z</time>
      </trkpt>
      <trkpt lat="45.71688" lon="3.22948">
        <ele>363.03503417969</ele>
        <time>2010-05-30T06:13:20Z</time>
      </trkpt>
      <trkpt lat="45.71699" lon="3.22989">
        <ele>363.03503417969</ele>
        <time>2010-05-30T06:13:28Z</time>
      </trkpt>
      <trkpt lat="45.71714" lon="3.23042">
        <ele>364.47692871094</ele>
        <time>2010-05-30T06:13:38Z</time>
      </trkpt>
      <trkpt lat="45.71728" lon="3.23098">
        <ele>364.47692871094</ele>
        <time>2010-05-30T06:13:48Z</time>
      </trkpt>
      <trkpt lat="45.71735" lon="3.23125">
        <ele>363.99633789062</ele>
        <time>2010-05-30T06:13:53Z</time>
      </trkpt>
      <trkpt lat="45.71729" lon="3.23138">
        <ele>364.95764160156</ele>
        <time>2010-05-30T06:13:57Z</time>
      </trkpt>
      <trkpt lat="45.71725" lon="3.23138">
        <ele>364.95764160156</ele>
        <time>2010-05-30T06:13:58Z</time>
      </trkpt>
      <trkpt lat="45.71699" lon="3.23138">
        <ele>365.9189453125</ele>
        <time>2010-05-30T06:14:07Z</time>
      </trkpt>
      <trkpt lat="45.7168" lon="3.23141">
        <ele>367.84155273438</ele>
        <time>2010-05-30T06:14:15Z</time>
      </trkpt>
      <trkpt lat="45.71656" lon="3.23148">
        <ele>370.24487304688</ele>
        <time>2010-05-30T06:14:24Z</time>
      </trkpt>
      <trkpt lat="45.71638" lon="3.23155">
        <ele>372.64819335938</ele>
        <time>2010-05-30T06:14:31Z</time>
      </trkpt>
      <trkpt lat="45.71624" lon="3.23158">
        <ele>374.09008789062</ele>
        <time>2010-05-30T06:14:36Z</time>
      </trkpt>
      <trkpt lat="45.71603" lon="3.2316">
        <ele>374.57080078125</ele>
        <time>2010-05-30T06:14:44Z</time>
      </trkpt>
      <trkpt lat="45.71596" lon="3.23176">
        <ele>376.97424316406</ele>
        <time>2010-05-30T06:14:49Z</time>
      </trkpt>
      <trkpt lat="45.71596" lon="3.23185">
        <ele>376.97424316406</ele>
        <time>2010-05-30T06:14:51Z</time>
      </trkpt>
      <trkpt lat="45.71594" lon="3.23217">
        <ele>376.97424316406</ele>
        <time>2010-05-30T06:14:59Z</time>
      </trkpt>
      <trkpt lat="45.71592" lon="3.23252">
        <ele>378.89685058594</ele>
        <time>2010-05-30T06:15:06Z</time>
      </trkpt>
      <trkpt lat="45.71589" lon="3.23285">
        <ele>377.93542480469</ele>
        <time>2010-05-30T06:15:13Z</time>
      </trkpt>
      <trkpt lat="45.71586" lon="3.23316">
        <ele>377.45483398438</ele>
        <time>2010-05-30T06:15:20Z</time>
      </trkpt>
      <trkpt lat="45.71585" lon="3.23332">
        <ele>377.45483398438</ele>
        <time>2010-05-30T06:15:23Z</time>
      </trkpt>
      <trkpt lat="45.7158" lon="3.23361">
        <ele>376.49353027344</ele>
        <time>2010-05-30T06:15:28Z</time>
      </trkpt>
      <trkpt lat="45.71577" lon="3.23379">
        <ele>376.01281738281</ele>
        <time>2010-05-30T06:15:31Z</time>
      </trkpt>
      <trkpt lat="45.71576" lon="3.23385">
        <ele>376.49353027344</ele>
        <time>2010-05-30T06:15:32Z</time>
      </trkpt>
      <trkpt lat="45.71573" lon="3.23397">
        <ele>375.53210449219</ele>
        <time>2010-05-30T06:15:34Z</time>
      </trkpt>
      <trkpt lat="45.71567" lon="3.23426">
        <ele>375.53210449219</ele>
        <time>2010-05-30T06:15:39Z</time>
      </trkpt>
      <trkpt lat="45.7155" lon="3.2347">
        <ele>376.01281738281</ele>
        <time>2010-05-30T06:15:48Z</time>
      </trkpt>
      <trkpt lat="45.71534" lon="3.23509">
        <ele>376.97424316406</ele>
        <time>2010-05-30T06:15:57Z</time>
      </trkpt>
      <trkpt lat="45.71523" lon="3.23535">
        <ele>378.41613769531</ele>
        <time>2010-05-30T06:16:04Z</time>
      </trkpt>
      <trkpt lat="45.71519" lon="3.23546">
        <ele>378.89685058594</ele>
        <time>2010-05-30T06:16:07Z</time>
      </trkpt>
      <trkpt lat="45.71515" lon="3.23556">
        <ele>380.33874511719</ele>
        <time>2010-05-30T06:16:10Z</time>
      </trkpt>
      <trkpt lat="45.71513" lon="3.23559">
        <ele>380.81945800781</ele>
        <time>2010-05-30T06:16:11Z</time>
      </trkpt>
      <trkpt lat="45.71512" lon="3.23562">
        <ele>381.30004882812</ele>
        <time>2010-05-30T06:16:12Z</time>
      </trkpt>
      <trkpt lat="45.71506" lon="3.23576">
        <ele>381.30004882812</ele>
        <time>2010-05-30T06:16:16Z</time>
      </trkpt>
      <trkpt lat="45.715" lon="3.2359">
        <ele>381.78063964844</ele>
        <time>2010-05-30T06:16:20Z</time>
      </trkpt>
      <trkpt lat="45.71489" lon="3.23619">
        <ele>385.14538574219</ele>
        <time>2010-05-30T06:16:28Z</time>
      </trkpt>
      <trkpt lat="45.71483" lon="3.23642">
        <ele>385.6259765625</ele>
        <time>2010-05-30T06:16:35Z</time>
      </trkpt>
      <trkpt lat="45.71478" lon="3.23679">
        <ele>385.6259765625</ele>
        <time>2010-05-30T06:16:42Z</time>
      </trkpt>
      <trkpt lat="45.71473" lon="3.23714">
        <ele>386.10668945312</ele>
        <time>2010-05-30T06:16:49Z</time>
      </trkpt>
      <trkpt lat="45.71468" lon="3.23755">
        <ele>384.18408203125</ele>
        <time>2010-05-30T06:16:57Z</time>
      </trkpt>
      <trkpt lat="45.71466" lon="3.23763">
        <ele>383.70324707031</ele>
        <time>2010-05-30T06:16:58Z</time>
      </trkpt>
      <trkpt lat="45.7146" lon="3.23799">
        <ele>384.18408203125</ele>
        <time>2010-05-30T06:17:03Z</time>
      </trkpt>
      <trkpt lat="45.71457" lon="3.23826">
        <ele>386.10668945312</ele>
        <time>2010-05-30T06:17:09Z</time>
      </trkpt>
      <trkpt lat="45.71453" lon="3.23848">
        <ele>388.99060058594</ele>
        <time>2010-05-30T06:17:15Z</time>
      </trkpt>
      <trkpt lat="45.71453" lon="3.23863">
        <ele>388.99060058594</ele>
        <time>2010-05-30T06:17:19Z</time>
      </trkpt>
      <trkpt lat="45.71455" lon="3.2389">
        <ele>389.95190429688</ele>
        <time>2010-05-30T06:17:26Z</time>
      </trkpt>
      <trkpt lat="45.71464" lon="3.23926">
        <ele>391.39379882812</ele>
        <time>2010-05-30T06:17:35Z</time>
      </trkpt>
      <trkpt lat="45.71465" lon="3.23947">
        <ele>391.87451171875</ele>
        <time>2010-05-30T06:17:41Z</time>
      </trkpt>
      <trkpt lat="45.71459" lon="3.23966">
        <ele>392.8359375</ele>
        <time>2010-05-30T06:17:47Z</time>
      </trkpt>
      <trkpt lat="45.71454" lon="3.23986">
        <ele>395.23913574219</ele>
        <time>2010-05-30T06:17:55Z</time>
      </trkpt>
      <trkpt lat="45.71451" lon="3.23998">
        <ele>397.64245605469</ele>
        <time>2010-05-30T06:18:00Z</time>
      </trkpt>
      <trkpt lat="45.71447" lon="3.24015">
        <ele>400.0458984375</ele>
        <time>2010-05-30T06:18:07Z</time>
      </trkpt>
      <trkpt lat="45.71443" lon="3.24028">
        <ele>402.44909667969</ele>
        <time>2010-05-30T06:18:13Z</time>
      </trkpt>
      <trkpt lat="45.71442" lon="3.24034">
        <ele>403.41040039062</ele>
        <time>2010-05-30T06:18:16Z</time>
      </trkpt>
      <trkpt lat="45.71439" lon="3.24047">
        <ele>405.3330078125</ele>
        <time>2010-05-30T06:18:23Z</time>
      </trkpt>
      <trkpt lat="45.71433" lon="3.24054">
        <ele>406.29431152344</ele>
        <time>2010-05-30T06:18:29Z</time>
      </trkpt>
      <trkpt lat="45.71429" lon="3.24053">
        <ele>406.77490234375</ele>
        <time>2010-05-30T06:18:31Z</time>
      </trkpt>
      <trkpt lat="45.71415" lon="3.24047">
        <ele>408.21704101562</ele>
        <time>2010-05-30T06:18:39Z</time>
      </trkpt>
      <trkpt lat="45.71397" lon="3.24043">
        <ele>411.10095214844</ele>
        <time>2010-05-30T06:18:48Z</time>
      </trkpt>
      <trkpt lat="45.7138" lon="3.24039">
        <ele>412.54284667969</ele>
        <time>2010-05-30T06:18:56Z</time>
      </trkpt>
      <trkpt lat="45.71364" lon="3.24034">
        <ele>413.50427246094</ele>
        <time>2010-05-30T06:19:04Z</time>
      </trkpt>
      <trkpt lat="45.7136" lon="3.24033">
        <ele>414.46545410156</ele>
        <time>2010-05-30T06:19:06Z</time>
      </trkpt>
      <trkpt lat="45.71342" lon="3.24029">
        <ele>415.42687988281</ele>
        <time>2010-05-30T06:19:15Z</time>
      </trkpt>
      <trkpt lat="45.71332" lon="3.24026">
        <ele>416.86889648438</ele>
        <time>2010-05-30T06:19:20Z</time>
      </trkpt>
      <trkpt lat="45.71318" lon="3.24023">
        <ele>418.31079101562</ele>
        <time>2010-05-30T06:19:27Z</time>
      </trkpt>
      <trkpt lat="45.71305" lon="3.24019">
        <ele>420.2333984375</ele>
        <time>2010-05-30T06:19:34Z</time>
      </trkpt>
      <trkpt lat="45.71291" lon="3.24014">
        <ele>422.63671875</ele>
        <time>2010-05-30T06:19:42Z</time>
      </trkpt>
      <trkpt lat="45.71276" lon="3.24008">
        <ele>424.07873535156</ele>
        <time>2010-05-30T06:19:50Z</time>
      </trkpt>
      <trkpt lat="45.71262" lon="3.23997">
        <ele>425.52075195312</ele>
        <time>2010-05-30T06:19:58Z</time>
      </trkpt>
      <trkpt lat="45.71249" lon="3.23984">
        <ele>426.96276855469</ele>
        <time>2010-05-30T06:20:06Z</time>
      </trkpt>
      <trkpt lat="45.71245" lon="3.23981">
        <ele>428.40466308594</ele>
        <time>2010-05-30T06:20:08Z</time>
      </trkpt>
      <trkpt lat="45.71229" lon="3.23966">
        <ele>429.84655761719</ele>
        <time>2010-05-30T06:20:17Z</time>
      </trkpt>
      <trkpt lat="45.71215" lon="3.23959">
        <ele>430.80798339844</ele>
        <time>2010-05-30T06:20:24Z</time>
      </trkpt>
      <trkpt lat="45.71201" lon="3.23952">
        <ele>432.25</ele>
        <time>2010-05-30T06:20:31Z</time>
      </trkpt>
      <trkpt lat="45.71181" lon="3.23945">
        <ele>433.69189453125</ele>
        <time>2010-05-30T06:20:41Z</time>
      </trkpt>
      <trkpt lat="45.71169" lon="3.23949">
        <ele>434.17260742188</ele>
        <time>2010-05-30T06:20:47Z</time>
      </trkpt>
      <trkpt lat="45.71159" lon="3.23972">
        <ele>435.61450195312</ele>
        <time>2010-05-30T06:20:54Z</time>
      </trkpt>
      <trkpt lat="45.71146" lon="3.24003">
        <ele>436.57592773438</ele>
        <time>2010-05-30T06:21:04Z</time>
      </trkpt>
      <trkpt lat="45.71131" lon="3.24026">
        <ele>437.537109375</ele>
        <time>2010-05-30T06:21:12Z</time>
      </trkpt>
      <trkpt lat="45.71109" lon="3.24056">
        <ele>438.49853515625</ele>
        <time>2010-05-30T06:21:22Z</time>
      </trkpt>
      <trkpt lat="45.71087" lon="3.24082">
        <ele>439.45971679688</ele>
        <time>2010-05-30T06:21:31Z</time>
      </trkpt>
      <trkpt lat="45.7107" lon="3.24104">
        <ele>440.42126464844</ele>
        <time>2010-05-30T06:21:38Z</time>
      </trkpt>
      <trkpt lat="45.71059" lon="3.24121">
        <ele>441.86315917969</ele>
        <time>2010-05-30T06:21:43Z</time>
      </trkpt>
      <trkpt lat="45.71047" lon="3.2415">
        <ele>442.82446289062</ele>
        <time>2010-05-30T06:21:51Z</time>
      </trkpt>
      <trkpt lat="45.71038" lon="3.24173">
        <ele>443.78576660156</ele>
        <time>2010-05-30T06:21:58Z</time>
      </trkpt>
      <trkpt lat="45.71025" lon="3.24178">
        <ele>445.70837402344</ele>
        <time>2010-05-30T06:22:04Z</time>
      </trkpt>
      <trkpt lat="45.71012" lon="3.24181">
        <ele>448.11181640625</ele>
        <time>2010-05-30T06:22:11Z</time>
      </trkpt>
      <trkpt lat="45.71004" lon="3.24184">
        <ele>450.03442382812</ele>
        <time>2010-05-30T06:22:16Z</time>
      </trkpt>
      <trkpt lat="45.71003" lon="3.24185">
        <ele>450.51501464844</ele>
        <time>2010-05-30T06:22:17Z</time>
      </trkpt>
      <trkpt lat="45.70995" lon="3.2419">
        <ele>451.47631835938</ele>
        <time>2010-05-30T06:22:22Z</time>
      </trkpt>
      <trkpt lat="45.7099" lon="3.24195">
        <ele>453.39892578125</ele>
        <time>2010-05-30T06:22:26Z</time>
      </trkpt>
      <trkpt lat="45.70987" lon="3.24197">
        <ele>454.36022949219</ele>
        <time>2010-05-30T06:22:28Z</time>
      </trkpt>
      <trkpt lat="45.70982" lon="3.24205">
        <ele>455.80224609375</ele>
        <time>2010-05-30T06:22:33Z</time>
      </trkpt>
      <trkpt lat="45.7098" lon="3.24216">
        <ele>457.24426269531</ele>
        <time>2010-05-30T06:22:39Z</time>
      </trkpt>
      <trkpt lat="45.70977" lon="3.24219">
        <ele>457.24426269531</ele>
        <time>2010-05-30T06:22:41Z</time>
      </trkpt>
      <trkpt lat="45.70963" lon="3.24225">
        <ele>460.12817382812</ele>
        <time>2010-05-30T06:22:50Z</time>
      </trkpt>
      <trkpt lat="45.70948" lon="3.24231">
        <ele>462.05078125</ele>
        <time>2010-05-30T06:22:58Z</time>
      </trkpt>
      <trkpt lat="45.70932" lon="3.24237">
        <ele>464.4541015625</ele>
        <time>2010-05-30T06:23:07Z</time>
      </trkpt>
      <trkpt lat="45.70921" lon="3.24243">
        <ele>466.37670898438</ele>
        <time>2010-05-30T06:23:13Z</time>
      </trkpt>
      <trkpt lat="45.70906" lon="3.2425">
        <ele>467.33813476562</ele>
        <time>2010-05-30T06:23:22Z</time>
      </trkpt>
      <trkpt lat="45.70892" lon="3.2426">
        <ele>468.78002929688</ele>
        <time>2010-05-30T06:23:31Z</time>
      </trkpt>
      <trkpt lat="45.7088" lon="3.24273">
        <ele>470.22192382812</ele>
        <time>2010-05-30T06:23:39Z</time>
      </trkpt>
      <trkpt lat="45.70864" lon="3.24282">
        <ele>472.62536621094</ele>
        <time>2010-05-30T06:23:48Z</time>
      </trkpt>
      <trkpt lat="45.70856" lon="3.24283">
        <ele>473.10607910156</ele>
        <time>2010-05-30T06:23:52Z</time>
      </trkpt>
      <trkpt lat="45.70842" lon="3.24282">
        <ele>475.02868652344</ele>
        <time>2010-05-30T06:24:00Z</time>
      </trkpt>
      <trkpt lat="45.70827" lon="3.24279">
        <ele>477.43188476562</ele>
        <time>2010-05-30T06:24:09Z</time>
      </trkpt>
      <trkpt lat="45.70817" lon="3.24279">
        <ele>479.83508300781</ele>
        <time>2010-05-30T06:24:15Z</time>
      </trkpt>
      <trkpt lat="45.70814" lon="3.24278">
        <ele>480.79663085938</ele>
        <time>2010-05-30T06:24:17Z</time>
      </trkpt>
      <trkpt lat="45.708" lon="3.24278">
        <ele>482.23852539062</ele>
        <time>2010-05-30T06:24:25Z</time>
      </trkpt>
      <trkpt lat="45.70797" lon="3.24286">
        <ele>483.19982910156</ele>
        <time>2010-05-30T06:24:29Z</time>
      </trkpt>
      <trkpt lat="45.708" lon="3.2431">
        <ele>482.71923828125</ele>
        <time>2010-05-30T06:24:37Z</time>
      </trkpt>
      <trkpt lat="45.70809" lon="3.24347">
        <ele>482.23852539062</ele>
        <time>2010-05-30T06:24:46Z</time>
      </trkpt>
      <trkpt lat="45.70818" lon="3.24383">
        <ele>484.1611328125</ele>
        <time>2010-05-30T06:24:55Z</time>
      </trkpt>
      <trkpt lat="45.70826" lon="3.24416">
        <ele>485.60302734375</ele>
        <time>2010-05-30T06:25:04Z</time>
      </trkpt>
      <trkpt lat="45.70837" lon="3.2446">
        <ele>488.48718261719</ele>
        <time>2010-05-30T06:25:16Z</time>
      </trkpt>
      <trkpt lat="45.70844" lon="3.24498">
        <ele>489.92907714844</ele>
        <time>2010-05-30T06:25:26Z</time>
      </trkpt>
      <trkpt lat="45.70849" lon="3.24528">
        <ele>493.29357910156</ele>
        <time>2010-05-30T06:25:36Z</time>
      </trkpt>
      <trkpt lat="45.7085" lon="3.24534">
        <ele>494.25500488281</ele>
        <time>2010-05-30T06:25:38Z</time>
      </trkpt>
      <trkpt lat="45.70851" lon="3.24542">
        <ele>496.177734375</ele>
        <time>2010-05-30T06:25:41Z</time>
      </trkpt>
      <trkpt lat="45.70853" lon="3.24562">
        <ele>498.58093261719</ele>
        <time>2010-05-30T06:25:48Z</time>
      </trkpt>
      <trkpt lat="45.70854" lon="3.24565">
        <ele>499.0615234375</ele>
        <time>2010-05-30T06:25:49Z</time>
      </trkpt>
      <trkpt lat="45.70856" lon="3.2459">
        <ele>500.50354003906</ele>
        <time>2010-05-30T06:25:58Z</time>
      </trkpt>
      <trkpt lat="45.70858" lon="3.24614">
        <ele>501.94555664062</ele>
        <time>2010-05-30T06:26:06Z</time>
      </trkpt>
      <trkpt lat="45.70853" lon="3.24638">
        <ele>503.8681640625</ele>
        <time>2010-05-30T06:26:15Z</time>
      </trkpt>
      <trkpt lat="45.70845" lon="3.24651">
        <ele>505.31018066406</ele>
        <time>2010-05-30T06:26:22Z</time>
      </trkpt>
      <trkpt lat="45.7083" lon="3.2466">
        <ele>507.71350097656</ele>
        <time>2010-05-30T06:26:31Z</time>
      </trkpt>
      <trkpt lat="45.70817" lon="3.24663">
        <ele>510.11669921875</ele>
        <time>2010-05-30T06:26:38Z</time>
      </trkpt>
      <trkpt lat="45.70802" lon="3.24667">
        <ele>513.96203613281</ele>
        <time>2010-05-30T06:26:47Z</time>
      </trkpt>
      <trkpt lat="45.708" lon="3.24667">
        <ele>513.96203613281</ele>
        <time>2010-05-30T06:26:48Z</time>
      </trkpt>
      <trkpt lat="45.70781" lon="3.24671">
        <ele>515.40405273438</ele>
        <time>2010-05-30T06:26:58Z</time>
      </trkpt>
      <trkpt lat="45.70767" lon="3.24675">
        <ele>518.28784179688</ele>
        <time>2010-05-30T06:27:06Z</time>
      </trkpt>
      <trkpt lat="45.70752" lon="3.24679">
        <ele>519.24926757812</ele>
        <time>2010-05-30T06:27:14Z</time>
      </trkpt>
      <trkpt lat="45.70741" lon="3.24686">
        <ele>519.72985839844</ele>
        <time>2010-05-30T06:27:20Z</time>
      </trkpt>
      <trkpt lat="45.70725" lon="3.24697">
        <ele>520.69128417969</ele>
        <time>2010-05-30T06:27:28Z</time>
      </trkpt>
      <trkpt lat="45.70705" lon="3.24712">
        <ele>522.61389160156</ele>
        <time>2010-05-30T06:27:38Z</time>
      </trkpt>
      <trkpt lat="45.70688" lon="3.24731">
        <ele>523.5751953125</ele>
        <time>2010-05-30T06:27:47Z</time>
      </trkpt>
      <trkpt lat="45.70671" lon="3.24753">
        <ele>526.45910644531</ele>
        <time>2010-05-30T06:27:57Z</time>
      </trkpt>
      <trkpt lat="45.70655" lon="3.24772">
        <ele>528.3818359375</ele>
        <time>2010-05-30T06:28:06Z</time>
      </trkpt>
      <trkpt lat="45.70636" lon="3.2479">
        <ele>529.34313964844</ele>
        <time>2010-05-30T06:28:16Z</time>
      </trkpt>
      <trkpt lat="45.70618" lon="3.24802">
        <ele>531.74633789062</ele>
        <time>2010-05-30T06:28:24Z</time>
      </trkpt>
      <trkpt lat="45.70599" lon="3.24812">
        <ele>533.18835449219</ele>
        <time>2010-05-30T06:28:32Z</time>
      </trkpt>
      <trkpt lat="45.70577" lon="3.24821">
        <ele>535.11096191406</ele>
        <time>2010-05-30T06:28:41Z</time>
      </trkpt>
      <trkpt lat="45.70557" lon="3.24823">
        <ele>536.55310058594</ele>
        <time>2010-05-30T06:28:49Z</time>
      </trkpt>
      <trkpt lat="45.70534" lon="3.24826">
        <ele>537.03369140625</ele>
        <time>2010-05-30T06:28:57Z</time>
      </trkpt>
      <trkpt lat="45.70504" lon="3.24836">
        <ele>537.99499511719</ele>
        <time>2010-05-30T06:29:07Z</time>
      </trkpt>
      <trkpt lat="45.70476" lon="3.2485">
        <ele>537.51428222656</ele>
        <time>2010-05-30T06:29:16Z</time>
      </trkpt>
      <trkpt lat="45.70446" lon="3.24867">
        <ele>536.07238769531</ele>
        <time>2010-05-30T06:29:23Z</time>
      </trkpt>
      <trkpt lat="45.7043" lon="3.24878">
        <ele>535.11096191406</ele>
        <time>2010-05-30T06:29:26Z</time>
      </trkpt>
      <trkpt lat="45.70418" lon="3.24887">
        <ele>534.14965820312</ele>
        <time>2010-05-30T06:29:28Z</time>
      </trkpt>
      <trkpt lat="45.70388" lon="3.2491">
        <ele>533.18835449219</ele>
        <time>2010-05-30T06:29:33Z</time>
      </trkpt>
      <trkpt lat="45.7037" lon="3.24922">
        <ele>532.22705078125</ele>
        <time>2010-05-30T06:29:36Z</time>
      </trkpt>
      <trkpt lat="45.70359" lon="3.2493">
        <ele>532.70776367188</ele>
        <time>2010-05-30T06:29:38Z</time>
      </trkpt>
      <trkpt lat="45.70354" lon="3.24934">
        <ele>532.70776367188</ele>
        <time>2010-05-30T06:29:39Z</time>
      </trkpt>
      <trkpt lat="45.70339" lon="3.24946">
        <ele>532.22705078125</ele>
        <time>2010-05-30T06:29:42Z</time>
      </trkpt>
      <trkpt lat="45.70301" lon="3.24978">
        <ele>531.26574707031</ele>
        <time>2010-05-30T06:29:50Z</time>
      </trkpt>
      <trkpt lat="45.70256" lon="3.25014">
        <ele>531.26574707031</ele>
        <time>2010-05-30T06:29:59Z</time>
      </trkpt>
      <trkpt lat="45.70216" lon="3.2504">
        <ele>531.26574707031</ele>
        <time>2010-05-30T06:30:08Z</time>
      </trkpt>
      <trkpt lat="45.70183" lon="3.25062">
        <ele>532.22705078125</ele>
        <time>2010-05-30T06:30:16Z</time>
      </trkpt>
      <trkpt lat="45.70161" lon="3.25072">
        <ele>533.6689453125</ele>
        <time>2010-05-30T06:30:22Z</time>
      </trkpt>
      <trkpt lat="45.70151" lon="3.25074">
        <ele>534.63037109375</ele>
        <time>2010-05-30T06:30:25Z</time>
      </trkpt>
      <trkpt lat="45.70125" lon="3.25086">
        <ele>535.59155273438</ele>
        <time>2010-05-30T06:30:33Z</time>
      </trkpt>
      <trkpt lat="45.70113" lon="3.25107">
        <ele>536.55310058594</ele>
        <time>2010-05-30T06:30:39Z</time>
      </trkpt>
      <trkpt lat="45.70107" lon="3.25118">
        <ele>537.51428222656</ele>
        <time>2010-05-30T06:30:43Z</time>
      </trkpt>
      <trkpt lat="45.70097" lon="3.25132">
        <ele>539.43688964844</ele>
        <time>2010-05-30T06:30:49Z</time>
      </trkpt>
      <trkpt lat="45.70091" lon="3.25139">
        <ele>539.91760253906</ele>
        <time>2010-05-30T06:30:52Z</time>
      </trkpt>
      <trkpt lat="45.70083" lon="3.25149">
        <ele>540.87890625</ele>
        <time>2010-05-30T06:30:57Z</time>
      </trkpt>
      <trkpt lat="45.70073" lon="3.25162">
        <ele>541.84020996094</ele>
        <time>2010-05-30T06:31:03Z</time>
      </trkpt>
      <trkpt lat="45.70068" lon="3.25168">
        <ele>542.80151367188</ele>
        <time>2010-05-30T06:31:06Z</time>
      </trkpt>
      <trkpt lat="45.7006" lon="3.25177">
        <ele>544.24365234375</ele>
        <time>2010-05-30T06:31:11Z</time>
      </trkpt>
      <trkpt lat="45.7004" lon="3.25192">
        <ele>547.12744140625</ele>
        <time>2010-05-30T06:31:21Z</time>
      </trkpt>
      <trkpt lat="45.70024" lon="3.25204">
        <ele>549.05004882812</ele>
        <time>2010-05-30T06:31:29Z</time>
      </trkpt>
      <trkpt lat="45.70004" lon="3.25222">
        <ele>549.53076171875</ele>
        <time>2010-05-30T06:31:39Z</time>
      </trkpt>
      <trkpt lat="45.69981" lon="3.25244">
        <ele>552.89526367188</ele>
        <time>2010-05-30T06:31:51Z</time>
      </trkpt>
      <trkpt lat="45.69964" lon="3.2526">
        <ele>554.33740234375</ele>
        <time>2010-05-30T06:32:01Z</time>
      </trkpt>
      <trkpt lat="45.69958" lon="3.25265">
        <ele>555.779296875</ele>
        <time>2010-05-30T06:32:04Z</time>
      </trkpt>
      <trkpt lat="45.69941" lon="3.25278">
        <ele>558.18286132812</ele>
        <time>2010-05-30T06:32:13Z</time>
      </trkpt>
      <trkpt lat="45.69921" lon="3.25289">
        <ele>559.14404296875</ele>
        <time>2010-05-30T06:32:22Z</time>
      </trkpt>
      <trkpt lat="45.69896" lon="3.25299">
        <ele>561.06665039062</ele>
        <time>2010-05-30T06:32:32Z</time>
      </trkpt>
      <trkpt lat="45.69877" lon="3.25303">
        <ele>561.06665039062</ele>
        <time>2010-05-30T06:32:39Z</time>
      </trkpt>
      <trkpt lat="45.69858" lon="3.25303">
        <ele>559.62475585938</ele>
        <time>2010-05-30T06:32:44Z</time>
      </trkpt>
      <trkpt lat="45.69837" lon="3.25303">
        <ele>558.18286132812</ele>
        <time>2010-05-30T06:32:48Z</time>
      </trkpt>
      <trkpt lat="45.69825" lon="3.25302">
        <ele>556.26000976562</ele>
        <time>2010-05-30T06:32:50Z</time>
      </trkpt>
      <trkpt lat="45.6982" lon="3.25302">
        <ele>556.26000976562</ele>
        <time>2010-05-30T06:32:51Z</time>
      </trkpt>
      <trkpt lat="45.69807" lon="3.253">
        <ele>554.81787109375</ele>
        <time>2010-05-30T06:32:53Z</time>
      </trkpt>
      <trkpt lat="45.69783" lon="3.25294">
        <ele>551.93408203125</ele>
        <time>2010-05-30T06:32:57Z</time>
      </trkpt>
      <trkpt lat="45.69778" lon="3.25292">
        <ele>551.45336914062</ele>
        <time>2010-05-30T06:32:58Z</time>
      </trkpt>
      <trkpt lat="45.69752" lon="3.25294">
        <ele>547.60815429688</ele>
        <time>2010-05-30T06:33:02Z</time>
      </trkpt>
      <trkpt lat="45.69745" lon="3.25297">
        <ele>547.12744140625</ele>
        <time>2010-05-30T06:33:03Z</time>
      </trkpt>
      <trkpt lat="45.69724" lon="3.25308">
        <ele>545.685546875</ele>
        <time>2010-05-30T06:33:06Z</time>
      </trkpt>
      <trkpt lat="45.69678" lon="3.25315">
        <ele>541.35949707031</ele>
        <time>2010-05-30T06:33:12Z</time>
      </trkpt>
      <trkpt lat="45.69645" lon="3.25321">
        <ele>537.99499511719</ele>
        <time>2010-05-30T06:33:16Z</time>
      </trkpt>
      <trkpt lat="45.69637" lon="3.25323">
        <ele>537.99499511719</ele>
        <time>2010-05-30T06:33:17Z</time>
      </trkpt>
      <trkpt lat="45.6962" lon="3.25327">
        <ele>536.55310058594</ele>
        <time>2010-05-30T06:33:19Z</time>
      </trkpt>
      <trkpt lat="45.69588" lon="3.2532">
        <ele>534.63037109375</ele>
        <time>2010-05-30T06:33:23Z</time>
      </trkpt>
      <trkpt lat="45.69576" lon="3.2531">
        <ele>533.6689453125</ele>
        <time>2010-05-30T06:33:25Z</time>
      </trkpt>
      <trkpt lat="45.69557" lon="3.25295">
        <ele>533.18835449219</ele>
        <time>2010-05-30T06:33:28Z</time>
      </trkpt>
      <trkpt lat="45.69531" lon="3.25285">
        <ele>532.70776367188</ele>
        <time>2010-05-30T06:33:32Z</time>
      </trkpt>
      <trkpt lat="45.69505" lon="3.25285">
        <ele>531.74633789062</ele>
        <time>2010-05-30T06:33:36Z</time>
      </trkpt>
      <trkpt lat="45.69471" lon="3.25274">
        <ele>531.26574707031</ele>
        <time>2010-05-30T06:33:42Z</time>
      </trkpt>
      <trkpt lat="45.69461" lon="3.25271">
        <ele>531.26574707031</ele>
        <time>2010-05-30T06:33:44Z</time>
      </trkpt>
      <trkpt lat="45.69445" lon="3.25268">
        <ele>531.26574707031</ele>
        <time>2010-05-30T06:33:47Z</time>
      </trkpt>
      <trkpt lat="45.69422" lon="3.25279">
        <ele>532.22705078125</ele>
        <time>2010-05-30T06:33:52Z</time>
      </trkpt>
      <trkpt lat="45.69415" lon="3.25288">
        <ele>531.74633789062</ele>
        <time>2010-05-30T06:33:54Z</time>
      </trkpt>
      <trkpt lat="45.69397" lon="3.25317">
        <ele>533.6689453125</ele>
        <time>2010-05-30T06:34:01Z</time>
      </trkpt>
      <trkpt lat="45.69386" lon="3.25331">
        <ele>534.14965820312</ele>
        <time>2010-05-30T06:34:06Z</time>
      </trkpt>
      <trkpt lat="45.69382" lon="3.25335">
        <ele>534.14965820312</ele>
        <time>2010-05-30T06:34:08Z</time>
      </trkpt>
      <trkpt lat="45.69374" lon="3.25341">
        <ele>535.59155273438</ele>
        <time>2010-05-30T06:34:11Z</time>
      </trkpt>
      <trkpt lat="45.69355" lon="3.25351">
        <ele>537.99499511719</ele>
        <time>2010-05-30T06:34:19Z</time>
      </trkpt>
      <trkpt lat="45.69342" lon="3.25355">
        <ele>539.43688964844</ele>
        <time>2010-05-30T06:34:24Z</time>
      </trkpt>
      <trkpt lat="45.6933" lon="3.2536">
        <ele>540.39831542969</ele>
        <time>2010-05-30T06:34:29Z</time>
      </trkpt>
      <trkpt lat="45.69328" lon="3.25361">
        <ele>540.87890625</ele>
        <time>2010-05-30T06:34:30Z</time>
      </trkpt>
      <trkpt lat="45.69312" lon="3.25367">
        <ele>541.84020996094</ele>
        <time>2010-05-30T06:34:36Z</time>
      </trkpt>
      <trkpt lat="45.69295" lon="3.25376">
        <ele>543.28210449219</ele>
        <time>2010-05-30T06:34:43Z</time>
      </trkpt>
      <trkpt lat="45.69288" lon="3.25379">
        <ele>544.24365234375</ele>
        <time>2010-05-30T06:34:46Z</time>
      </trkpt>
      <trkpt lat="45.69267" lon="3.25389">
        <ele>546.16625976562</ele>
        <time>2010-05-30T06:34:55Z</time>
      </trkpt>
      <trkpt lat="45.69258" lon="3.25394">
        <ele>547.12744140625</ele>
        <time>2010-05-30T06:34:59Z</time>
      </trkpt>
      <trkpt lat="45.6924" lon="3.25401">
        <ele>549.05004882812</ele>
        <time>2010-05-30T06:35:07Z</time>
      </trkpt>
      <trkpt lat="45.69219" lon="3.25409">
        <ele>551.93408203125</ele>
        <time>2010-05-30T06:35:16Z</time>
      </trkpt>
      <trkpt lat="45.69197" lon="3.25417">
        <ele>552.41455078125</ele>
        <time>2010-05-30T06:35:25Z</time>
      </trkpt>
      <trkpt lat="45.69179" lon="3.25418">
        <ele>552.41455078125</ele>
        <time>2010-05-30T06:35:32Z</time>
      </trkpt>
      <trkpt lat="45.69167" lon="3.25407">
        <ele>551.93408203125</ele>
        <time>2010-05-30T06:35:36Z</time>
      </trkpt>
      <trkpt lat="45.69148" lon="3.25374">
        <ele>550.97265625</ele>
        <time>2010-05-30T06:35:42Z</time>
      </trkpt>
      <trkpt lat="45.69122" lon="3.25344">
        <ele>550.4921875</ele>
        <time>2010-05-30T06:35:50Z</time>
      </trkpt>
      <trkpt lat="45.69102" lon="3.25328">
        <ele>551.93408203125</ele>
        <time>2010-05-30T06:35:56Z</time>
      </trkpt>
      <trkpt lat="45.69096" lon="3.25325">
        <ele>551.93408203125</ele>
        <time>2010-05-30T06:35:58Z</time>
      </trkpt>
      <trkpt lat="45.69085" lon="3.25321">
        <ele>551.93408203125</ele>
        <time>2010-05-30T06:36:02Z</time>
      </trkpt>
      <trkpt lat="45.69072" lon="3.25322">
        <ele>553.3759765625</ele>
        <time>2010-05-30T06:36:06Z</time>
      </trkpt>
      <trkpt lat="45.69049" lon="3.25322">
        <ele>554.81787109375</ele>
        <time>2010-05-30T06:36:13Z</time>
      </trkpt>
      <trkpt lat="45.69028" lon="3.25327">
        <ele>555.779296875</ele>
        <time>2010-05-30T06:36:20Z</time>
      </trkpt>
      <trkpt lat="45.6901" lon="3.25343">
        <ele>556.26000976562</ele>
        <time>2010-05-30T06:36:26Z</time>
      </trkpt>
      <trkpt lat="45.68994" lon="3.25355">
        <ele>559.14404296875</ele>
        <time>2010-05-30T06:36:33Z</time>
      </trkpt>
      <trkpt lat="45.68982" lon="3.25367">
        <ele>561.06665039062</ele>
        <time>2010-05-30T06:36:40Z</time>
      </trkpt>
      <trkpt lat="45.68975" lon="3.25374">
        <ele>562.50854492188</ele>
        <time>2010-05-30T06:36:44Z</time>
      </trkpt>
      <trkpt lat="45.6896" lon="3.25386">
        <ele>564.91186523438</ele>
        <time>2010-05-30T06:36:52Z</time>
      </trkpt>
      <trkpt lat="45.6895" lon="3.25391">
        <ele>566.83447265625</ele>
        <time>2010-05-30T06:36:57Z</time>
      </trkpt>
      <trkpt lat="45.68941" lon="3.25395">
        <ele>568.2763671875</ele>
        <time>2010-05-30T06:37:01Z</time>
      </trkpt>
      <trkpt lat="45.68929" lon="3.25404">
        <ele>570.19897460938</ele>
        <time>2010-05-30T06:37:07Z</time>
      </trkpt>
      <trkpt lat="45.68915" lon="3.25424">
        <ele>570.6796875</ele>
        <time>2010-05-30T06:37:14Z</time>
      </trkpt>
      <trkpt lat="45.68892" lon="3.25455">
        <ele>572.12182617188</ele>
        <time>2010-05-30T06:37:24Z</time>
      </trkpt>
      <trkpt lat="45.68873" lon="3.25478">
        <ele>572.6025390625</ele>
        <time>2010-05-30T06:37:32Z</time>
      </trkpt>
      <trkpt lat="45.68859" lon="3.25493">
        <ele>571.16040039062</ele>
        <time>2010-05-30T06:37:36Z</time>
      </trkpt>
      <trkpt lat="45.68842" lon="3.2551">
        <ele>567.79565429688</ele>
        <time>2010-05-30T06:37:40Z</time>
      </trkpt>
      <trkpt lat="45.68834" lon="3.25515">
        <ele>566.83447265625</ele>
        <time>2010-05-30T06:37:42Z</time>
      </trkpt>
      <trkpt lat="45.68822" lon="3.25518">
        <ele>565.392578125</ele>
        <time>2010-05-30T06:37:44Z</time>
      </trkpt>
      <trkpt lat="45.68803" lon="3.25512">
        <ele>566.35375976562</ele>
        <time>2010-05-30T06:37:48Z</time>
      </trkpt>
      <trkpt lat="45.68786" lon="3.25514">
        <ele>568.2763671875</ele>
        <time>2010-05-30T06:37:53Z</time>
      </trkpt>
      <trkpt lat="45.68778" lon="3.25519">
        <ele>568.75708007812</ele>
        <time>2010-05-30T06:37:56Z</time>
      </trkpt>
      <trkpt lat="45.68762" lon="3.2553">
        <ele>570.19897460938</ele>
        <time>2010-05-30T06:38:02Z</time>
      </trkpt>
      <trkpt lat="45.68752" lon="3.25543">
        <ele>571.16040039062</ele>
        <time>2010-05-30T06:38:07Z</time>
      </trkpt>
      <trkpt lat="45.68734" lon="3.25565">
        <ele>571.64086914062</ele>
        <time>2010-05-30T06:38:13Z</time>
      </trkpt>
      <trkpt lat="45.68716" lon="3.25579">
        <ele>572.12182617188</ele>
        <time>2010-05-30T06:38:17Z</time>
      </trkpt>
      <trkpt lat="45.68683" lon="3.25586">
        <ele>573.08325195312</ele>
        <time>2010-05-30T06:38:25Z</time>
      </trkpt>
      <trkpt lat="45.68653" lon="3.2559">
        <ele>573.56396484375</ele>
        <time>2010-05-30T06:38:32Z</time>
      </trkpt>
      <trkpt lat="45.68639" lon="3.25593">
        <ele>572.12182617188</ele>
        <time>2010-05-30T06:38:35Z</time>
      </trkpt>
      <trkpt lat="45.68594" lon="3.25597">
        <ele>571.16040039062</ele>
        <time>2010-05-30T06:38:43Z</time>
      </trkpt>
      <trkpt lat="45.68579" lon="3.25599">
        <ele>570.6796875</ele>
        <time>2010-05-30T06:38:46Z</time>
      </trkpt>
      <trkpt lat="45.68564" lon="3.25604">
        <ele>570.6796875</ele>
        <time>2010-05-30T06:38:49Z</time>
      </trkpt>
      <trkpt lat="45.6856" lon="3.25608">
        <ele>570.6796875</ele>
        <time>2010-05-30T06:38:50Z</time>
      </trkpt>
      <trkpt lat="45.68552" lon="3.25619">
        <ele>569.23779296875</ele>
        <time>2010-05-30T06:38:52Z</time>
      </trkpt>
      <trkpt lat="45.68538" lon="3.25656">
        <ele>566.83447265625</ele>
        <time>2010-05-30T06:38:57Z</time>
      </trkpt>
      <trkpt lat="45.68538" lon="3.25665">
        <ele>567.31518554688</ele>
        <time>2010-05-30T06:38:58Z</time>
      </trkpt>
      <trkpt lat="45.68533" lon="3.25716">
        <ele>565.392578125</ele>
        <time>2010-05-30T06:39:03Z</time>
      </trkpt>
      <trkpt lat="45.68519" lon="3.25772">
        <ele>563.46997070312</ele>
        <time>2010-05-30T06:39:09Z</time>
      </trkpt>
      <trkpt lat="45.68517" lon="3.2578">
        <ele>563.46997070312</ele>
        <time>2010-05-30T06:39:10Z</time>
      </trkpt>
      <trkpt lat="45.68505" lon="3.25803">
        <ele>564.91186523438</ele>
        <time>2010-05-30T06:39:14Z</time>
      </trkpt>
      <trkpt lat="45.68497" lon="3.25818">
        <ele>563.95043945312</ele>
        <time>2010-05-30T06:39:17Z</time>
      </trkpt>
      <trkpt lat="45.68485" lon="3.25839">
        <ele>564.91186523438</ele>
        <time>2010-05-30T06:39:22Z</time>
      </trkpt>
      <trkpt lat="45.68477" lon="3.2585">
        <ele>565.87329101562</ele>
        <time>2010-05-30T06:39:25Z</time>
      </trkpt>
      <trkpt lat="45.68451" lon="3.25889">
        <ele>565.392578125</ele>
        <time>2010-05-30T06:39:35Z</time>
      </trkpt>
      <trkpt lat="45.68435" lon="3.25906">
        <ele>566.35375976562</ele>
        <time>2010-05-30T06:39:41Z</time>
      </trkpt>
      <trkpt lat="45.68411" lon="3.25925">
        <ele>567.31518554688</ele>
        <time>2010-05-30T06:39:49Z</time>
      </trkpt>
      <trkpt lat="45.68391" lon="3.25943">
        <ele>568.2763671875</ele>
        <time>2010-05-30T06:39:56Z</time>
      </trkpt>
      <trkpt lat="45.68377" lon="3.25959">
        <ele>569.23779296875</ele>
        <time>2010-05-30T06:40:02Z</time>
      </trkpt>
      <trkpt lat="45.68355" lon="3.25977">
        <ele>571.16040039062</ele>
        <time>2010-05-30T06:40:10Z</time>
      </trkpt>
      <trkpt lat="45.6833" lon="3.25989">
        <ele>572.12182617188</ele>
        <time>2010-05-30T06:40:19Z</time>
      </trkpt>
      <trkpt lat="45.68315" lon="3.25988">
        <ele>573.56396484375</ele>
        <time>2010-05-30T06:40:25Z</time>
      </trkpt>
      <trkpt lat="45.68301" lon="3.25989">
        <ele>575.005859375</ele>
        <time>2010-05-30T06:40:31Z</time>
      </trkpt>
      <trkpt lat="45.6829" lon="3.25994">
        <ele>576.44775390625</ele>
        <time>2010-05-30T06:40:36Z</time>
      </trkpt>
      <trkpt lat="45.68277" lon="3.26002">
        <ele>577.4091796875</ele>
        <time>2010-05-30T06:40:44Z</time>
      </trkpt>
      <trkpt lat="45.68268" lon="3.2601">
        <ele>579.33154296875</ele>
        <time>2010-05-30T06:40:51Z</time>
      </trkpt>
      <trkpt lat="45.68257" lon="3.26021">
        <ele>582.21557617188</ele>
        <time>2010-05-30T06:41:00Z</time>
      </trkpt>
      <trkpt lat="45.68248" lon="3.26032">
        <ele>584.13818359375</ele>
        <time>2010-05-30T06:41:09Z</time>
      </trkpt>
      <trkpt lat="45.6824" lon="3.26042">
        <ele>585.099609375</ele>
        <time>2010-05-30T06:41:17Z</time>
      </trkpt>
      <trkpt lat="45.68237" lon="3.26045">
        <ele>585.580078125</ele>
        <time>2010-05-30T06:41:20Z</time>
      </trkpt>
      <trkpt lat="45.68233" lon="3.26052">
        <ele>587.02197265625</ele>
        <time>2010-05-30T06:41:26Z</time>
      </trkpt>
      <trkpt lat="45.68229" lon="3.26057">
        <ele>588.46435546875</ele>
        <time>2010-05-30T06:41:30Z</time>
      </trkpt>
      <trkpt lat="45.68218" lon="3.2607">
        <ele>589.90625</ele>
        <time>2010-05-30T06:41:40Z</time>
      </trkpt>
      <trkpt lat="45.68209" lon="3.26083">
        <ele>592.3095703125</ele>
        <time>2010-05-30T06:41:49Z</time>
      </trkpt>
      <trkpt lat="45.68202" lon="3.26096">
        <ele>594.71264648438</ele>
        <time>2010-05-30T06:41:57Z</time>
      </trkpt>
      <trkpt lat="45.68198" lon="3.26108">
        <ele>595.67407226562</ele>
        <time>2010-05-30T06:42:05Z</time>
      </trkpt>
      <trkpt lat="45.68195" lon="3.26119">
        <ele>598.07739257812</ele>
        <time>2010-05-30T06:42:11Z</time>
      </trkpt>
      <trkpt lat="45.68191" lon="3.26133">
        <ele>599.51928710938</ele>
        <time>2010-05-30T06:42:19Z</time>
      </trkpt>
      <trkpt lat="45.68188" lon="3.26146">
        <ele>600.96118164062</ele>
        <time>2010-05-30T06:42:27Z</time>
      </trkpt>
      <trkpt lat="45.68186" lon="3.26153">
        <ele>602.8837890625</ele>
        <time>2010-05-30T06:42:31Z</time>
      </trkpt>
      <trkpt lat="45.68184" lon="3.2616">
        <ele>604.326171875</ele>
        <time>2010-05-30T06:42:34Z</time>
      </trkpt>
      <trkpt lat="45.68178" lon="3.2618">
        <ele>606.24853515625</ele>
        <time>2010-05-30T06:42:43Z</time>
      </trkpt>
      <trkpt lat="45.6817" lon="3.26204">
        <ele>607.2099609375</ele>
        <time>2010-05-30T06:42:52Z</time>
      </trkpt>
      <trkpt lat="45.68165" lon="3.26221">
        <ele>607.69067382812</ele>
        <time>2010-05-30T06:42:58Z</time>
      </trkpt>
      <trkpt lat="45.68151" lon="3.26249">
        <ele>607.2099609375</ele>
        <time>2010-05-30T06:43:05Z</time>
      </trkpt>
      <trkpt lat="45.68141" lon="3.26264">
        <ele>607.2099609375</ele>
        <time>2010-05-30T06:43:09Z</time>
      </trkpt>
      <trkpt lat="45.68117" lon="3.26293">
        <ele>606.72924804688</ele>
        <time>2010-05-30T06:43:16Z</time>
      </trkpt>
      <trkpt lat="45.68114" lon="3.26297">
        <ele>606.24853515625</ele>
        <time>2010-05-30T06:43:17Z</time>
      </trkpt>
      <trkpt lat="45.6811" lon="3.26298">
        <ele>605.28735351562</ele>
        <time>2010-05-30T06:43:19Z</time>
      </trkpt>
      <trkpt lat="45.68103" lon="3.26295">
        <ele>604.326171875</ele>
        <time>2010-05-30T06:43:22Z</time>
      </trkpt>
      <trkpt lat="45.68093" lon="3.26294">
        <ele>603.84521484375</ele>
        <time>2010-05-30T06:43:25Z</time>
      </trkpt>
      <trkpt lat="45.68075" lon="3.26293">
        <ele>601.92260742188</ele>
        <time>2010-05-30T06:43:30Z</time>
      </trkpt>
      <trkpt lat="45.68052" lon="3.26297">
        <ele>600</ele>
        <time>2010-05-30T06:43:35Z</time>
      </trkpt>
      <trkpt lat="45.68015" lon="3.26309">
        <ele>597.5966796875</ele>
        <time>2010-05-30T06:43:42Z</time>
      </trkpt>
      <trkpt lat="45.67991" lon="3.26316">
        <ele>595.193359375</ele>
        <time>2010-05-30T06:43:46Z</time>
      </trkpt>
      <trkpt lat="45.67985" lon="3.26318">
        <ele>594.71264648438</ele>
        <time>2010-05-30T06:43:47Z</time>
      </trkpt>
      <trkpt lat="45.67944" lon="3.26331">
        <ele>590.38696289062</ele>
        <time>2010-05-30T06:43:53Z</time>
      </trkpt>
      <trkpt lat="45.67936" lon="3.26334">
        <ele>590.38696289062</ele>
        <time>2010-05-30T06:43:54Z</time>
      </trkpt>
      <trkpt lat="45.67907" lon="3.26343">
        <ele>587.02197265625</ele>
        <time>2010-05-30T06:43:58Z</time>
      </trkpt>
      <trkpt lat="45.67886" lon="3.26357">
        <ele>585.580078125</ele>
        <time>2010-05-30T06:44:01Z</time>
      </trkpt>
      <trkpt lat="45.6788" lon="3.26363">
        <ele>585.099609375</ele>
        <time>2010-05-30T06:44:02Z</time>
      </trkpt>
      <trkpt lat="45.67861" lon="3.26387">
        <ele>583.1767578125</ele>
        <time>2010-05-30T06:44:06Z</time>
      </trkpt>
      <trkpt lat="45.67827" lon="3.26427">
        <ele>582.6962890625</ele>
        <time>2010-05-30T06:44:13Z</time>
      </trkpt>
      <trkpt lat="45.67803" lon="3.26458">
        <ele>583.1767578125</ele>
        <time>2010-05-30T06:44:19Z</time>
      </trkpt>
      <trkpt lat="45.67789" lon="3.26477">
        <ele>583.1767578125</ele>
        <time>2010-05-30T06:44:23Z</time>
      </trkpt>
      <trkpt lat="45.67764" lon="3.26507">
        <ele>579.81225585938</ele>
        <time>2010-05-30T06:44:29Z</time>
      </trkpt>
      <trkpt lat="45.67743" lon="3.26528">
        <ele>576.92846679688</ele>
        <time>2010-05-30T06:44:33Z</time>
      </trkpt>
      <trkpt lat="45.67725" lon="3.26547">
        <ele>573.56396484375</ele>
        <time>2010-05-30T06:44:36Z</time>
      </trkpt>
      <trkpt lat="45.67695" lon="3.26579">
        <ele>571.64086914062</ele>
        <time>2010-05-30T06:44:41Z</time>
      </trkpt>
      <trkpt lat="45.67668" lon="3.26607">
        <ele>567.31518554688</ele>
        <time>2010-05-30T06:44:46Z</time>
      </trkpt>
      <trkpt lat="45.67663" lon="3.26614">
        <ele>567.31518554688</ele>
        <time>2010-05-30T06:44:47Z</time>
      </trkpt>
      <trkpt lat="45.67653" lon="3.26628">
        <ele>564.91186523438</ele>
        <time>2010-05-30T06:44:49Z</time>
      </trkpt>
      <trkpt lat="45.67645" lon="3.26643">
        <ele>564.43115234375</ele>
        <time>2010-05-30T06:44:51Z</time>
      </trkpt>
      <trkpt lat="45.67634" lon="3.26675">
        <ele>561.06665039062</ele>
        <time>2010-05-30T06:44:55Z</time>
      </trkpt>
      <trkpt lat="45.67631" lon="3.26683">
        <ele>560.10522460938</ele>
        <time>2010-05-30T06:44:56Z</time>
      </trkpt>
      <trkpt lat="45.67618" lon="3.26701">
        <ele>557.22143554688</ele>
        <time>2010-05-30T06:44:59Z</time>
      </trkpt>
      <trkpt lat="45.67599" lon="3.26717">
        <ele>553.85668945312</ele>
        <time>2010-05-30T06:45:02Z</time>
      </trkpt>
      <trkpt lat="45.67581" lon="3.26734">
        <ele>550.97265625</ele>
        <time>2010-05-30T06:45:05Z</time>
      </trkpt>
      <trkpt lat="45.67557" lon="3.26757">
        <ele>547.60815429688</ele>
        <time>2010-05-30T06:45:09Z</time>
      </trkpt>
      <trkpt lat="45.67543" lon="3.2677">
        <ele>546.64685058594</ele>
        <time>2010-05-30T06:45:11Z</time>
      </trkpt>
      <trkpt lat="45.67527" lon="3.26797">
        <ele>543.76281738281</ele>
        <time>2010-05-30T06:45:15Z</time>
      </trkpt>
      <trkpt lat="45.67523" lon="3.26821">
        <ele>542.32092285156</ele>
        <time>2010-05-30T06:45:18Z</time>
      </trkpt>
      <trkpt lat="45.67523" lon="3.2683">
        <ele>541.35949707031</ele>
        <time>2010-05-30T06:45:19Z</time>
      </trkpt>
      <trkpt lat="45.67523" lon="3.26848">
        <ele>540.39831542969</ele>
        <time>2010-05-30T06:45:21Z</time>
      </trkpt>
      <trkpt lat="45.67519" lon="3.26878">
        <ele>536.07238769531</ele>
        <time>2010-05-30T06:45:25Z</time>
      </trkpt>
      <trkpt lat="45.67516" lon="3.26898">
        <ele>533.18835449219</ele>
        <time>2010-05-30T06:45:28Z</time>
      </trkpt>
      <trkpt lat="45.67506" lon="3.26918">
        <ele>530.30444335938</ele>
        <time>2010-05-30T06:45:32Z</time>
      </trkpt>
      <trkpt lat="45.67502" lon="3.26919">
        <ele>529.82373046875</ele>
        <time>2010-05-30T06:45:33Z</time>
      </trkpt>
      <trkpt lat="45.67486" lon="3.26911">
        <ele>527.90100097656</ele>
        <time>2010-05-30T06:45:36Z</time>
      </trkpt>
      <trkpt lat="45.67476" lon="3.26902">
        <ele>526.93981933594</ele>
        <time>2010-05-30T06:45:39Z</time>
      </trkpt>
      <trkpt lat="45.67464" lon="3.2691">
        <ele>524.53649902344</ele>
        <time>2010-05-30T06:45:42Z</time>
      </trkpt>
      <trkpt lat="45.67461" lon="3.26918">
        <ele>523.5751953125</ele>
        <time>2010-05-30T06:45:44Z</time>
      </trkpt>
      <trkpt lat="45.67462" lon="3.2693">
        <ele>522.61389160156</ele>
        <time>2010-05-30T06:45:46Z</time>
      </trkpt>
      <trkpt lat="45.67464" lon="3.26943">
        <ele>521.17199707031</ele>
        <time>2010-05-30T06:45:48Z</time>
      </trkpt>
      <trkpt lat="45.67453" lon="3.26968">
        <ele>518.28784179688</ele>
        <time>2010-05-30T06:45:53Z</time>
      </trkpt>
      <trkpt lat="45.67437" lon="3.26976">
        <ele>514.92333984375</ele>
        <time>2010-05-30T06:45:56Z</time>
      </trkpt>
      <trkpt lat="45.67419" lon="3.26981">
        <ele>513.00073242188</ele>
        <time>2010-05-30T06:45:59Z</time>
      </trkpt>
      <trkpt lat="45.67404" lon="3.26978">
        <ele>511.55871582031</ele>
        <time>2010-05-30T06:46:02Z</time>
      </trkpt>
      <trkpt lat="45.67383" lon="3.26968">
        <ele>511.07800292969</ele>
        <time>2010-05-30T06:46:06Z</time>
      </trkpt>
      <trkpt lat="45.67368" lon="3.26964">
        <ele>511.07800292969</ele>
        <time>2010-05-30T06:46:09Z</time>
      </trkpt>
      <trkpt lat="45.67349" lon="3.26953">
        <ele>509.15539550781</ele>
        <time>2010-05-30T06:46:13Z</time>
      </trkpt>
      <trkpt lat="45.6734" lon="3.26965">
        <ele>506.75207519531</ele>
        <time>2010-05-30T06:46:16Z</time>
      </trkpt>
      <trkpt lat="45.67341" lon="3.26972">
        <ele>506.75207519531</ele>
        <time>2010-05-30T06:46:17Z</time>
      </trkpt>
      <trkpt lat="45.67345" lon="3.27004">
        <ele>503.8681640625</ele>
        <time>2010-05-30T06:46:21Z</time>
      </trkpt>
      <trkpt lat="45.67341" lon="3.27044">
        <ele>501.46484375</ele>
        <time>2010-05-30T06:46:25Z</time>
      </trkpt>
      <trkpt lat="45.67333" lon="3.27088">
        <ele>502.42614746094</ele>
        <time>2010-05-30T06:46:31Z</time>
      </trkpt>
      <trkpt lat="45.67329" lon="3.27112">
        <ele>504.82946777344</ele>
        <time>2010-05-30T06:46:36Z</time>
      </trkpt>
      <trkpt lat="45.67328" lon="3.27117">
        <ele>505.31018066406</ele>
        <time>2010-05-30T06:46:37Z</time>
      </trkpt>
      <trkpt lat="45.67326" lon="3.27125">
        <ele>505.31018066406</ele>
        <time>2010-05-30T06:46:39Z</time>
      </trkpt>
      <trkpt lat="45.67326" lon="3.27139">
        <ele>506.75207519531</ele>
        <time>2010-05-30T06:46:43Z</time>
      </trkpt>
      <trkpt lat="45.67324" lon="3.27152">
        <ele>508.19409179688</ele>
        <time>2010-05-30T06:46:47Z</time>
      </trkpt>
      <trkpt lat="45.67324" lon="3.27161">
        <ele>509.15539550781</ele>
        <time>2010-05-30T06:46:50Z</time>
      </trkpt>
      <trkpt lat="45.67322" lon="3.27178">
        <ele>511.07800292969</ele>
        <time>2010-05-30T06:46:56Z</time>
      </trkpt>
      <trkpt lat="45.67322" lon="3.27184">
        <ele>512.03942871094</ele>
        <time>2010-05-30T06:46:58Z</time>
      </trkpt>
      <trkpt lat="45.67319" lon="3.27196">
        <ele>513.00073242188</ele>
        <time>2010-05-30T06:47:03Z</time>
      </trkpt>
      <trkpt lat="45.67316" lon="3.27212">
        <ele>514.44262695312</ele>
        <time>2010-05-30T06:47:08Z</time>
      </trkpt>
      <trkpt lat="45.67311" lon="3.27228">
        <ele>515.40405273438</ele>
        <time>2010-05-30T06:47:13Z</time>
      </trkpt>
      <trkpt lat="45.67309" lon="3.27234">
        <ele>516.365234375</ele>
        <time>2010-05-30T06:47:15Z</time>
      </trkpt>
      <trkpt lat="45.67302" lon="3.27247">
        <ele>516.84594726562</ele>
        <time>2010-05-30T06:47:20Z</time>
      </trkpt>
      <trkpt lat="45.67297" lon="3.27263">
        <ele>517.80725097656</ele>
        <time>2010-05-30T06:47:26Z</time>
      </trkpt>
      <trkpt lat="45.67287" lon="3.27291">
        <ele>518.7685546875</ele>
        <time>2010-05-30T06:47:35Z</time>
      </trkpt>
      <trkpt lat="45.67278" lon="3.27311">
        <ele>520.69128417969</ele>
        <time>2010-05-30T06:47:43Z</time>
      </trkpt>
      <trkpt lat="45.67269" lon="3.2733">
        <ele>522.13317871094</ele>
        <time>2010-05-30T06:47:50Z</time>
      </trkpt>
      <trkpt lat="45.67256" lon="3.27349">
        <ele>524.05578613281</ele>
        <time>2010-05-30T06:47:58Z</time>
      </trkpt>
      <trkpt lat="45.67246" lon="3.27354">
        <ele>525.01721191406</ele>
        <time>2010-05-30T06:48:03Z</time>
      </trkpt>
      <trkpt lat="45.6723" lon="3.27345">
        <ele>526.93981933594</ele>
        <time>2010-05-30T06:48:11Z</time>
      </trkpt>
      <trkpt lat="45.67216" lon="3.27334">
        <ele>528.86254882812</ele>
        <time>2010-05-30T06:48:18Z</time>
      </trkpt>
      <trkpt lat="45.67203" lon="3.2732">
        <ele>530.30444335938</ele>
        <time>2010-05-30T06:48:25Z</time>
      </trkpt>
      <trkpt lat="45.67193" lon="3.27301">
        <ele>530.30444335938</ele>
        <time>2010-05-30T06:48:32Z</time>
      </trkpt>
      <trkpt lat="45.67186" lon="3.27283">
        <ele>531.26574707031</ele>
        <time>2010-05-30T06:48:38Z</time>
      </trkpt>
      <trkpt lat="45.67175" lon="3.27256">
        <ele>533.18835449219</ele>
        <time>2010-05-30T06:48:47Z</time>
      </trkpt>
      <trkpt lat="45.67162" lon="3.27233">
        <ele>532.70776367188</ele>
        <time>2010-05-30T06:48:55Z</time>
      </trkpt>
      <trkpt lat="45.6715" lon="3.27217">
        <ele>534.14965820312</ele>
        <time>2010-05-30T06:49:01Z</time>
      </trkpt>
      <trkpt lat="45.67134" lon="3.27198">
        <ele>532.22705078125</ele>
        <time>2010-05-30T06:49:06Z</time>
      </trkpt>
      <trkpt lat="45.67126" lon="3.27187">
        <ele>531.26574707031</ele>
        <time>2010-05-30T06:49:08Z</time>
      </trkpt>
      <trkpt lat="45.67106" lon="3.27161">
        <ele>529.82373046875</ele>
        <time>2010-05-30T06:49:12Z</time>
      </trkpt>
      <trkpt lat="45.67077" lon="3.27124">
        <ele>529.34313964844</ele>
        <time>2010-05-30T06:49:18Z</time>
      </trkpt>
      <trkpt lat="45.67059" lon="3.27099">
        <ele>530.78515625</ele>
        <time>2010-05-30T06:49:24Z</time>
      </trkpt>
      <trkpt lat="45.67037" lon="3.27072">
        <ele>531.74633789062</ele>
        <time>2010-05-30T06:49:32Z</time>
      </trkpt>
      <trkpt lat="45.67017" lon="3.27047">
        <ele>532.22705078125</ele>
        <time>2010-05-30T06:49:39Z</time>
      </trkpt>
      <trkpt lat="45.6699" lon="3.27013">
        <ele>532.22705078125</ele>
        <time>2010-05-30T06:49:47Z</time>
      </trkpt>
      <trkpt lat="45.66967" lon="3.26984">
        <ele>532.70776367188</ele>
        <time>2010-05-30T06:49:54Z</time>
      </trkpt>
      <trkpt lat="45.66949" lon="3.26958">
        <ele>534.14965820312</ele>
        <time>2010-05-30T06:50:01Z</time>
      </trkpt>
      <trkpt lat="45.66932" lon="3.26935">
        <ele>535.11096191406</ele>
        <time>2010-05-30T06:50:09Z</time>
      </trkpt>
      <trkpt lat="45.66914" lon="3.26913">
        <ele>537.03369140625</ele>
        <time>2010-05-30T06:50:17Z</time>
      </trkpt>
      <trkpt lat="45.66897" lon="3.26898">
        <ele>538.95629882812</ele>
        <time>2010-05-30T06:50:24Z</time>
      </trkpt>
      <trkpt lat="45.66876" lon="3.26884">
        <ele>541.84020996094</ele>
        <time>2010-05-30T06:50:32Z</time>
      </trkpt>
      <trkpt lat="45.66853" lon="3.26878">
        <ele>542.32092285156</ele>
        <time>2010-05-30T06:50:40Z</time>
      </trkpt>
      <trkpt lat="45.66829" lon="3.26873">
        <ele>541.35949707031</ele>
        <time>2010-05-30T06:50:46Z</time>
      </trkpt>
      <trkpt lat="45.66805" lon="3.26863">
        <ele>539.43688964844</ele>
        <time>2010-05-30T06:50:51Z</time>
      </trkpt>
      <trkpt lat="45.668" lon="3.2686">
        <ele>539.43688964844</ele>
        <time>2010-05-30T06:50:52Z</time>
      </trkpt>
      <trkpt lat="45.6678" lon="3.26843">
        <ele>537.03369140625</ele>
        <time>2010-05-30T06:50:56Z</time>
      </trkpt>
      <trkpt lat="45.66763" lon="3.26827">
        <ele>535.59155273438</ele>
        <time>2010-05-30T06:50:59Z</time>
      </trkpt>
      <trkpt lat="45.66723" lon="3.26791">
        <ele>532.22705078125</ele>
        <time>2010-05-30T06:51:05Z</time>
      </trkpt>
      <trkpt lat="45.66703" lon="3.2677">
        <ele>530.78515625</ele>
        <time>2010-05-30T06:51:08Z</time>
      </trkpt>
      <trkpt lat="45.6669" lon="3.26755">
        <ele>529.34313964844</ele>
        <time>2010-05-30T06:51:10Z</time>
      </trkpt>
      <trkpt lat="45.66684" lon="3.26748">
        <ele>527.90100097656</ele>
        <time>2010-05-30T06:51:11Z</time>
      </trkpt>
      <trkpt lat="45.66665" lon="3.26711">
        <ele>523.09460449219</ele>
        <time>2010-05-30T06:51:15Z</time>
      </trkpt>
      <trkpt lat="45.66663" lon="3.26701">
        <ele>521.65258789062</ele>
        <time>2010-05-30T06:51:16Z</time>
      </trkpt>
      <trkpt lat="45.66655" lon="3.26666">
        <ele>518.7685546875</ele>
        <time>2010-05-30T06:51:19Z</time>
      </trkpt>
      <trkpt lat="45.66653" lon="3.26654">
        <ele>517.32666015625</ele>
        <time>2010-05-30T06:51:20Z</time>
      </trkpt>
      <trkpt lat="45.6665" lon="3.26642">
        <ele>516.365234375</ele>
        <time>2010-05-30T06:51:21Z</time>
      </trkpt>
      <trkpt lat="45.66647" lon="3.26631">
        <ele>515.40405273438</ele>
        <time>2010-05-30T06:51:22Z</time>
      </trkpt>
      <trkpt lat="45.66628" lon="3.26592">
        <ele>512.03942871094</ele>
        <time>2010-05-30T06:51:26Z</time>
      </trkpt>
      <trkpt lat="45.66607" lon="3.26561">
        <ele>511.07800292969</ele>
        <time>2010-05-30T06:51:30Z</time>
      </trkpt>
      <trkpt lat="45.66595" lon="3.26522">
        <ele>507.71350097656</ele>
        <time>2010-05-30T06:51:35Z</time>
      </trkpt>
      <trkpt lat="45.66592" lon="3.26511">
        <ele>506.271484375</ele>
        <time>2010-05-30T06:51:37Z</time>
      </trkpt>
      <trkpt lat="45.66574" lon="3.265">
        <ele>504.34887695312</ele>
        <time>2010-05-30T06:51:41Z</time>
      </trkpt>
      <trkpt lat="45.66568" lon="3.26499">
        <ele>503.8681640625</ele>
        <time>2010-05-30T06:51:42Z</time>
      </trkpt>
      <trkpt lat="45.6654" lon="3.26503">
        <ele>501.94555664062</ele>
        <time>2010-05-30T06:51:46Z</time>
      </trkpt>
      <trkpt lat="45.66526" lon="3.26511">
        <ele>500.50354003906</ele>
        <time>2010-05-30T06:51:48Z</time>
      </trkpt>
      <trkpt lat="45.66505" lon="3.26526">
        <ele>495.69689941406</ele>
        <time>2010-05-30T06:51:51Z</time>
      </trkpt>
      <trkpt lat="45.66482" lon="3.2654">
        <ele>492.33239746094</ele>
        <time>2010-05-30T06:51:54Z</time>
      </trkpt>
      <trkpt lat="45.66474" lon="3.26543">
        <ele>491.85168457031</ele>
        <time>2010-05-30T06:51:55Z</time>
      </trkpt>
      <trkpt lat="45.66441" lon="3.26544">
        <ele>489.92907714844</ele>
        <time>2010-05-30T06:51:59Z</time>
      </trkpt>
      <trkpt lat="45.66426" lon="3.26533">
        <ele>489.44836425781</ele>
        <time>2010-05-30T06:52:01Z</time>
      </trkpt>
      <trkpt lat="45.66397" lon="3.26506">
        <ele>490.40979003906</ele>
        <time>2010-05-30T06:52:06Z</time>
      </trkpt>
      <trkpt lat="45.66373" lon="3.26487">
        <ele>491.85168457031</ele>
        <time>2010-05-30T06:52:12Z</time>
      </trkpt>
      <trkpt lat="45.66358" lon="3.26478">
        <ele>491.85168457031</ele>
        <time>2010-05-30T06:52:16Z</time>
      </trkpt>
      <trkpt lat="45.66348" lon="3.26471">
        <ele>491.37097167969</ele>
        <time>2010-05-30T06:52:19Z</time>
      </trkpt>
      <trkpt lat="45.66344" lon="3.26461">
        <ele>491.37097167969</ele>
        <time>2010-05-30T06:52:21Z</time>
      </trkpt>
      <trkpt lat="45.66345" lon="3.26446">
        <ele>490.40979003906</ele>
        <time>2010-05-30T06:52:23Z</time>
      </trkpt>
      <trkpt lat="45.66352" lon="3.26421">
        <ele>488.9677734375</ele>
        <time>2010-05-30T06:52:26Z</time>
      </trkpt>
      <trkpt lat="45.66367" lon="3.26364">
        <ele>486.08374023438</ele>
        <time>2010-05-30T06:52:32Z</time>
      </trkpt>
      <trkpt lat="45.66384" lon="3.26297">
        <ele>484.1611328125</ele>
        <time>2010-05-30T06:52:39Z</time>
      </trkpt>
      <trkpt lat="45.66381" lon="3.26281">
        <ele>484.1611328125</ele>
        <time>2010-05-30T06:52:43Z</time>
      </trkpt>
      <trkpt lat="45.66375" lon="3.26283">
        <ele>484.1611328125</ele>
        <time>2010-05-30T06:52:45Z</time>
      </trkpt>
      <trkpt lat="45.66346" lon="3.26304">
        <ele>486.08374023438</ele>
        <time>2010-05-30T06:52:55Z</time>
      </trkpt>
      <trkpt lat="45.66325" lon="3.26316">
        <ele>488.00646972656</ele>
        <time>2010-05-30T06:53:02Z</time>
      </trkpt>
      <trkpt lat="45.66312" lon="3.26322">
        <ele>488.00646972656</ele>
        <time>2010-05-30T06:53:06Z</time>
      </trkpt>
      <trkpt lat="45.66304" lon="3.26327">
        <ele>489.44836425781</ele>
        <time>2010-05-30T06:53:09Z</time>
      </trkpt>
      <trkpt lat="45.66301" lon="3.26328">
        <ele>489.44836425781</ele>
        <time>2010-05-30T06:53:10Z</time>
      </trkpt>
      <trkpt lat="45.66292" lon="3.26331">
        <ele>489.44836425781</ele>
        <time>2010-05-30T06:53:13Z</time>
      </trkpt>
      <trkpt lat="45.6628" lon="3.26336">
        <ele>491.37097167969</ele>
        <time>2010-05-30T06:53:17Z</time>
      </trkpt>
      <trkpt lat="45.66269" lon="3.2634">
        <ele>491.37097167969</ele>
        <time>2010-05-30T06:53:21Z</time>
      </trkpt>
      <trkpt lat="45.66254" lon="3.26345">
        <ele>492.33239746094</ele>
        <time>2010-05-30T06:53:26Z</time>
      </trkpt>
      <trkpt lat="45.6624" lon="3.26351">
        <ele>493.77429199219</ele>
        <time>2010-05-30T06:53:31Z</time>
      </trkpt>
      <trkpt lat="45.66211" lon="3.26364">
        <ele>495.69689941406</ele>
        <time>2010-05-30T06:53:42Z</time>
      </trkpt>
      <trkpt lat="45.66192" lon="3.26374">
        <ele>498.10034179688</ele>
        <time>2010-05-30T06:53:50Z</time>
      </trkpt>
      <trkpt lat="45.66183" lon="3.26389">
        <ele>499.54223632812</ele>
        <time>2010-05-30T06:53:56Z</time>
      </trkpt>
      <trkpt lat="45.66175" lon="3.26413">
        <ele>500.50354003906</ele>
        <time>2010-05-30T06:54:03Z</time>
      </trkpt>
      <trkpt lat="45.66164" lon="3.26441">
        <ele>501.94555664062</ele>
        <time>2010-05-30T06:54:11Z</time>
      </trkpt>
      <trkpt lat="45.66152" lon="3.26476">
        <ele>503.38745117188</ele>
        <time>2010-05-30T06:54:21Z</time>
      </trkpt>
      <trkpt lat="45.66142" lon="3.26498">
        <ele>504.34887695312</ele>
        <time>2010-05-30T06:54:28Z</time>
      </trkpt>
      <trkpt lat="45.66131" lon="3.26522">
        <ele>505.79089355469</ele>
        <time>2010-05-30T06:54:36Z</time>
      </trkpt>
      <trkpt lat="45.66121" lon="3.26554">
        <ele>509.15539550781</ele>
        <time>2010-05-30T06:54:46Z</time>
      </trkpt>
      <trkpt lat="45.66115" lon="3.26583">
        <ele>510.59729003906</ele>
        <time>2010-05-30T06:54:55Z</time>
      </trkpt>
      <trkpt lat="45.66112" lon="3.26595">
        <ele>511.55871582031</ele>
        <time>2010-05-30T06:54:59Z</time>
      </trkpt>
      <trkpt lat="45.66103" lon="3.26625">
        <ele>513.4814453125</ele>
        <time>2010-05-30T06:55:09Z</time>
      </trkpt>
      <trkpt lat="45.66096" lon="3.26649">
        <ele>515.40405273438</ele>
        <time>2010-05-30T06:55:17Z</time>
      </trkpt>
      <trkpt lat="45.66087" lon="3.26678">
        <ele>517.32666015625</ele>
        <time>2010-05-30T06:55:27Z</time>
      </trkpt>
      <trkpt lat="45.6608" lon="3.26702">
        <ele>519.72985839844</ele>
        <time>2010-05-30T06:55:36Z</time>
      </trkpt>
      <trkpt lat="45.66074" lon="3.26721">
        <ele>520.21057128906</ele>
        <time>2010-05-30T06:55:43Z</time>
      </trkpt>
      <trkpt lat="45.66069" lon="3.26737">
        <ele>522.61389160156</ele>
        <time>2010-05-30T06:55:49Z</time>
      </trkpt>
      <trkpt lat="45.66058" lon="3.26755">
        <ele>524.53649902344</ele>
        <time>2010-05-30T06:55:57Z</time>
      </trkpt>
      <trkpt lat="45.66046" lon="3.26767">
        <ele>526.45910644531</ele>
        <time>2010-05-30T06:56:04Z</time>
      </trkpt>
      <trkpt lat="45.66028" lon="3.26782">
        <ele>529.34313964844</ele>
        <time>2010-05-30T06:56:13Z</time>
      </trkpt>
      <trkpt lat="45.66009" lon="3.26801">
        <ele>530.78515625</ele>
        <time>2010-05-30T06:56:23Z</time>
      </trkpt>
      <trkpt lat="45.6599" lon="3.26822">
        <ele>531.74633789062</ele>
        <time>2010-05-30T06:56:32Z</time>
      </trkpt>
      <trkpt lat="45.65975" lon="3.26851">
        <ele>531.74633789062</ele>
        <time>2010-05-30T06:56:40Z</time>
      </trkpt>
      <trkpt lat="45.65955" lon="3.26896">
        <ele>531.74633789062</ele>
        <time>2010-05-30T06:56:49Z</time>
      </trkpt>
      <trkpt lat="45.65942" lon="3.26919">
        <ele>530.78515625</ele>
        <time>2010-05-30T06:56:53Z</time>
      </trkpt>
      <trkpt lat="45.65925" lon="3.26943">
        <ele>530.30444335938</ele>
        <time>2010-05-30T06:56:57Z</time>
      </trkpt>
      <trkpt lat="45.659" lon="3.26976">
        <ele>528.86254882812</ele>
        <time>2010-05-30T06:57:02Z</time>
      </trkpt>
      <trkpt lat="45.65894" lon="3.26983">
        <ele>527.42041015625</ele>
        <time>2010-05-30T06:57:03Z</time>
      </trkpt>
      <trkpt lat="45.65884" lon="3.26998">
        <ele>526.45910644531</ele>
        <time>2010-05-30T06:57:05Z</time>
      </trkpt>
      <trkpt lat="45.65873" lon="3.27013">
        <ele>525.97839355469</ele>
        <time>2010-05-30T06:57:07Z</time>
      </trkpt>
      <trkpt lat="45.65843" lon="3.27048">
        <ele>523.09460449219</ele>
        <time>2010-05-30T06:57:12Z</time>
      </trkpt>
      <trkpt lat="45.65837" lon="3.27055">
        <ele>522.61389160156</ele>
        <time>2010-05-30T06:57:13Z</time>
      </trkpt>
      <trkpt lat="45.65823" lon="3.27069">
        <ele>521.17199707031</ele>
        <time>2010-05-30T06:57:15Z</time>
      </trkpt>
      <trkpt lat="45.65817" lon="3.27076">
        <ele>520.69128417969</ele>
        <time>2010-05-30T06:57:16Z</time>
      </trkpt>
      <trkpt lat="45.65805" lon="3.2709">
        <ele>519.72985839844</ele>
        <time>2010-05-30T06:57:18Z</time>
      </trkpt>
      <trkpt lat="45.65787" lon="3.27105">
        <ele>517.80725097656</ele>
        <time>2010-05-30T06:57:21Z</time>
      </trkpt>
      <trkpt lat="45.65775" lon="3.27112">
        <ele>516.84594726562</ele>
        <time>2010-05-30T06:57:23Z</time>
      </trkpt>
      <trkpt lat="45.65756" lon="3.27117">
        <ele>514.92333984375</ele>
        <time>2010-05-30T06:57:26Z</time>
      </trkpt>
      <trkpt lat="45.6575" lon="3.27119">
        <ele>514.44262695312</ele>
        <time>2010-05-30T06:57:27Z</time>
      </trkpt>
      <trkpt lat="45.65729" lon="3.27125">
        <ele>513.00073242188</ele>
        <time>2010-05-30T06:57:31Z</time>
      </trkpt>
      <trkpt lat="45.65724" lon="3.27124">
        <ele>512.03942871094</ele>
        <time>2010-05-30T06:57:32Z</time>
      </trkpt>
      <trkpt lat="45.65715" lon="3.27113">
        <ele>510.59729003906</ele>
        <time>2010-05-30T06:57:34Z</time>
      </trkpt>
      <trkpt lat="45.65692" lon="3.27088">
        <ele>508.19409179688</ele>
        <time>2010-05-30T06:57:39Z</time>
      </trkpt>
      <trkpt lat="45.65673" lon="3.27091">
        <ele>507.23278808594</ele>
        <time>2010-05-30T06:57:43Z</time>
      </trkpt>
      <trkpt lat="45.65669" lon="3.27095">
        <ele>506.75207519531</ele>
        <time>2010-05-30T06:57:44Z</time>
      </trkpt>
      <trkpt lat="45.65652" lon="3.27098">
        <ele>502.42614746094</ele>
        <time>2010-05-30T06:57:48Z</time>
      </trkpt>
      <trkpt lat="45.65638" lon="3.27109">
        <ele>500.98413085938</ele>
        <time>2010-05-30T06:57:51Z</time>
      </trkpt>
      <trkpt lat="45.65631" lon="3.27113">
        <ele>500.50354003906</ele>
        <time>2010-05-30T06:57:52Z</time>
      </trkpt>
      <trkpt lat="45.65619" lon="3.2712">
        <ele>500.02294921875</ele>
        <time>2010-05-30T06:57:54Z</time>
      </trkpt>
      <trkpt lat="45.65572" lon="3.27146">
        <ele>499.54223632812</ele>
        <time>2010-05-30T06:58:01Z</time>
      </trkpt>
      <trkpt lat="45.65557" lon="3.27167">
        <ele>498.58093261719</ele>
        <time>2010-05-30T06:58:05Z</time>
      </trkpt>
      <trkpt lat="45.65559" lon="3.27185">
        <ele>499.54223632812</ele>
        <time>2010-05-30T06:58:09Z</time>
      </trkpt>
      <trkpt lat="45.65571" lon="3.27219">
        <ele>500.50354003906</ele>
        <time>2010-05-30T06:58:17Z</time>
      </trkpt>
      <trkpt lat="45.65578" lon="3.27251">
        <ele>501.94555664062</ele>
        <time>2010-05-30T06:58:24Z</time>
      </trkpt>
      <trkpt lat="45.65581" lon="3.27269">
        <ele>502.90673828125</ele>
        <time>2010-05-30T06:58:28Z</time>
      </trkpt>
      <trkpt lat="45.65583" lon="3.27279">
        <ele>502.90673828125</ele>
        <time>2010-05-30T06:58:30Z</time>
      </trkpt>
      <trkpt lat="45.65584" lon="3.27283">
        <ele>503.38745117188</ele>
        <time>2010-05-30T06:58:31Z</time>
      </trkpt>
      <trkpt lat="45.65587" lon="3.27297">
        <ele>503.38745117188</ele>
        <time>2010-05-30T06:58:34Z</time>
      </trkpt>
      <trkpt lat="45.65591" lon="3.27311">
        <ele>504.82946777344</ele>
        <time>2010-05-30T06:58:37Z</time>
      </trkpt>
      <trkpt lat="45.65592" lon="3.27315">
        <ele>504.82946777344</ele>
        <time>2010-05-30T06:58:38Z</time>
      </trkpt>
      <trkpt lat="45.65597" lon="3.27332">
        <ele>506.271484375</ele>
        <time>2010-05-30T06:58:42Z</time>
      </trkpt>
      <trkpt lat="45.65598" lon="3.27341">
        <ele>506.271484375</ele>
        <time>2010-05-30T06:58:44Z</time>
      </trkpt>
      <trkpt lat="45.65587" lon="3.27355">
        <ele>507.71350097656</ele>
        <time>2010-05-30T06:58:49Z</time>
      </trkpt>
      <trkpt lat="45.65562" lon="3.27379">
        <ele>508.19409179688</ele>
        <time>2010-05-30T06:58:58Z</time>
      </trkpt>
      <trkpt lat="45.65535" lon="3.274">
        <ele>508.67468261719</ele>
        <time>2010-05-30T06:59:06Z</time>
      </trkpt>
      <trkpt lat="45.65512" lon="3.27417">
        <ele>510.59729003906</ele>
        <time>2010-05-30T06:59:14Z</time>
      </trkpt>
      <trkpt lat="45.65497" lon="3.27428">
        <ele>513.00073242188</ele>
        <time>2010-05-30T06:59:20Z</time>
      </trkpt>
      <trkpt lat="45.65472" lon="3.27446">
        <ele>515.88464355469</ele>
        <time>2010-05-30T06:59:30Z</time>
      </trkpt>
      <trkpt lat="45.6545" lon="3.27463">
        <ele>518.28784179688</ele>
        <time>2010-05-30T06:59:40Z</time>
      </trkpt>
      <trkpt lat="45.65435" lon="3.27474">
        <ele>519.72985839844</ele>
        <time>2010-05-30T06:59:47Z</time>
      </trkpt>
      <trkpt lat="45.65423" lon="3.27483">
        <ele>521.65258789062</ele>
        <time>2010-05-30T06:59:53Z</time>
      </trkpt>
      <trkpt lat="45.65402" lon="3.27499">
        <ele>523.5751953125</ele>
        <time>2010-05-30T07:00:03Z</time>
      </trkpt>
      <trkpt lat="45.6538" lon="3.27515">
        <ele>525.49780273438</ele>
        <time>2010-05-30T07:00:13Z</time>
      </trkpt>
      <trkpt lat="45.65354" lon="3.27535">
        <ele>526.45910644531</ele>
        <time>2010-05-30T07:00:23Z</time>
      </trkpt>
      <trkpt lat="45.65329" lon="3.27553">
        <ele>527.90100097656</ele>
        <time>2010-05-30T07:00:33Z</time>
      </trkpt>
      <trkpt lat="45.65308" lon="3.27572">
        <ele>529.82373046875</ele>
        <time>2010-05-30T07:00:43Z</time>
      </trkpt>
      <trkpt lat="45.6529" lon="3.27592">
        <ele>531.74633789062</ele>
        <time>2010-05-30T07:00:52Z</time>
      </trkpt>
      <trkpt lat="45.65275" lon="3.27608">
        <ele>532.70776367188</ele>
        <time>2010-05-30T07:01:02Z</time>
      </trkpt>
      <trkpt lat="45.65261" lon="3.27622">
        <ele>534.63037109375</ele>
        <time>2010-05-30T07:01:12Z</time>
      </trkpt>
      <trkpt lat="45.65249" lon="3.27635">
        <ele>536.55310058594</ele>
        <time>2010-05-30T07:01:21Z</time>
      </trkpt>
      <trkpt lat="45.65235" lon="3.27649">
        <ele>537.99499511719</ele>
        <time>2010-05-30T07:01:30Z</time>
      </trkpt>
      <trkpt lat="45.65219" lon="3.27662">
        <ele>539.43688964844</ele>
        <time>2010-05-30T07:01:39Z</time>
      </trkpt>
      <trkpt lat="45.65208" lon="3.2767">
        <ele>541.35949707031</ele>
        <time>2010-05-30T07:01:46Z</time>
      </trkpt>
      <trkpt lat="45.65203" lon="3.27674">
        <ele>542.80151367188</ele>
        <time>2010-05-30T07:01:50Z</time>
      </trkpt>
      <trkpt lat="45.65199" lon="3.27677">
        <ele>544.24365234375</ele>
        <time>2010-05-30T07:01:53Z</time>
      </trkpt>
      <trkpt lat="45.6519" lon="3.27685">
        <ele>545.20483398438</ele>
        <time>2010-05-30T07:02:00Z</time>
      </trkpt>
      <trkpt lat="45.65181" lon="3.27691">
        <ele>547.60815429688</ele>
        <time>2010-05-30T07:02:07Z</time>
      </trkpt>
      <trkpt lat="45.65175" lon="3.27697">
        <ele>549.53076171875</ele>
        <time>2010-05-30T07:02:12Z</time>
      </trkpt>
      <trkpt lat="45.6516" lon="3.27713">
        <ele>550.4921875</ele>
        <time>2010-05-30T07:02:21Z</time>
      </trkpt>
      <trkpt lat="45.65144" lon="3.27731">
        <ele>551.45336914062</ele>
        <time>2010-05-30T07:02:30Z</time>
      </trkpt>
      <trkpt lat="45.65125" lon="3.27751">
        <ele>551.93408203125</ele>
        <time>2010-05-30T07:02:38Z</time>
      </trkpt>
      <trkpt lat="45.65112" lon="3.27764">
        <ele>552.41455078125</ele>
        <time>2010-05-30T07:02:44Z</time>
      </trkpt>
      <trkpt lat="45.65097" lon="3.27779">
        <ele>552.89526367188</ele>
        <time>2010-05-30T07:02:50Z</time>
      </trkpt>
      <trkpt lat="45.65073" lon="3.27805">
        <ele>553.85668945312</ele>
        <time>2010-05-30T07:03:00Z</time>
      </trkpt>
      <trkpt lat="45.6506" lon="3.2782">
        <ele>554.33740234375</ele>
        <time>2010-05-30T07:03:06Z</time>
      </trkpt>
      <trkpt lat="45.6504" lon="3.27841">
        <ele>556.26000976562</ele>
        <time>2010-05-30T07:03:16Z</time>
      </trkpt>
      <trkpt lat="45.65024" lon="3.27859">
        <ele>558.18286132812</ele>
        <time>2010-05-30T07:03:25Z</time>
      </trkpt>
      <trkpt lat="45.65008" lon="3.27876">
        <ele>560.10522460938</ele>
        <time>2010-05-30T07:03:34Z</time>
      </trkpt>
      <trkpt lat="45.6499" lon="3.27896">
        <ele>562.50854492188</ele>
        <time>2010-05-30T07:03:45Z</time>
      </trkpt>
      <trkpt lat="45.64981" lon="3.27899">
        <ele>562.50854492188</ele>
        <time>2010-05-30T07:03:50Z</time>
      </trkpt>
      <trkpt lat="45.64965" lon="3.27896">
        <ele>562.02807617188</ele>
        <time>2010-05-30T07:03:56Z</time>
      </trkpt>
      <trkpt lat="45.6494" lon="3.2789">
        <ele>560.5859375</ele>
        <time>2010-05-30T07:04:03Z</time>
      </trkpt>
      <trkpt lat="45.64909" lon="3.27883">
        <ele>561.06665039062</ele>
        <time>2010-05-30T07:04:13Z</time>
      </trkpt>
      <trkpt lat="45.6489" lon="3.27878">
        <ele>562.9892578125</ele>
        <time>2010-05-30T07:04:20Z</time>
      </trkpt>
      <trkpt lat="45.64864" lon="3.27872">
        <ele>563.95043945312</ele>
        <time>2010-05-30T07:04:31Z</time>
      </trkpt>
      <trkpt lat="45.64841" lon="3.27866">
        <ele>566.83447265625</ele>
        <time>2010-05-30T07:04:41Z</time>
      </trkpt>
      <trkpt lat="45.64816" lon="3.2786">
        <ele>568.75708007812</ele>
        <time>2010-05-30T07:04:52Z</time>
      </trkpt>
      <trkpt lat="45.64799" lon="3.27856">
        <ele>570.19897460938</ele>
        <time>2010-05-30T07:05:00Z</time>
      </trkpt>
      <trkpt lat="45.64793" lon="3.27854">
        <ele>571.64086914062</ele>
        <time>2010-05-30T07:05:03Z</time>
      </trkpt>
      <trkpt lat="45.64778" lon="3.2785">
        <ele>573.08325195312</ele>
        <time>2010-05-30T07:05:11Z</time>
      </trkpt>
      <trkpt lat="45.64765" lon="3.27847">
        <ele>574.52514648438</ele>
        <time>2010-05-30T07:05:18Z</time>
      </trkpt>
      <trkpt lat="45.64756" lon="3.27845">
        <ele>576.44775390625</ele>
        <time>2010-05-30T07:05:23Z</time>
      </trkpt>
      <trkpt lat="45.64738" lon="3.2784">
        <ele>578.85107421875</ele>
        <time>2010-05-30T07:05:35Z</time>
      </trkpt>
      <trkpt lat="45.6473" lon="3.27838">
        <ele>580.29296875</ele>
        <time>2010-05-30T07:05:40Z</time>
      </trkpt>
      <trkpt lat="45.64719" lon="3.27835">
        <ele>582.6962890625</ele>
        <time>2010-05-30T07:05:48Z</time>
      </trkpt>
      <trkpt lat="45.64708" lon="3.27829">
        <ele>584.61889648438</ele>
        <time>2010-05-30T07:05:56Z</time>
      </trkpt>
      <trkpt lat="45.64703" lon="3.27828">
        <ele>586.06079101562</ele>
        <time>2010-05-30T07:05:59Z</time>
      </trkpt>
      <trkpt lat="45.64701" lon="3.27829">
        <ele>586.54150390625</ele>
        <time>2010-05-30T07:06:00Z</time>
      </trkpt>
      <trkpt lat="45.64682" lon="3.27834">
        <ele>589.42553710938</ele>
        <time>2010-05-30T07:06:11Z</time>
      </trkpt>
      <trkpt lat="45.64667" lon="3.27837">
        <ele>590.86743164062</ele>
        <time>2010-05-30T07:06:20Z</time>
      </trkpt>
      <trkpt lat="45.64648" lon="3.27841">
        <ele>593.75146484375</ele>
        <time>2010-05-30T07:06:30Z</time>
      </trkpt>
      <trkpt lat="45.64631" lon="3.27843">
        <ele>594.71264648438</ele>
        <time>2010-05-30T07:06:38Z</time>
      </trkpt>
      <trkpt lat="45.64616" lon="3.27849">
        <ele>594.71264648438</ele>
        <time>2010-05-30T07:06:45Z</time>
      </trkpt>
      <trkpt lat="45.64599" lon="3.27859">
        <ele>594.23217773438</ele>
        <time>2010-05-30T07:06:51Z</time>
      </trkpt>
      <trkpt lat="45.64577" lon="3.27884">
        <ele>593.75146484375</ele>
        <time>2010-05-30T07:06:58Z</time>
      </trkpt>
      <trkpt lat="45.6455" lon="3.27923">
        <ele>594.71264648438</ele>
        <time>2010-05-30T07:07:07Z</time>
      </trkpt>
      <trkpt lat="45.64539" lon="3.27941">
        <ele>595.193359375</ele>
        <time>2010-05-30T07:07:11Z</time>
      </trkpt>
      <trkpt lat="45.64532" lon="3.27951">
        <ele>595.193359375</ele>
        <time>2010-05-30T07:07:13Z</time>
      </trkpt>
      <trkpt lat="45.64512" lon="3.27992">
        <ele>596.15478515625</ele>
        <time>2010-05-30T07:07:21Z</time>
      </trkpt>
      <trkpt lat="45.64483" lon="3.28053">
        <ele>596.15478515625</ele>
        <time>2010-05-30T07:07:33Z</time>
      </trkpt>
      <trkpt lat="45.6447" lon="3.28081">
        <ele>596.15478515625</ele>
        <time>2010-05-30T07:07:38Z</time>
      </trkpt>
      <trkpt lat="45.6445" lon="3.28112">
        <ele>594.71264648438</ele>
        <time>2010-05-30T07:07:43Z</time>
      </trkpt>
      <trkpt lat="45.64432" lon="3.28142">
        <ele>593.27075195312</ele>
        <time>2010-05-30T07:07:47Z</time>
      </trkpt>
      <trkpt lat="45.64417" lon="3.28165">
        <ele>591.82885742188</ele>
        <time>2010-05-30T07:07:50Z</time>
      </trkpt>
      <trkpt lat="45.64412" lon="3.28173">
        <ele>591.34814453125</ele>
        <time>2010-05-30T07:07:51Z</time>
      </trkpt>
      <trkpt lat="45.64407" lon="3.28182">
        <ele>591.34814453125</ele>
        <time>2010-05-30T07:07:52Z</time>
      </trkpt>
      <trkpt lat="45.64371" lon="3.28241">
        <ele>589.42553710938</ele>
        <time>2010-05-30T07:07:59Z</time>
      </trkpt>
      <trkpt lat="45.64345" lon="3.28284">
        <ele>590.86743164062</ele>
        <time>2010-05-30T07:08:05Z</time>
      </trkpt>
      <trkpt lat="45.6433" lon="3.28308">
        <ele>590.38696289062</ele>
        <time>2010-05-30T07:08:09Z</time>
      </trkpt>
      <trkpt lat="45.64324" lon="3.28319">
        <ele>590.86743164062</ele>
        <time>2010-05-30T07:08:11Z</time>
      </trkpt>
      <trkpt lat="45.6431" lon="3.28354">
        <ele>588.94506835938</ele>
        <time>2010-05-30T07:08:16Z</time>
      </trkpt>
      <trkpt lat="45.64303" lon="3.28395">
        <ele>586.06079101562</ele>
        <time>2010-05-30T07:08:20Z</time>
      </trkpt>
      <trkpt lat="45.64292" lon="3.28441">
        <ele>585.580078125</ele>
        <time>2010-05-30T07:08:25Z</time>
      </trkpt>
      <trkpt lat="45.64282" lon="3.28453">
        <ele>585.099609375</ele>
        <time>2010-05-30T07:08:27Z</time>
      </trkpt>
      <trkpt lat="45.64247" lon="3.28489">
        <ele>586.54150390625</ele>
        <time>2010-05-30T07:08:34Z</time>
      </trkpt>
      <trkpt lat="45.64228" lon="3.28514">
        <ele>588.46435546875</ele>
        <time>2010-05-30T07:08:40Z</time>
      </trkpt>
      <trkpt lat="45.64223" lon="3.28521">
        <ele>589.42553710938</ele>
        <time>2010-05-30T07:08:42Z</time>
      </trkpt>
      <trkpt lat="45.64204" lon="3.2854">
        <ele>591.82885742188</ele>
        <time>2010-05-30T07:08:49Z</time>
      </trkpt>
      <trkpt lat="45.6419" lon="3.28548">
        <ele>592.79028320312</ele>
        <time>2010-05-30T07:08:54Z</time>
      </trkpt>
      <trkpt lat="45.64181" lon="3.28553">
        <ele>594.23217773438</ele>
        <time>2010-05-30T07:08:58Z</time>
      </trkpt>
      <trkpt lat="45.64174" lon="3.28555">
        <ele>594.23217773438</ele>
        <time>2010-05-30T07:09:01Z</time>
      </trkpt>
      <trkpt lat="45.64166" lon="3.28557">
        <ele>595.193359375</ele>
        <time>2010-05-30T07:09:04Z</time>
      </trkpt>
      <trkpt lat="45.64152" lon="3.28558">
        <ele>597.5966796875</ele>
        <time>2010-05-30T07:09:10Z</time>
      </trkpt>
      <trkpt lat="45.64138" lon="3.28556">
        <ele>598.55786132812</ele>
        <time>2010-05-30T07:09:16Z</time>
      </trkpt>
      <trkpt lat="45.6413" lon="3.28558">
        <ele>599.51928710938</ele>
        <time>2010-05-30T07:09:20Z</time>
      </trkpt>
      <trkpt lat="45.64113" lon="3.28558">
        <ele>601.44189453125</ele>
        <time>2010-05-30T07:09:28Z</time>
      </trkpt>
      <trkpt lat="45.64096" lon="3.28557">
        <ele>603.84521484375</ele>
        <time>2010-05-30T07:09:36Z</time>
      </trkpt>
      <trkpt lat="45.64083" lon="3.28556">
        <ele>604.806640625</ele>
        <time>2010-05-30T07:09:43Z</time>
      </trkpt>
      <trkpt lat="45.64071" lon="3.28557">
        <ele>605.76806640625</ele>
        <time>2010-05-30T07:09:49Z</time>
      </trkpt>
      <trkpt lat="45.64053" lon="3.28559">
        <ele>606.72924804688</ele>
        <time>2010-05-30T07:09:57Z</time>
      </trkpt>
      <trkpt lat="45.64038" lon="3.28562">
        <ele>607.69067382812</ele>
        <time>2010-05-30T07:10:04Z</time>
      </trkpt>
      <trkpt lat="45.64019" lon="3.28564">
        <ele>609.61328125</ele>
        <time>2010-05-30T07:10:13Z</time>
      </trkpt>
      <trkpt lat="45.63996" lon="3.28567">
        <ele>611.53588867188</ele>
        <time>2010-05-30T07:10:24Z</time>
      </trkpt>
      <trkpt lat="45.63973" lon="3.28571">
        <ele>613.93896484375</ele>
        <time>2010-05-30T07:10:35Z</time>
      </trkpt>
      <trkpt lat="45.63953" lon="3.28574">
        <ele>614.900390625</ele>
        <time>2010-05-30T07:10:44Z</time>
      </trkpt>
      <trkpt lat="45.63936" lon="3.28576">
        <ele>616.34228515625</ele>
        <time>2010-05-30T07:10:52Z</time>
      </trkpt>
      <trkpt lat="45.63916" lon="3.28578">
        <ele>618.74560546875</ele>
        <time>2010-05-30T07:11:02Z</time>
      </trkpt>
      <trkpt lat="45.639" lon="3.2858">
        <ele>620.66845703125</ele>
        <time>2010-05-30T07:11:10Z</time>
      </trkpt>
      <trkpt lat="45.63881" lon="3.28581">
        <ele>622.1103515625</ele>
        <time>2010-05-30T07:11:19Z</time>
      </trkpt>
      <trkpt lat="45.63861" lon="3.28583">
        <ele>623.55249023438</ele>
        <time>2010-05-30T07:11:28Z</time>
      </trkpt>
      <trkpt lat="45.63842" lon="3.28584">
        <ele>625.95556640625</ele>
        <time>2010-05-30T07:11:37Z</time>
      </trkpt>
      <trkpt lat="45.63827" lon="3.28581">
        <ele>627.87817382812</ele>
        <time>2010-05-30T07:11:45Z</time>
      </trkpt>
      <trkpt lat="45.63811" lon="3.28575">
        <ele>629.80078125</ele>
        <time>2010-05-30T07:11:53Z</time>
      </trkpt>
      <trkpt lat="45.63795" lon="3.28568">
        <ele>630.76220703125</ele>
        <time>2010-05-30T07:12:01Z</time>
      </trkpt>
      <trkpt lat="45.63777" lon="3.28561">
        <ele>633.16528320312</ele>
        <time>2010-05-30T07:12:11Z</time>
      </trkpt>
      <trkpt lat="45.63769" lon="3.28558">
        <ele>634.607421875</ele>
        <time>2010-05-30T07:12:15Z</time>
      </trkpt>
      <trkpt lat="45.63758" lon="3.28554">
        <ele>637.0107421875</ele>
        <time>2010-05-30T07:12:21Z</time>
      </trkpt>
      <trkpt lat="45.63747" lon="3.28549">
        <ele>638.45288085938</ele>
        <time>2010-05-30T07:12:28Z</time>
      </trkpt>
      <trkpt lat="45.6374" lon="3.28546">
        <ele>639.4140625</ele>
        <time>2010-05-30T07:12:35Z</time>
      </trkpt>
      <trkpt lat="45.63739" lon="3.28544">
        <ele>639.89477539062</ele>
        <time>2010-05-30T07:12:37Z</time>
      </trkpt>
      <trkpt lat="45.63734" lon="3.28545">
        <ele>641.33666992188</ele>
        <time>2010-05-30T07:12:42Z</time>
      </trkpt>
      <trkpt lat="45.63734" lon="3.28548">
        <ele>641.8173828125</ele>
        <time>2010-05-30T07:12:44Z</time>
      </trkpt>
      <trkpt lat="45.63742" lon="3.2856">
        <ele>642.77880859375</ele>
        <time>2010-05-30T07:12:50Z</time>
      </trkpt>
      <trkpt lat="45.63747" lon="3.28574">
        <ele>642.77880859375</ele>
        <time>2010-05-30T07:12:56Z</time>
      </trkpt>
      <trkpt lat="45.63754" lon="3.28593">
        <ele>643.25927734375</ele>
        <time>2010-05-30T07:13:02Z</time>
      </trkpt>
      <trkpt lat="45.63761" lon="3.28615">
        <ele>643.73999023438</ele>
        <time>2010-05-30T07:13:08Z</time>
      </trkpt>
      <trkpt lat="45.63766" lon="3.28632">
        <ele>643.73999023438</ele>
        <time>2010-05-30T07:13:13Z</time>
      </trkpt>
      <trkpt lat="45.63772" lon="3.2865">
        <ele>644.220703125</ele>
        <time>2010-05-30T07:13:18Z</time>
      </trkpt>
      <trkpt lat="45.63777" lon="3.28668">
        <ele>643.73999023438</ele>
        <time>2010-05-30T07:13:24Z</time>
      </trkpt>
      <trkpt lat="45.63779" lon="3.28682">
        <ele>645.18188476562</ele>
        <time>2010-05-30T07:13:30Z</time>
      </trkpt>
      <trkpt lat="45.63786" lon="3.28708">
        <ele>645.18188476562</ele>
        <time>2010-05-30T07:13:38Z</time>
      </trkpt>
      <trkpt lat="45.6379" lon="3.28723">
        <ele>646.6240234375</ele>
        <time>2010-05-30T07:13:43Z</time>
      </trkpt>
      <trkpt lat="45.63791" lon="3.28729">
        <ele>646.14331054688</ele>
        <time>2010-05-30T07:13:48Z</time>
      </trkpt>
      <trkpt lat="45.63789" lon="3.28739">
        <ele>646.6240234375</ele>
        <time>2010-05-30T07:13:55Z</time>
      </trkpt>
      <trkpt lat="45.63789" lon="3.28746">
        <ele>646.6240234375</ele>
        <time>2010-05-30T07:13:59Z</time>
      </trkpt>
      <trkpt lat="45.63793" lon="3.28763">
        <ele>647.1044921875</ele>
        <time>2010-05-30T07:14:10Z</time>
      </trkpt>
      <trkpt lat="45.63795" lon="3.28771">
        <ele>647.58520507812</ele>
        <time>2010-05-30T07:14:17Z</time>
      </trkpt>
      <trkpt lat="45.63796" lon="3.28782">
        <ele>648.06591796875</ele>
        <time>2010-05-30T07:14:25Z</time>
      </trkpt>
      <trkpt lat="45.63797" lon="3.28796">
        <ele>648.06591796875</ele>
        <time>2010-05-30T07:14:33Z</time>
      </trkpt>
      <trkpt lat="45.63799" lon="3.28808">
        <ele>648.06591796875</ele>
        <time>2010-05-30T07:14:39Z</time>
      </trkpt>
      <trkpt lat="45.63801" lon="3.28815">
        <ele>648.54638671875</ele>
        <time>2010-05-30T07:14:44Z</time>
      </trkpt>
      <trkpt lat="45.63803" lon="3.28828">
        <ele>649.02709960938</ele>
        <time>2010-05-30T07:14:51Z</time>
      </trkpt>
      <trkpt lat="45.63803" lon="3.28835">
        <ele>649.02709960938</ele>
        <time>2010-05-30T07:14:56Z</time>
      </trkpt>
      <trkpt lat="45.63804" lon="3.28836">
        <ele>649.02709960938</ele>
        <time>2010-05-30T07:14:57Z</time>
      </trkpt>
      <trkpt lat="45.63809" lon="3.28849">
        <ele>649.5078125</ele>
        <time>2010-05-30T07:15:04Z</time>
      </trkpt>
      <trkpt lat="45.63812" lon="3.28865">
        <ele>650.46923828125</ele>
        <time>2010-05-30T07:15:12Z</time>
      </trkpt>
      <trkpt lat="45.63815" lon="3.28875">
        <ele>650.94970703125</ele>
        <time>2010-05-30T07:15:19Z</time>
      </trkpt>
      <trkpt lat="45.63818" lon="3.28887">
        <ele>651.9111328125</ele>
        <time>2010-05-30T07:15:28Z</time>
      </trkpt>
      <trkpt lat="45.63818" lon="3.28891">
        <ele>652.39184570312</ele>
        <time>2010-05-30T07:15:31Z</time>
      </trkpt>
      <trkpt lat="45.63818" lon="3.28906">
        <ele>651.9111328125</ele>
        <time>2010-05-30T07:15:38Z</time>
      </trkpt>
      <trkpt lat="45.63818" lon="3.2892">
        <ele>652.39184570312</ele>
        <time>2010-05-30T07:15:47Z</time>
      </trkpt>
      <trkpt lat="45.63818" lon="3.28924">
        <ele>652.87255859375</ele>
        <time>2010-05-30T07:15:50Z</time>
      </trkpt>
      <trkpt lat="45.63816" lon="3.28939">
        <ele>652.87255859375</ele>
        <time>2010-05-30T07:15:56Z</time>
      </trkpt>
      <trkpt lat="45.63815" lon="3.28959">
        <ele>653.35327148438</ele>
        <time>2010-05-30T07:16:02Z</time>
      </trkpt>
      <trkpt lat="45.63814" lon="3.2897">
        <ele>653.833984375</ele>
        <time>2010-05-30T07:16:05Z</time>
      </trkpt>
      <trkpt lat="45.63821" lon="3.28996">
        <ele>655.27587890625</ele>
        <time>2010-05-30T07:16:12Z</time>
      </trkpt>
      <trkpt lat="45.63823" lon="3.29012">
        <ele>655.75659179688</ele>
        <time>2010-05-30T07:16:17Z</time>
      </trkpt>
      <trkpt lat="45.63825" lon="3.29029">
        <ele>656.23706054688</ele>
        <time>2010-05-30T07:16:22Z</time>
      </trkpt>
      <trkpt lat="45.63824" lon="3.29036">
        <ele>656.23706054688</ele>
        <time>2010-05-30T07:16:24Z</time>
      </trkpt>
      <trkpt lat="45.63829" lon="3.29056">
        <ele>656.7177734375</ele>
        <time>2010-05-30T07:16:30Z</time>
      </trkpt>
      <trkpt lat="45.63832" lon="3.29077">
        <ele>657.19848632812</ele>
        <time>2010-05-30T07:16:36Z</time>
      </trkpt>
      <trkpt lat="45.63834" lon="3.29093">
        <ele>657.67919921875</ele>
        <time>2010-05-30T07:16:41Z</time>
      </trkpt>
      <trkpt lat="45.63833" lon="3.29119">
        <ele>658.64038085938</ele>
        <time>2010-05-30T07:16:49Z</time>
      </trkpt>
      <trkpt lat="45.63829" lon="3.29139">
        <ele>658.15991210938</ele>
        <time>2010-05-30T07:16:54Z</time>
      </trkpt>
      <trkpt lat="45.63828" lon="3.29147">
        <ele>658.15991210938</ele>
        <time>2010-05-30T07:16:56Z</time>
      </trkpt>
      <trkpt lat="45.63825" lon="3.29164">
        <ele>659.12109375</ele>
        <time>2010-05-30T07:17:01Z</time>
      </trkpt>
      <trkpt lat="45.63824" lon="3.29175">
        <ele>658.64038085938</ele>
        <time>2010-05-30T07:17:04Z</time>
      </trkpt>
      <trkpt lat="45.63823" lon="3.29194">
        <ele>659.60180664062</ele>
        <time>2010-05-30T07:17:09Z</time>
      </trkpt>
      <trkpt lat="45.63824" lon="3.29214">
        <ele>659.12109375</ele>
        <time>2010-05-30T07:17:14Z</time>
      </trkpt>
      <trkpt lat="45.63827" lon="3.29233">
        <ele>659.60180664062</ele>
        <time>2010-05-30T07:17:19Z</time>
      </trkpt>
      <trkpt lat="45.63828" lon="3.29251">
        <ele>659.60180664062</ele>
        <time>2010-05-30T07:17:24Z</time>
      </trkpt>
      <trkpt lat="45.63825" lon="3.29268">
        <ele>660.56298828125</ele>
        <time>2010-05-30T07:17:31Z</time>
      </trkpt>
      <trkpt lat="45.63822" lon="3.29277">
        <ele>661.04370117188</ele>
        <time>2010-05-30T07:17:38Z</time>
      </trkpt>
      <trkpt lat="45.6381" lon="3.29289">
        <ele>659.60180664062</ele>
        <time>2010-05-30T07:17:45Z</time>
      </trkpt>
      <trkpt lat="45.63801" lon="3.29298">
        <ele>660.08227539062</ele>
        <time>2010-05-30T07:17:49Z</time>
      </trkpt>
      <trkpt lat="45.63793" lon="3.29308">
        <ele>660.56298828125</ele>
        <time>2010-05-30T07:17:54Z</time>
      </trkpt>
      <trkpt lat="45.63791" lon="3.2931">
        <ele>660.56298828125</ele>
        <time>2010-05-30T07:17:55Z</time>
      </trkpt>
      <trkpt lat="45.63784" lon="3.2932">
        <ele>660.56298828125</ele>
        <time>2010-05-30T07:18:00Z</time>
      </trkpt>
      <trkpt lat="45.63773" lon="3.29333">
        <ele>660.56298828125</ele>
        <time>2010-05-30T07:18:06Z</time>
      </trkpt>
      <trkpt lat="45.63763" lon="3.2935">
        <ele>660.56298828125</ele>
        <time>2010-05-30T07:18:12Z</time>
      </trkpt>
      <trkpt lat="45.63756" lon="3.29368">
        <ele>661.04370117188</ele>
        <time>2010-05-30T07:18:18Z</time>
      </trkpt>
      <trkpt lat="45.63747" lon="3.29382">
        <ele>662.00512695312</ele>
        <time>2010-05-30T07:18:24Z</time>
      </trkpt>
      <trkpt lat="45.63739" lon="3.29393">
        <ele>662.00512695312</ele>
        <time>2010-05-30T07:18:29Z</time>
      </trkpt>
      <trkpt lat="45.63728" lon="3.29405">
        <ele>662.00512695312</ele>
        <time>2010-05-30T07:18:35Z</time>
      </trkpt>
      <trkpt lat="45.63716" lon="3.2942">
        <ele>662.48559570312</ele>
        <time>2010-05-30T07:18:41Z</time>
      </trkpt>
      <trkpt lat="45.63707" lon="3.29433">
        <ele>662.48559570312</ele>
        <time>2010-05-30T07:18:45Z</time>
      </trkpt>
      <trkpt lat="45.63699" lon="3.29445">
        <ele>662.48559570312</ele>
        <time>2010-05-30T07:18:49Z</time>
      </trkpt>
      <trkpt lat="45.63682" lon="3.29468">
        <ele>662.48559570312</ele>
        <time>2010-05-30T07:18:57Z</time>
      </trkpt>
      <trkpt lat="45.63671" lon="3.29482">
        <ele>662.96630859375</ele>
        <time>2010-05-30T07:19:01Z</time>
      </trkpt>
      <trkpt lat="45.63653" lon="3.29505">
        <ele>664.408203125</ele>
        <time>2010-05-30T07:19:08Z</time>
      </trkpt>
      <trkpt lat="45.6364" lon="3.29522">
        <ele>663.92749023438</ele>
        <time>2010-05-30T07:19:14Z</time>
      </trkpt>
      <trkpt lat="45.6363" lon="3.29535">
        <ele>663.92749023438</ele>
        <time>2010-05-30T07:19:18Z</time>
      </trkpt>
      <trkpt lat="45.63611" lon="3.29557">
        <ele>664.408203125</ele>
        <time>2010-05-30T07:19:24Z</time>
      </trkpt>
      <trkpt lat="45.63591" lon="3.29577">
        <ele>663.44702148438</ele>
        <time>2010-05-30T07:19:31Z</time>
      </trkpt>
      <trkpt lat="45.63593" lon="3.29586">
        <ele>662.96630859375</ele>
        <time>2010-05-30T07:19:35Z</time>
      </trkpt>
      <trkpt lat="45.63597" lon="3.29591">
        <ele>662.48559570312</ele>
        <time>2010-05-30T07:19:37Z</time>
      </trkpt>
      <trkpt lat="45.63604" lon="3.296">
        <ele>662.48559570312</ele>
        <time>2010-05-30T07:19:40Z</time>
      </trkpt>
      <trkpt lat="45.63612" lon="3.2961">
        <ele>660.56298828125</ele>
        <time>2010-05-30T07:19:43Z</time>
      </trkpt>
      <trkpt lat="45.63617" lon="3.29618">
        <ele>659.60180664062</ele>
        <time>2010-05-30T07:19:45Z</time>
      </trkpt>
      <trkpt lat="45.63623" lon="3.29627">
        <ele>658.64038085938</ele>
        <time>2010-05-30T07:19:47Z</time>
      </trkpt>
      <trkpt lat="45.63644" lon="3.29649">
        <ele>656.7177734375</ele>
        <time>2010-05-30T07:19:52Z</time>
      </trkpt>
      <trkpt lat="45.63655" lon="3.29659">
        <ele>655.27587890625</ele>
        <time>2010-05-30T07:19:54Z</time>
      </trkpt>
      <trkpt lat="45.6366" lon="3.29662">
        <ele>654.79516601562</ele>
        <time>2010-05-30T07:19:55Z</time>
      </trkpt>
      <trkpt lat="45.63669" lon="3.29668">
        <ele>654.31469726562</ele>
        <time>2010-05-30T07:19:58Z</time>
      </trkpt>
      <trkpt lat="45.6368" lon="3.29657">
        <ele>654.31469726562</ele>
        <time>2010-05-30T07:20:02Z</time>
      </trkpt>
      <trkpt lat="45.637" lon="3.29614">
        <ele>653.35327148438</ele>
        <time>2010-05-30T07:20:10Z</time>
      </trkpt>
      <trkpt lat="45.63714" lon="3.29588">
        <ele>651.9111328125</ele>
        <time>2010-05-30T07:20:14Z</time>
      </trkpt>
      <trkpt lat="45.63718" lon="3.29581">
        <ele>651.9111328125</ele>
        <time>2010-05-30T07:20:15Z</time>
      </trkpt>
      <trkpt lat="45.63731" lon="3.29559">
        <ele>650.94970703125</ele>
        <time>2010-05-30T07:20:18Z</time>
      </trkpt>
      <trkpt lat="45.63749" lon="3.2953">
        <ele>649.02709960938</ele>
        <time>2010-05-30T07:20:22Z</time>
      </trkpt>
      <trkpt lat="45.63788" lon="3.29484">
        <ele>647.1044921875</ele>
        <time>2010-05-30T07:20:29Z</time>
      </trkpt>
      <trkpt lat="45.63807" lon="3.29467">
        <ele>646.14331054688</ele>
        <time>2010-05-30T07:20:32Z</time>
      </trkpt>
      <trkpt lat="45.63829" lon="3.2945">
        <ele>645.18188476562</ele>
        <time>2010-05-30T07:20:35Z</time>
      </trkpt>
      <trkpt lat="45.63852" lon="3.29436">
        <ele>643.25927734375</ele>
        <time>2010-05-30T07:20:38Z</time>
      </trkpt>
      <trkpt lat="45.63871" lon="3.29416">
        <ele>642.29809570312</ele>
        <time>2010-05-30T07:20:41Z</time>
      </trkpt>
      <trkpt lat="45.63879" lon="3.29397">
        <ele>641.33666992188</ele>
        <time>2010-05-30T07:20:43Z</time>
      </trkpt>
      <trkpt lat="45.63882" lon="3.29387">
        <ele>640.85595703125</ele>
        <time>2010-05-30T07:20:44Z</time>
      </trkpt>
      <trkpt lat="45.6389" lon="3.29359">
        <ele>639.4140625</ele>
        <time>2010-05-30T07:20:47Z</time>
      </trkpt>
      <trkpt lat="45.63901" lon="3.29344">
        <ele>637.49145507812</ele>
        <time>2010-05-30T07:20:51Z</time>
      </trkpt>
      <trkpt lat="45.63916" lon="3.29347">
        <ele>634.12670898438</ele>
        <time>2010-05-30T07:20:55Z</time>
      </trkpt>
      <trkpt lat="45.63923" lon="3.29367">
        <ele>632.68481445312</ele>
        <time>2010-05-30T07:20:58Z</time>
      </trkpt>
      <trkpt lat="45.63929" lon="3.29406">
        <ele>632.68481445312</ele>
        <time>2010-05-30T07:21:04Z</time>
      </trkpt>
      <trkpt lat="45.63926" lon="3.29423">
        <ele>633.16528320312</ele>
        <time>2010-05-30T07:21:09Z</time>
      </trkpt>
      <trkpt lat="45.63923" lon="3.2944">
        <ele>632.68481445312</ele>
        <time>2010-05-30T07:21:14Z</time>
      </trkpt>
      <trkpt lat="45.63921" lon="3.29452">
        <ele>633.16528320312</ele>
        <time>2010-05-30T07:21:17Z</time>
      </trkpt>
      <trkpt lat="45.63918" lon="3.29465">
        <ele>633.64599609375</ele>
        <time>2010-05-30T07:21:20Z</time>
      </trkpt>
      <trkpt lat="45.63914" lon="3.29482">
        <ele>632.68481445312</ele>
        <time>2010-05-30T07:21:25Z</time>
      </trkpt>
      <trkpt lat="45.63911" lon="3.29498">
        <ele>633.16528320312</ele>
        <time>2010-05-30T07:21:30Z</time>
      </trkpt>
      <trkpt lat="45.63906" lon="3.29506">
        <ele>633.16528320312</ele>
        <time>2010-05-30T07:21:33Z</time>
      </trkpt>
      <trkpt lat="45.63897" lon="3.29526">
        <ele>633.64599609375</ele>
        <time>2010-05-30T07:21:39Z</time>
      </trkpt>
      <trkpt lat="45.6389" lon="3.29543">
        <ele>634.607421875</ele>
        <time>2010-05-30T07:21:45Z</time>
      </trkpt>
      <trkpt lat="45.63882" lon="3.29559">
        <ele>634.607421875</ele>
        <time>2010-05-30T07:21:50Z</time>
      </trkpt>
      <trkpt lat="45.63872" lon="3.29574">
        <ele>634.607421875</ele>
        <time>2010-05-30T07:21:56Z</time>
      </trkpt>
      <trkpt lat="45.63867" lon="3.29582">
        <ele>634.12670898438</ele>
        <time>2010-05-30T07:22:00Z</time>
      </trkpt>
      <trkpt lat="45.63859" lon="3.29599">
        <ele>634.607421875</ele>
        <time>2010-05-30T07:22:06Z</time>
      </trkpt>
      <trkpt lat="45.63852" lon="3.29611">
        <ele>633.64599609375</ele>
        <time>2010-05-30T07:22:11Z</time>
      </trkpt>
      <trkpt lat="45.63843" lon="3.29629">
        <ele>633.64599609375</ele>
        <time>2010-05-30T07:22:17Z</time>
      </trkpt>
      <trkpt lat="45.6384" lon="3.29646">
        <ele>633.16528320312</ele>
        <time>2010-05-30T07:22:22Z</time>
      </trkpt>
      <trkpt lat="45.6384" lon="3.29664">
        <ele>633.16528320312</ele>
        <time>2010-05-30T07:22:27Z</time>
      </trkpt>
      <trkpt lat="45.63849" lon="3.29686">
        <ele>633.64599609375</ele>
        <time>2010-05-30T07:22:33Z</time>
      </trkpt>
      <trkpt lat="45.63853" lon="3.29701">
        <ele>632.68481445312</ele>
        <time>2010-05-30T07:22:38Z</time>
      </trkpt>
      <trkpt lat="45.63853" lon="3.29704">
        <ele>632.68481445312</ele>
        <time>2010-05-30T07:22:39Z</time>
      </trkpt>
      <trkpt lat="45.6386" lon="3.29721">
        <ele>632.2041015625</ele>
        <time>2010-05-30T07:22:44Z</time>
      </trkpt>
      <trkpt lat="45.63861" lon="3.29725">
        <ele>631.72338867188</ele>
        <time>2010-05-30T07:22:45Z</time>
      </trkpt>
      <trkpt lat="45.63873" lon="3.29749">
        <ele>629.80078125</ele>
        <time>2010-05-30T07:22:51Z</time>
      </trkpt>
      <trkpt lat="45.63874" lon="3.29753">
        <ele>629.80078125</ele>
        <time>2010-05-30T07:22:52Z</time>
      </trkpt>
      <trkpt lat="45.63881" lon="3.29769">
        <ele>628.83959960938</ele>
        <time>2010-05-30T07:22:56Z</time>
      </trkpt>
      <trkpt lat="45.63889" lon="3.29784">
        <ele>627.87817382812</ele>
        <time>2010-05-30T07:23:01Z</time>
      </trkpt>
      <trkpt lat="45.63895" lon="3.29796">
        <ele>628.35888671875</ele>
        <time>2010-05-30T07:23:06Z</time>
      </trkpt>
      <trkpt lat="45.63908" lon="3.2981">
        <ele>628.35888671875</ele>
        <time>2010-05-30T07:23:12Z</time>
      </trkpt>
      <trkpt lat="45.63919" lon="3.29807">
        <ele>627.87817382812</ele>
        <time>2010-05-30T07:23:16Z</time>
      </trkpt>
      <trkpt lat="45.63932" lon="3.29796">
        <ele>626.43627929688</ele>
        <time>2010-05-30T07:23:21Z</time>
      </trkpt>
      <trkpt lat="45.63942" lon="3.2978">
        <ele>625.47485351562</ele>
        <time>2010-05-30T07:23:26Z</time>
      </trkpt>
      <trkpt lat="45.63953" lon="3.29774">
        <ele>625.47485351562</ele>
        <time>2010-05-30T07:23:30Z</time>
      </trkpt>
      <trkpt lat="45.63961" lon="3.29768">
        <ele>626.43627929688</ele>
        <time>2010-05-30T07:23:33Z</time>
      </trkpt>
      <trkpt lat="45.63973" lon="3.29751">
        <ele>627.87817382812</ele>
        <time>2010-05-30T07:23:38Z</time>
      </trkpt>
      <trkpt lat="45.63984" lon="3.29734">
        <ele>628.35888671875</ele>
        <time>2010-05-30T07:23:43Z</time>
      </trkpt>
      <trkpt lat="45.63991" lon="3.29716">
        <ele>629.32006835938</ele>
        <time>2010-05-30T07:23:48Z</time>
      </trkpt>
      <trkpt lat="45.63999" lon="3.29718">
        <ele>630.28149414062</ele>
        <time>2010-05-30T07:23:52Z</time>
      </trkpt>
      <trkpt lat="45.64006" lon="3.29744">
        <ele>630.28149414062</ele>
        <time>2010-05-30T07:23:59Z</time>
      </trkpt>
      <trkpt lat="45.64012" lon="3.29757">
        <ele>630.76220703125</ele>
        <time>2010-05-30T07:24:03Z</time>
      </trkpt>
      <trkpt lat="45.64021" lon="3.29775">
        <ele>631.24291992188</ele>
        <time>2010-05-30T07:24:10Z</time>
      </trkpt>
      <trkpt lat="45.64023" lon="3.29785">
        <ele>631.72338867188</ele>
        <time>2010-05-30T07:24:16Z</time>
      </trkpt>
      <trkpt lat="45.64022" lon="3.29784">
        <ele>631.72338867188</ele>
        <time>2010-05-30T07:24:22Z</time>
      </trkpt>
      <trkpt lat="45.64024" lon="3.29783">
        <ele>633.16528320312</ele>
        <time>2010-05-30T07:26:33Z</time>
      </trkpt>
      <trkpt lat="45.64023" lon="3.29783">
        <ele>632.68481445312</ele>
        <time>2010-05-30T07:26:34Z</time>
      </trkpt>
      <trkpt lat="45.64023" lon="3.29783">
        <ele>633.16528320312</ele>
        <time>2010-05-30T07:26:45Z</time>
      </trkpt>
      <trkpt lat="45.64021" lon="3.29783">
        <ele>633.64599609375</ele>
        <time>2010-05-30T07:28:36Z</time>
      </trkpt>
      <trkpt lat="45.64019" lon="3.29783">
        <ele>634.12670898438</ele>
        <time>2010-05-30T07:28:49Z</time>
      </trkpt>
      <trkpt lat="45.64026" lon="3.29789">
        <ele>634.607421875</ele>
        <time>2010-05-30T07:29:13Z</time>
      </trkpt>
      <trkpt lat="45.6403" lon="3.29791">
        <ele>636.04956054688</ele>
        <time>2010-05-30T07:29:40Z</time>
      </trkpt>
      <trkpt lat="45.64027" lon="3.29789">
        <ele>636.5302734375</ele>
        <time>2010-05-30T07:29:58Z</time>
      </trkpt>
      <trkpt lat="45.64028" lon="3.29791">
        <ele>636.5302734375</ele>
        <time>2010-05-30T07:30:38Z</time>
      </trkpt>
      <trkpt lat="45.64027" lon="3.2979">
        <ele>636.04956054688</ele>
        <time>2010-05-30T07:30:44Z</time>
      </trkpt>
      <trkpt lat="45.64026" lon="3.29788">
        <ele>636.04956054688</ele>
        <time>2010-05-30T07:30:50Z</time>
      </trkpt>
      <trkpt lat="45.64026" lon="3.29788">
        <ele>636.04956054688</ele>
        <time>2010-05-30T07:30:51Z</time>
      </trkpt>
      <trkpt lat="45.64032" lon="3.29799">
        <ele>636.04956054688</ele>
        <time>2010-05-30T07:30:57Z</time>
      </trkpt>
      <trkpt lat="45.64037" lon="3.29807">
        <ele>636.5302734375</ele>
        <time>2010-05-30T07:31:00Z</time>
      </trkpt>
      <trkpt lat="45.6405" lon="3.29828">
        <ele>637.49145507812</ele>
        <time>2010-05-30T07:31:08Z</time>
      </trkpt>
      <trkpt lat="45.64061" lon="3.29844">
        <ele>637.97216796875</ele>
        <time>2010-05-30T07:31:14Z</time>
      </trkpt>
      <trkpt lat="45.64066" lon="3.2985">
        <ele>638.45288085938</ele>
        <time>2010-05-30T07:31:17Z</time>
      </trkpt>
      <trkpt lat="45.64073" lon="3.29862">
        <ele>639.89477539062</ele>
        <time>2010-05-30T07:31:21Z</time>
      </trkpt>
      <trkpt lat="45.64082" lon="3.2987">
        <ele>640.37548828125</ele>
        <time>2010-05-30T07:31:25Z</time>
      </trkpt>
      <trkpt lat="45.64096" lon="3.29884">
        <ele>641.33666992188</ele>
        <time>2010-05-30T07:31:31Z</time>
      </trkpt>
      <trkpt lat="45.6411" lon="3.29896">
        <ele>641.8173828125</ele>
        <time>2010-05-30T07:31:36Z</time>
      </trkpt>
      <trkpt lat="45.6413" lon="3.29918">
        <ele>642.77880859375</ele>
        <time>2010-05-30T07:31:44Z</time>
      </trkpt>
      <trkpt lat="45.64145" lon="3.29949">
        <ele>643.25927734375</ele>
        <time>2010-05-30T07:31:52Z</time>
      </trkpt>
      <trkpt lat="45.64155" lon="3.29982">
        <ele>642.77880859375</ele>
        <time>2010-05-30T07:31:59Z</time>
      </trkpt>
      <trkpt lat="45.64161" lon="3.30012">
        <ele>644.220703125</ele>
        <time>2010-05-30T07:32:05Z</time>
      </trkpt>
      <trkpt lat="45.64161" lon="3.30027">
        <ele>644.220703125</ele>
        <time>2010-05-30T07:32:08Z</time>
      </trkpt>
      <trkpt lat="45.64159" lon="3.30051">
        <ele>644.220703125</ele>
        <time>2010-05-30T07:32:13Z</time>
      </trkpt>
      <trkpt lat="45.64154" lon="3.30064">
        <ele>645.66259765625</ele>
        <time>2010-05-30T07:32:17Z</time>
      </trkpt>
      <trkpt lat="45.64143" lon="3.3008">
        <ele>645.66259765625</ele>
        <time>2010-05-30T07:32:22Z</time>
      </trkpt>
      <trkpt lat="45.64134" lon="3.30092">
        <ele>646.6240234375</ele>
        <time>2010-05-30T07:32:26Z</time>
      </trkpt>
      <trkpt lat="45.64117" lon="3.30115">
        <ele>648.54638671875</ele>
        <time>2010-05-30T07:32:33Z</time>
      </trkpt>
      <trkpt lat="45.64106" lon="3.30136">
        <ele>649.5078125</ele>
        <time>2010-05-30T07:32:39Z</time>
      </trkpt>
      <trkpt lat="45.641" lon="3.30156">
        <ele>649.98852539062</ele>
        <time>2010-05-30T07:32:44Z</time>
      </trkpt>
      <trkpt lat="45.64095" lon="3.30183">
        <ele>651.43041992188</ele>
        <time>2010-05-30T07:32:50Z</time>
      </trkpt>
      <trkpt lat="45.64094" lon="3.30209">
        <ele>651.9111328125</ele>
        <time>2010-05-30T07:32:55Z</time>
      </trkpt>
      <trkpt lat="45.64101" lon="3.30236">
        <ele>652.87255859375</ele>
        <time>2010-05-30T07:33:01Z</time>
      </trkpt>
      <trkpt lat="45.64109" lon="3.30259">
        <ele>653.35327148438</ele>
        <time>2010-05-30T07:33:06Z</time>
      </trkpt>
      <trkpt lat="45.64122" lon="3.30295">
        <ele>653.833984375</ele>
        <time>2010-05-30T07:33:14Z</time>
      </trkpt>
      <trkpt lat="45.64129" lon="3.30314">
        <ele>654.31469726562</ele>
        <time>2010-05-30T07:33:18Z</time>
      </trkpt>
      <trkpt lat="45.64137" lon="3.30349">
        <ele>654.79516601562</ele>
        <time>2010-05-30T07:33:25Z</time>
      </trkpt>
      <trkpt lat="45.64138" lon="3.30373">
        <ele>655.75659179688</ele>
        <time>2010-05-30T07:33:30Z</time>
      </trkpt>
      <trkpt lat="45.64138" lon="3.30404">
        <ele>655.75659179688</ele>
        <time>2010-05-30T07:33:36Z</time>
      </trkpt>
      <trkpt lat="45.64136" lon="3.30441">
        <ele>657.19848632812</ele>
        <time>2010-05-30T07:33:43Z</time>
      </trkpt>
      <trkpt lat="45.64134" lon="3.30467">
        <ele>658.15991210938</ele>
        <time>2010-05-30T07:33:49Z</time>
      </trkpt>
      <trkpt lat="45.64131" lon="3.30501">
        <ele>658.64038085938</ele>
        <time>2010-05-30T07:33:55Z</time>
      </trkpt>
      <trkpt lat="45.64128" lon="3.30521">
        <ele>658.64038085938</ele>
        <time>2010-05-30T07:33:59Z</time>
      </trkpt>
      <trkpt lat="45.64125" lon="3.30549">
        <ele>659.12109375</ele>
        <time>2010-05-30T07:34:04Z</time>
      </trkpt>
      <trkpt lat="45.64125" lon="3.30578">
        <ele>658.64038085938</ele>
        <time>2010-05-30T07:34:09Z</time>
      </trkpt>
      <trkpt lat="45.64127" lon="3.30612">
        <ele>659.60180664062</ele>
        <time>2010-05-30T07:34:15Z</time>
      </trkpt>
      <trkpt lat="45.64129" lon="3.3064">
        <ele>658.64038085938</ele>
        <time>2010-05-30T07:34:20Z</time>
      </trkpt>
      <trkpt lat="45.64132" lon="3.30665">
        <ele>657.67919921875</ele>
        <time>2010-05-30T07:34:24Z</time>
      </trkpt>
      <trkpt lat="45.64133" lon="3.30697">
        <ele>658.15991210938</ele>
        <time>2010-05-30T07:34:29Z</time>
      </trkpt>
      <trkpt lat="45.64133" lon="3.30704">
        <ele>657.67919921875</ele>
        <time>2010-05-30T07:34:30Z</time>
      </trkpt>
      <trkpt lat="45.64135" lon="3.30745">
        <ele>657.67919921875</ele>
        <time>2010-05-30T07:34:36Z</time>
      </trkpt>
      <trkpt lat="45.64138" lon="3.30783">
        <ele>657.67919921875</ele>
        <time>2010-05-30T07:34:42Z</time>
      </trkpt>
      <trkpt lat="45.6414" lon="3.30807">
        <ele>657.67919921875</ele>
        <time>2010-05-30T07:34:46Z</time>
      </trkpt>
      <trkpt lat="45.64141" lon="3.3082">
        <ele>657.67919921875</ele>
        <time>2010-05-30T07:34:48Z</time>
      </trkpt>
      <trkpt lat="45.64147" lon="3.30859">
        <ele>656.7177734375</ele>
        <time>2010-05-30T07:34:55Z</time>
      </trkpt>
      <trkpt lat="45.64151" lon="3.30882">
        <ele>656.23706054688</ele>
        <time>2010-05-30T07:34:59Z</time>
      </trkpt>
      <trkpt lat="45.6416" lon="3.30915">
        <ele>656.23706054688</ele>
        <time>2010-05-30T07:35:05Z</time>
      </trkpt>
      <trkpt lat="45.64175" lon="3.30948">
        <ele>655.27587890625</ele>
        <time>2010-05-30T07:35:11Z</time>
      </trkpt>
      <trkpt lat="45.64192" lon="3.3099">
        <ele>653.833984375</ele>
        <time>2010-05-30T07:35:17Z</time>
      </trkpt>
      <trkpt lat="45.64195" lon="3.30998">
        <ele>652.39184570312</ele>
        <time>2010-05-30T07:35:18Z</time>
      </trkpt>
      <trkpt lat="45.64202" lon="3.31049">
        <ele>650.94970703125</ele>
        <time>2010-05-30T07:35:23Z</time>
      </trkpt>
      <trkpt lat="45.64202" lon="3.31081">
        <ele>649.98852539062</ele>
        <time>2010-05-30T07:35:26Z</time>
      </trkpt>
      <trkpt lat="45.64208" lon="3.31119">
        <ele>646.6240234375</ele>
        <time>2010-05-30T07:35:30Z</time>
      </trkpt>
      <trkpt lat="45.64231" lon="3.31144">
        <ele>643.73999023438</ele>
        <time>2010-05-30T07:35:34Z</time>
      </trkpt>
      <trkpt lat="45.64247" lon="3.31162">
        <ele>640.37548828125</ele>
        <time>2010-05-30T07:35:37Z</time>
      </trkpt>
      <trkpt lat="45.64254" lon="3.31195">
        <ele>638.93359375</ele>
        <time>2010-05-30T07:35:41Z</time>
      </trkpt>
      <trkpt lat="45.64252" lon="3.31203">
        <ele>637.97216796875</ele>
        <time>2010-05-30T07:35:42Z</time>
      </trkpt>
      <trkpt lat="45.64246" lon="3.31233">
        <ele>635.56860351562</ele>
        <time>2010-05-30T07:35:45Z</time>
      </trkpt>
      <trkpt lat="45.64239" lon="3.31284">
        <ele>632.2041015625</ele>
        <time>2010-05-30T07:35:49Z</time>
      </trkpt>
      <trkpt lat="45.64248" lon="3.31328">
        <ele>630.28149414062</ele>
        <time>2010-05-30T07:35:53Z</time>
      </trkpt>
      <trkpt lat="45.64261" lon="3.31345">
        <ele>629.32006835938</ele>
        <time>2010-05-30T07:35:55Z</time>
      </trkpt>
      <trkpt lat="45.64297" lon="3.31387">
        <ele>626.9169921875</ele>
        <time>2010-05-30T07:36:00Z</time>
      </trkpt>
      <trkpt lat="45.6431" lon="3.31404">
        <ele>625.95556640625</ele>
        <time>2010-05-30T07:36:02Z</time>
      </trkpt>
      <trkpt lat="45.64337" lon="3.31458">
        <ele>623.07177734375</ele>
        <time>2010-05-30T07:36:08Z</time>
      </trkpt>
      <trkpt lat="45.6434" lon="3.31467">
        <ele>623.07177734375</ele>
        <time>2010-05-30T07:36:09Z</time>
      </trkpt>
      <trkpt lat="45.64362" lon="3.31511">
        <ele>620.18774414062</ele>
        <time>2010-05-30T07:36:14Z</time>
      </trkpt>
      <trkpt lat="45.64367" lon="3.3152">
        <ele>620.18774414062</ele>
        <time>2010-05-30T07:36:15Z</time>
      </trkpt>
      <trkpt lat="45.64372" lon="3.31528">
        <ele>619.70703125</ele>
        <time>2010-05-30T07:36:16Z</time>
      </trkpt>
      <trkpt lat="45.64382" lon="3.31554">
        <ele>617.7841796875</ele>
        <time>2010-05-30T07:36:19Z</time>
      </trkpt>
      <trkpt lat="45.64394" lon="3.31581">
        <ele>614.41967773438</ele>
        <time>2010-05-30T07:36:22Z</time>
      </trkpt>
      <trkpt lat="45.64399" lon="3.31589">
        <ele>614.900390625</ele>
        <time>2010-05-30T07:36:23Z</time>
      </trkpt>
      <trkpt lat="45.64402" lon="3.31597">
        <ele>614.41967773438</ele>
        <time>2010-05-30T07:36:24Z</time>
      </trkpt>
      <trkpt lat="45.64406" lon="3.31628">
        <ele>612.0166015625</ele>
        <time>2010-05-30T07:36:27Z</time>
      </trkpt>
      <trkpt lat="45.64407" lon="3.31665">
        <ele>610.57446289062</ele>
        <time>2010-05-30T07:36:30Z</time>
      </trkpt>
      <trkpt lat="45.64413" lon="3.31692">
        <ele>608.65185546875</ele>
        <time>2010-05-30T07:36:33Z</time>
      </trkpt>
      <trkpt lat="45.64424" lon="3.31727">
        <ele>606.24853515625</ele>
        <time>2010-05-30T07:36:37Z</time>
      </trkpt>
      <trkpt lat="45.64429" lon="3.31748">
        <ele>605.28735351562</ele>
        <time>2010-05-30T07:36:39Z</time>
      </trkpt>
      <trkpt lat="45.64435" lon="3.3177">
        <ele>602.8837890625</ele>
        <time>2010-05-30T07:36:41Z</time>
      </trkpt>
      <trkpt lat="45.64448" lon="3.31817">
        <ele>600.96118164062</ele>
        <time>2010-05-30T07:36:46Z</time>
      </trkpt>
      <trkpt lat="45.64457" lon="3.31844">
        <ele>599.03857421875</ele>
        <time>2010-05-30T07:36:50Z</time>
      </trkpt>
      <trkpt lat="45.64464" lon="3.3186">
        <ele>597.11596679688</ele>
        <time>2010-05-30T07:36:54Z</time>
      </trkpt>
      <trkpt lat="45.64481" lon="3.31881">
        <ele>594.23217773438</ele>
        <time>2010-05-30T07:36:59Z</time>
      </trkpt>
      <trkpt lat="45.64493" lon="3.31895">
        <ele>593.75146484375</ele>
        <time>2010-05-30T07:37:02Z</time>
      </trkpt>
      <trkpt lat="45.64508" lon="3.31914">
        <ele>592.79028320312</ele>
        <time>2010-05-30T07:37:06Z</time>
      </trkpt>
      <trkpt lat="45.64539" lon="3.31943">
        <ele>592.79028320312</ele>
        <time>2010-05-30T07:37:13Z</time>
      </trkpt>
      <trkpt lat="45.64554" lon="3.3196">
        <ele>592.79028320312</ele>
        <time>2010-05-30T07:37:17Z</time>
      </trkpt>
      <trkpt lat="45.64561" lon="3.3197">
        <ele>591.34814453125</ele>
        <time>2010-05-30T07:37:19Z</time>
      </trkpt>
      <trkpt lat="45.64564" lon="3.31975">
        <ele>591.34814453125</ele>
        <time>2010-05-30T07:37:20Z</time>
      </trkpt>
      <trkpt lat="45.6458" lon="3.32002">
        <ele>589.90625</ele>
        <time>2010-05-30T07:37:25Z</time>
      </trkpt>
      <trkpt lat="45.64589" lon="3.32018">
        <ele>588.94506835938</ele>
        <time>2010-05-30T07:37:28Z</time>
      </trkpt>
      <trkpt lat="45.64599" lon="3.32033">
        <ele>588.46435546875</ele>
        <time>2010-05-30T07:37:31Z</time>
      </trkpt>
      <trkpt lat="45.64605" lon="3.32046">
        <ele>587.50268554688</ele>
        <time>2010-05-30T07:37:33Z</time>
      </trkpt>
      <trkpt lat="45.64613" lon="3.32065">
        <ele>587.02197265625</ele>
        <time>2010-05-30T07:37:36Z</time>
      </trkpt>
      <trkpt lat="45.64623" lon="3.32083">
        <ele>585.580078125</ele>
        <time>2010-05-30T07:37:39Z</time>
      </trkpt>
      <trkpt lat="45.64635" lon="3.32116">
        <ele>584.61889648438</ele>
        <time>2010-05-30T07:37:44Z</time>
      </trkpt>
      <trkpt lat="45.64638" lon="3.32123">
        <ele>583.65747070312</ele>
        <time>2010-05-30T07:37:45Z</time>
      </trkpt>
      <trkpt lat="45.64653" lon="3.32158">
        <ele>581.73486328125</ele>
        <time>2010-05-30T07:37:51Z</time>
      </trkpt>
      <trkpt lat="45.64678" lon="3.32198">
        <ele>578.85107421875</ele>
        <time>2010-05-30T07:37:58Z</time>
      </trkpt>
      <trkpt lat="45.64681" lon="3.32203">
        <ele>578.37036132812</ele>
        <time>2010-05-30T07:37:59Z</time>
      </trkpt>
      <trkpt lat="45.647" lon="3.32238">
        <ele>576.92846679688</ele>
        <time>2010-05-30T07:38:06Z</time>
      </trkpt>
      <trkpt lat="45.64708" lon="3.32253">
        <ele>575.96704101562</ele>
        <time>2010-05-30T07:38:10Z</time>
      </trkpt>
      <trkpt lat="45.64724" lon="3.32253">
        <ele>575.486328125</ele>
        <time>2010-05-30T07:38:16Z</time>
      </trkpt>
      <trkpt lat="45.64727" lon="3.32252">
        <ele>575.96704101562</ele>
        <time>2010-05-30T07:38:17Z</time>
      </trkpt>
      <trkpt lat="45.64742" lon="3.32249">
        <ele>576.44775390625</ele>
        <time>2010-05-30T07:38:21Z</time>
      </trkpt>
      <trkpt lat="45.64757" lon="3.32249">
        <ele>576.92846679688</ele>
        <time>2010-05-30T07:38:26Z</time>
      </trkpt>
      <trkpt lat="45.64769" lon="3.32247">
        <ele>577.4091796875</ele>
        <time>2010-05-30T07:38:30Z</time>
      </trkpt>
      <trkpt lat="45.64787" lon="3.32236">
        <ele>576.92846679688</ele>
        <time>2010-05-30T07:38:37Z</time>
      </trkpt>
      <trkpt lat="45.64799" lon="3.32219">
        <ele>575.486328125</ele>
        <time>2010-05-30T07:38:41Z</time>
      </trkpt>
      <trkpt lat="45.6482" lon="3.32203">
        <ele>575.005859375</ele>
        <time>2010-05-30T07:38:46Z</time>
      </trkpt>
      <trkpt lat="45.64837" lon="3.32205">
        <ele>575.486328125</ele>
        <time>2010-05-30T07:38:50Z</time>
      </trkpt>
      <trkpt lat="45.64845" lon="3.32212">
        <ele>575.005859375</ele>
        <time>2010-05-30T07:38:52Z</time>
      </trkpt>
      <trkpt lat="45.64851" lon="3.32221">
        <ele>575.005859375</ele>
        <time>2010-05-30T07:38:54Z</time>
      </trkpt>
      <trkpt lat="45.64867" lon="3.32266">
        <ele>574.04443359375</ele>
        <time>2010-05-30T07:39:01Z</time>
      </trkpt>
      <trkpt lat="45.64885" lon="3.32319">
        <ele>574.52514648438</ele>
        <time>2010-05-30T07:39:09Z</time>
      </trkpt>
      <trkpt lat="45.64907" lon="3.32353">
        <ele>575.486328125</ele>
        <time>2010-05-30T07:39:16Z</time>
      </trkpt>
      <trkpt lat="45.64924" lon="3.32393">
        <ele>576.92846679688</ele>
        <time>2010-05-30T07:39:24Z</time>
      </trkpt>
      <trkpt lat="45.64928" lon="3.32405">
        <ele>577.8896484375</ele>
        <time>2010-05-30T07:39:27Z</time>
      </trkpt>
      <trkpt lat="45.6494" lon="3.32433">
        <ele>579.33154296875</ele>
        <time>2010-05-30T07:39:35Z</time>
      </trkpt>
      <trkpt lat="45.64951" lon="3.32451">
        <ele>580.29296875</ele>
        <time>2010-05-30T07:39:42Z</time>
      </trkpt>
      <trkpt lat="45.64958" lon="3.3246">
        <ele>581.73486328125</ele>
        <time>2010-05-30T07:39:47Z</time>
      </trkpt>
      <trkpt lat="45.64966" lon="3.32472">
        <ele>582.21557617188</ele>
        <time>2010-05-30T07:39:52Z</time>
      </trkpt>
      <trkpt lat="45.64976" lon="3.32481">
        <ele>583.65747070312</ele>
        <time>2010-05-30T07:39:57Z</time>
      </trkpt>
      <trkpt lat="45.64986" lon="3.32493">
        <ele>585.099609375</ele>
        <time>2010-05-30T07:40:03Z</time>
      </trkpt>
      <trkpt lat="45.64995" lon="3.32506">
        <ele>587.50268554688</ele>
        <time>2010-05-30T07:40:09Z</time>
      </trkpt>
      <trkpt lat="45.64998" lon="3.32525">
        <ele>587.50268554688</ele>
        <time>2010-05-30T07:40:14Z</time>
      </trkpt>
      <trkpt lat="45.64998" lon="3.32555">
        <ele>587.02197265625</ele>
        <time>2010-05-30T07:40:20Z</time>
      </trkpt>
      <trkpt lat="45.64995" lon="3.32591">
        <ele>585.580078125</ele>
        <time>2010-05-30T07:40:26Z</time>
      </trkpt>
      <trkpt lat="45.64994" lon="3.32608">
        <ele>584.61889648438</ele>
        <time>2010-05-30T07:40:28Z</time>
      </trkpt>
      <trkpt lat="45.64999" lon="3.32646">
        <ele>583.1767578125</ele>
        <time>2010-05-30T07:40:32Z</time>
      </trkpt>
      <trkpt lat="45.65004" lon="3.32667">
        <ele>582.21557617188</ele>
        <time>2010-05-30T07:40:34Z</time>
      </trkpt>
      <trkpt lat="45.65009" lon="3.32722">
        <ele>582.21557617188</ele>
        <time>2010-05-30T07:40:39Z</time>
      </trkpt>
      <trkpt lat="45.65002" lon="3.32758">
        <ele>582.21557617188</ele>
        <time>2010-05-30T07:40:43Z</time>
      </trkpt>
      <trkpt lat="45.64997" lon="3.32771">
        <ele>582.21557617188</ele>
        <time>2010-05-30T07:40:45Z</time>
      </trkpt>
      <trkpt lat="45.64992" lon="3.32807">
        <ele>582.21557617188</ele>
        <time>2010-05-30T07:40:50Z</time>
      </trkpt>
      <trkpt lat="45.64998" lon="3.32827">
        <ele>583.1767578125</ele>
        <time>2010-05-30T07:40:53Z</time>
      </trkpt>
      <trkpt lat="45.65015" lon="3.32875">
        <ele>585.099609375</ele>
        <time>2010-05-30T07:41:01Z</time>
      </trkpt>
      <trkpt lat="45.65018" lon="3.32887">
        <ele>586.06079101562</ele>
        <time>2010-05-30T07:41:03Z</time>
      </trkpt>
      <trkpt lat="45.6502" lon="3.32899">
        <ele>587.02197265625</ele>
        <time>2010-05-30T07:41:05Z</time>
      </trkpt>
      <trkpt lat="45.65021" lon="3.32923">
        <ele>587.02197265625</ele>
        <time>2010-05-30T07:41:09Z</time>
      </trkpt>
      <trkpt lat="45.65011" lon="3.32942">
        <ele>588.46435546875</ele>
        <time>2010-05-30T07:41:13Z</time>
      </trkpt>
      <trkpt lat="45.65003" lon="3.32966">
        <ele>587.9833984375</ele>
        <time>2010-05-30T07:41:17Z</time>
      </trkpt>
      <trkpt lat="45.65005" lon="3.32986">
        <ele>587.9833984375</ele>
        <time>2010-05-30T07:41:20Z</time>
      </trkpt>
      <trkpt lat="45.65009" lon="3.33015">
        <ele>586.54150390625</ele>
        <time>2010-05-30T07:41:25Z</time>
      </trkpt>
      <trkpt lat="45.65012" lon="3.33046">
        <ele>584.13818359375</ele>
        <time>2010-05-30T07:41:29Z</time>
      </trkpt>
      <trkpt lat="45.65007" lon="3.33078">
        <ele>580.29296875</ele>
        <time>2010-05-30T07:41:33Z</time>
      </trkpt>
      <trkpt lat="45.64994" lon="3.33096">
        <ele>577.8896484375</ele>
        <time>2010-05-30T07:41:36Z</time>
      </trkpt>
      <trkpt lat="45.64976" lon="3.3311">
        <ele>575.486328125</ele>
        <time>2010-05-30T07:41:39Z</time>
      </trkpt>
      <trkpt lat="45.64959" lon="3.3313">
        <ele>573.56396484375</ele>
        <time>2010-05-30T07:41:42Z</time>
      </trkpt>
      <trkpt lat="45.64945" lon="3.33154">
        <ele>572.12182617188</ele>
        <time>2010-05-30T07:41:45Z</time>
      </trkpt>
      <trkpt lat="45.64941" lon="3.33163">
        <ele>570.19897460938</ele>
        <time>2010-05-30T07:41:46Z</time>
      </trkpt>
      <trkpt lat="45.6493" lon="3.33209">
        <ele>567.79565429688</ele>
        <time>2010-05-30T07:41:50Z</time>
      </trkpt>
      <trkpt lat="45.64918" lon="3.33268">
        <ele>566.83447265625</ele>
        <time>2010-05-30T07:41:55Z</time>
      </trkpt>
      <trkpt lat="45.64904" lon="3.33308">
        <ele>565.87329101562</ele>
        <time>2010-05-30T07:41:59Z</time>
      </trkpt>
      <trkpt lat="45.64901" lon="3.33317">
        <ele>565.87329101562</ele>
        <time>2010-05-30T07:42:00Z</time>
      </trkpt>
      <trkpt lat="45.64891" lon="3.33345">
        <ele>565.392578125</ele>
        <time>2010-05-30T07:42:03Z</time>
      </trkpt>
      <trkpt lat="45.6487" lon="3.33414">
        <ele>562.50854492188</ele>
        <time>2010-05-30T07:42:10Z</time>
      </trkpt>
      <trkpt lat="45.64867" lon="3.33425">
        <ele>561.06665039062</ele>
        <time>2010-05-30T07:42:11Z</time>
      </trkpt>
      <trkpt lat="45.64859" lon="3.33494">
        <ele>560.10522460938</ele>
        <time>2010-05-30T07:42:18Z</time>
      </trkpt>
      <trkpt lat="45.64856" lon="3.33528">
        <ele>560.5859375</ele>
        <time>2010-05-30T07:42:22Z</time>
      </trkpt>
      <trkpt lat="45.64852" lon="3.33573">
        <ele>560.5859375</ele>
        <time>2010-05-30T07:42:27Z</time>
      </trkpt>
      <trkpt lat="45.64843" lon="3.33633">
        <ele>560.5859375</ele>
        <time>2010-05-30T07:42:34Z</time>
      </trkpt>
      <trkpt lat="45.64828" lon="3.33677">
        <ele>561.06665039062</ele>
        <time>2010-05-30T07:42:40Z</time>
      </trkpt>
      <trkpt lat="45.64824" lon="3.3369">
        <ele>561.06665039062</ele>
        <time>2010-05-30T07:42:42Z</time>
      </trkpt>
      <trkpt lat="45.64822" lon="3.33697">
        <ele>561.54736328125</ele>
        <time>2010-05-30T07:42:43Z</time>
      </trkpt>
      <trkpt lat="45.64813" lon="3.33738">
        <ele>563.46997070312</ele>
        <time>2010-05-30T07:42:50Z</time>
      </trkpt>
      <trkpt lat="45.64814" lon="3.33753">
        <ele>563.46997070312</ele>
        <time>2010-05-30T07:42:53Z</time>
      </trkpt>
      <trkpt lat="45.64819" lon="3.33769">
        <ele>563.95043945312</ele>
        <time>2010-05-30T07:42:56Z</time>
      </trkpt>
      <trkpt lat="45.64824" lon="3.33778">
        <ele>564.91186523438</ele>
        <time>2010-05-30T07:42:58Z</time>
      </trkpt>
      <trkpt lat="45.64837" lon="3.33822">
        <ele>565.392578125</ele>
        <time>2010-05-30T07:43:06Z</time>
      </trkpt>
      <trkpt lat="45.64844" lon="3.33864">
        <ele>566.35375976562</ele>
        <time>2010-05-30T07:43:13Z</time>
      </trkpt>
      <trkpt lat="45.64851" lon="3.3392">
        <ele>565.87329101562</ele>
        <time>2010-05-30T07:43:21Z</time>
      </trkpt>
      <trkpt lat="45.64859" lon="3.33957">
        <ele>565.392578125</ele>
        <time>2010-05-30T07:43:26Z</time>
      </trkpt>
      <trkpt lat="45.64864" lon="3.34017">
        <ele>562.9892578125</ele>
        <time>2010-05-30T07:43:33Z</time>
      </trkpt>
      <trkpt lat="45.64865" lon="3.34048">
        <ele>563.46997070312</ele>
        <time>2010-05-30T07:43:36Z</time>
      </trkpt>
      <trkpt lat="45.64869" lon="3.34076">
        <ele>562.9892578125</ele>
        <time>2010-05-30T07:43:39Z</time>
      </trkpt>
      <trkpt lat="45.64872" lon="3.34095">
        <ele>562.9892578125</ele>
        <time>2010-05-30T07:43:41Z</time>
      </trkpt>
      <trkpt lat="45.64876" lon="3.34112">
        <ele>562.9892578125</ele>
        <time>2010-05-30T07:43:43Z</time>
      </trkpt>
      <trkpt lat="45.64886" lon="3.34133">
        <ele>562.9892578125</ele>
        <time>2010-05-30T07:43:46Z</time>
      </trkpt>
      <trkpt lat="45.64918" lon="3.34182">
        <ele>564.43115234375</ele>
        <time>2010-05-30T07:43:54Z</time>
      </trkpt>
      <trkpt lat="45.64933" lon="3.34208">
        <ele>564.91186523438</ele>
        <time>2010-05-30T07:43:59Z</time>
      </trkpt>
      <trkpt lat="45.64942" lon="3.34223">
        <ele>565.87329101562</ele>
        <time>2010-05-30T07:44:02Z</time>
      </trkpt>
      <trkpt lat="45.64946" lon="3.34234">
        <ele>566.83447265625</ele>
        <time>2010-05-30T07:44:04Z</time>
      </trkpt>
      <trkpt lat="45.64951" lon="3.34245">
        <ele>566.83447265625</ele>
        <time>2010-05-30T07:44:06Z</time>
      </trkpt>
      <trkpt lat="45.64954" lon="3.34263">
        <ele>567.31518554688</ele>
        <time>2010-05-30T07:44:09Z</time>
      </trkpt>
      <trkpt lat="45.64954" lon="3.34269">
        <ele>567.31518554688</ele>
        <time>2010-05-30T07:44:10Z</time>
      </trkpt>
      <trkpt lat="45.64954" lon="3.34287">
        <ele>568.2763671875</ele>
        <time>2010-05-30T07:44:13Z</time>
      </trkpt>
      <trkpt lat="45.64949" lon="3.34309">
        <ele>569.71850585938</ele>
        <time>2010-05-30T07:44:17Z</time>
      </trkpt>
      <trkpt lat="45.64952" lon="3.34339">
        <ele>570.19897460938</ele>
        <time>2010-05-30T07:44:22Z</time>
      </trkpt>
      <trkpt lat="45.64966" lon="3.3438">
        <ele>572.12182617188</ele>
        <time>2010-05-30T07:44:30Z</time>
      </trkpt>
      <trkpt lat="45.64968" lon="3.34385">
        <ele>572.6025390625</ele>
        <time>2010-05-30T07:44:31Z</time>
      </trkpt>
      <trkpt lat="45.64979" lon="3.34417">
        <ele>573.56396484375</ele>
        <time>2010-05-30T07:44:37Z</time>
      </trkpt>
      <trkpt lat="45.64988" lon="3.34455">
        <ele>573.56396484375</ele>
        <time>2010-05-30T07:44:44Z</time>
      </trkpt>
      <trkpt lat="45.64996" lon="3.34506">
        <ele>573.56396484375</ele>
        <time>2010-05-30T07:44:52Z</time>
      </trkpt>
      <trkpt lat="45.64998" lon="3.3452">
        <ele>573.08325195312</ele>
        <time>2010-05-30T07:44:54Z</time>
      </trkpt>
      <trkpt lat="45.64995" lon="3.34555">
        <ele>573.08325195312</ele>
        <time>2010-05-30T07:44:59Z</time>
      </trkpt>
      <trkpt lat="45.64991" lon="3.34575">
        <ele>573.08325195312</ele>
        <time>2010-05-30T07:45:02Z</time>
      </trkpt>
      <trkpt lat="45.64992" lon="3.34602">
        <ele>573.08325195312</ele>
        <time>2010-05-30T07:45:06Z</time>
      </trkpt>
      <trkpt lat="45.65001" lon="3.34634">
        <ele>573.08325195312</ele>
        <time>2010-05-30T07:45:11Z</time>
      </trkpt>
      <trkpt lat="45.65009" lon="3.34657">
        <ele>573.56396484375</ele>
        <time>2010-05-30T07:45:15Z</time>
      </trkpt>
      <trkpt lat="45.65024" lon="3.34703">
        <ele>575.96704101562</ele>
        <time>2010-05-30T07:45:23Z</time>
      </trkpt>
      <trkpt lat="45.65026" lon="3.34708">
        <ele>576.44775390625</ele>
        <time>2010-05-30T07:45:24Z</time>
      </trkpt>
      <trkpt lat="45.65046" lon="3.34745">
        <ele>577.4091796875</ele>
        <time>2010-05-30T07:45:32Z</time>
      </trkpt>
      <trkpt lat="45.65048" lon="3.3475">
        <ele>577.8896484375</ele>
        <time>2010-05-30T07:45:33Z</time>
      </trkpt>
      <trkpt lat="45.65055" lon="3.34764">
        <ele>578.85107421875</ele>
        <time>2010-05-30T07:45:36Z</time>
      </trkpt>
      <trkpt lat="45.65056" lon="3.34769">
        <ele>579.81225585938</ele>
        <time>2010-05-30T07:45:37Z</time>
      </trkpt>
      <trkpt lat="45.65058" lon="3.34774">
        <ele>579.81225585938</ele>
        <time>2010-05-30T07:45:38Z</time>
      </trkpt>
      <trkpt lat="45.6506" lon="3.34779">
        <ele>580.29296875</ele>
        <time>2010-05-30T07:45:39Z</time>
      </trkpt>
      <trkpt lat="45.65074" lon="3.34828">
        <ele>580.29296875</ele>
        <time>2010-05-30T07:45:48Z</time>
      </trkpt>
      <trkpt lat="45.65081" lon="3.34862">
        <ele>577.8896484375</ele>
        <time>2010-05-30T07:45:52Z</time>
      </trkpt>
      <trkpt lat="45.65094" lon="3.34928">
        <ele>576.92846679688</ele>
        <time>2010-05-30T07:45:59Z</time>
      </trkpt>
      <trkpt lat="45.65098" lon="3.34945">
        <ele>576.92846679688</ele>
        <time>2010-05-30T07:46:01Z</time>
      </trkpt>
      <trkpt lat="45.65115" lon="3.3498">
        <ele>576.92846679688</ele>
        <time>2010-05-30T07:46:06Z</time>
      </trkpt>
      <trkpt lat="45.65128" lon="3.34997">
        <ele>577.8896484375</ele>
        <time>2010-05-30T07:46:09Z</time>
      </trkpt>
      <trkpt lat="45.65139" lon="3.35022">
        <ele>578.85107421875</ele>
        <time>2010-05-30T07:46:13Z</time>
      </trkpt>
      <trkpt lat="45.65153" lon="3.35077">
        <ele>580.77368164062</ele>
        <time>2010-05-30T07:46:22Z</time>
      </trkpt>
      <trkpt lat="45.65158" lon="3.351">
        <ele>582.6962890625</ele>
        <time>2010-05-30T07:46:26Z</time>
      </trkpt>
      <trkpt lat="45.6516" lon="3.35106">
        <ele>582.6962890625</ele>
        <time>2010-05-30T07:46:27Z</time>
      </trkpt>
      <trkpt lat="45.65166" lon="3.35122">
        <ele>584.13818359375</ele>
        <time>2010-05-30T07:46:30Z</time>
      </trkpt>
      <trkpt lat="45.65177" lon="3.35146">
        <ele>586.06079101562</ele>
        <time>2010-05-30T07:46:35Z</time>
      </trkpt>
      <trkpt lat="45.65183" lon="3.3516">
        <ele>586.06079101562</ele>
        <time>2010-05-30T07:46:39Z</time>
      </trkpt>
      <trkpt lat="45.65185" lon="3.35164">
        <ele>586.54150390625</ele>
        <time>2010-05-30T07:46:41Z</time>
      </trkpt>
      <trkpt lat="45.65181" lon="3.35168">
        <ele>586.06079101562</ele>
        <time>2010-05-30T07:46:45Z</time>
      </trkpt>
      <trkpt lat="45.65178" lon="3.35164">
        <ele>586.06079101562</ele>
        <time>2010-05-30T07:46:48Z</time>
      </trkpt>
      <trkpt lat="45.65185" lon="3.35159">
        <ele>586.06079101562</ele>
        <time>2010-05-30T07:46:54Z</time>
      </trkpt>
      <trkpt lat="45.65187" lon="3.35161">
        <ele>586.06079101562</ele>
        <time>2010-05-30T07:46:55Z</time>
      </trkpt>
      <trkpt lat="45.65204" lon="3.35169">
        <ele>586.06079101562</ele>
        <time>2010-05-30T07:47:00Z</time>
      </trkpt>
      <trkpt lat="45.65235" lon="3.35161">
        <ele>586.54150390625</ele>
        <time>2010-05-30T07:47:08Z</time>
      </trkpt>
      <trkpt lat="45.6526" lon="3.35166">
        <ele>586.06079101562</ele>
        <time>2010-05-30T07:47:14Z</time>
      </trkpt>
      <trkpt lat="45.65273" lon="3.35169">
        <ele>585.580078125</ele>
        <time>2010-05-30T07:47:18Z</time>
      </trkpt>
      <trkpt lat="45.65296" lon="3.35174">
        <ele>586.06079101562</ele>
        <time>2010-05-30T07:47:25Z</time>
      </trkpt>
      <trkpt lat="45.65324" lon="3.3518">
        <ele>586.54150390625</ele>
        <time>2010-05-30T07:47:33Z</time>
      </trkpt>
      <trkpt lat="45.65343" lon="3.35184">
        <ele>587.02197265625</ele>
        <time>2010-05-30T07:47:38Z</time>
      </trkpt>
      <trkpt lat="45.65368" lon="3.35185">
        <ele>587.9833984375</ele>
        <time>2010-05-30T07:47:45Z</time>
      </trkpt>
      <trkpt lat="45.65394" lon="3.35179">
        <ele>588.94506835938</ele>
        <time>2010-05-30T07:47:52Z</time>
      </trkpt>
      <trkpt lat="45.65411" lon="3.35179">
        <ele>588.94506835938</ele>
        <time>2010-05-30T07:47:56Z</time>
      </trkpt>
      <trkpt lat="45.65442" lon="3.35195">
        <ele>589.42553710938</ele>
        <time>2010-05-30T07:48:04Z</time>
      </trkpt>
      <trkpt lat="45.65455" lon="3.35206">
        <ele>589.90625</ele>
        <time>2010-05-30T07:48:08Z</time>
      </trkpt>
      <trkpt lat="45.65463" lon="3.35228">
        <ele>589.90625</ele>
        <time>2010-05-30T07:48:12Z</time>
      </trkpt>
      <trkpt lat="45.65465" lon="3.35241">
        <ele>589.90625</ele>
        <time>2010-05-30T07:48:14Z</time>
      </trkpt>
      <trkpt lat="45.65474" lon="3.35265">
        <ele>589.42553710938</ele>
        <time>2010-05-30T07:48:18Z</time>
      </trkpt>
      <trkpt lat="45.65507" lon="3.35307">
        <ele>588.46435546875</ele>
        <time>2010-05-30T07:48:26Z</time>
      </trkpt>
      <trkpt lat="45.65516" lon="3.35317">
        <ele>588.46435546875</ele>
        <time>2010-05-30T07:48:28Z</time>
      </trkpt>
      <trkpt lat="45.65559" lon="3.35361">
        <ele>589.90625</ele>
        <time>2010-05-30T07:48:37Z</time>
      </trkpt>
      <trkpt lat="45.65596" lon="3.35401">
        <ele>588.94506835938</ele>
        <time>2010-05-30T07:48:45Z</time>
      </trkpt>
      <trkpt lat="45.65643" lon="3.35452">
        <ele>589.90625</ele>
        <time>2010-05-30T07:48:55Z</time>
      </trkpt>
      <trkpt lat="45.6568" lon="3.35491">
        <ele>589.90625</ele>
        <time>2010-05-30T07:49:03Z</time>
      </trkpt>
      <trkpt lat="45.65705" lon="3.35517">
        <ele>590.38696289062</ele>
        <time>2010-05-30T07:49:09Z</time>
      </trkpt>
      <trkpt lat="45.65731" lon="3.35552">
        <ele>591.82885742188</ele>
        <time>2010-05-30T07:49:16Z</time>
      </trkpt>
      <trkpt lat="45.65744" lon="3.35578">
        <ele>592.3095703125</ele>
        <time>2010-05-30T07:49:21Z</time>
      </trkpt>
      <trkpt lat="45.65764" lon="3.35613">
        <ele>593.75146484375</ele>
        <time>2010-05-30T07:49:28Z</time>
      </trkpt>
      <trkpt lat="45.65789" lon="3.35651">
        <ele>596.15478515625</ele>
        <time>2010-05-30T07:49:37Z</time>
      </trkpt>
      <trkpt lat="45.65814" lon="3.357">
        <ele>596.63549804688</ele>
        <time>2010-05-30T07:49:46Z</time>
      </trkpt>
      <trkpt lat="45.65847" lon="3.35748">
        <ele>597.5966796875</ele>
        <time>2010-05-30T07:49:56Z</time>
      </trkpt>
      <trkpt lat="45.65865" lon="3.35783">
        <ele>599.51928710938</ele>
        <time>2010-05-30T07:50:04Z</time>
      </trkpt>
      <trkpt lat="45.65881" lon="3.35811">
        <ele>601.92260742188</ele>
        <time>2010-05-30T07:50:12Z</time>
      </trkpt>
      <trkpt lat="45.65896" lon="3.35828">
        <ele>602.40307617188</ele>
        <time>2010-05-30T07:50:18Z</time>
      </trkpt>
      <trkpt lat="45.65919" lon="3.35835">
        <ele>603.84521484375</ele>
        <time>2010-05-30T07:50:25Z</time>
      </trkpt>
      <trkpt lat="45.6594" lon="3.35847">
        <ele>601.44189453125</ele>
        <time>2010-05-30T07:50:30Z</time>
      </trkpt>
      <trkpt lat="45.65966" lon="3.3588">
        <ele>600.48071289062</ele>
        <time>2010-05-30T07:50:35Z</time>
      </trkpt>
      <trkpt lat="45.6597" lon="3.35888">
        <ele>600.96118164062</ele>
        <time>2010-05-30T07:50:36Z</time>
      </trkpt>
      <trkpt lat="45.65984" lon="3.35903">
        <ele>600</ele>
        <time>2010-05-30T07:50:40Z</time>
      </trkpt>
      <trkpt lat="45.65979" lon="3.35903">
        <ele>599.51928710938</ele>
        <time>2010-05-30T07:50:43Z</time>
      </trkpt>
      <trkpt lat="45.65974" lon="3.35912">
        <ele>600</ele>
        <time>2010-05-30T07:50:47Z</time>
      </trkpt>
      <trkpt lat="45.65974" lon="3.35915">
        <ele>600</ele>
        <time>2010-05-30T07:50:48Z</time>
      </trkpt>
      <trkpt lat="45.65974" lon="3.35926">
        <ele>600.96118164062</ele>
        <time>2010-05-30T07:50:52Z</time>
      </trkpt>
      <trkpt lat="45.65974" lon="3.35929">
        <ele>600</ele>
        <time>2010-05-30T07:50:53Z</time>
      </trkpt>
      <trkpt lat="45.65975" lon="3.35932">
        <ele>600.48071289062</ele>
        <time>2010-05-30T07:50:55Z</time>
      </trkpt>
      <trkpt lat="45.65979" lon="3.35946">
        <ele>601.44189453125</ele>
        <time>2010-05-30T07:51:01Z</time>
      </trkpt>
      <trkpt lat="45.65982" lon="3.35955">
        <ele>602.8837890625</ele>
        <time>2010-05-30T07:51:05Z</time>
      </trkpt>
      <trkpt lat="45.65983" lon="3.3596">
        <ele>603.36450195312</ele>
        <time>2010-05-30T07:51:07Z</time>
      </trkpt>
      <trkpt lat="45.65987" lon="3.35969">
        <ele>605.28735351562</ele>
        <time>2010-05-30T07:51:12Z</time>
      </trkpt>
      <trkpt lat="45.65992" lon="3.35981">
        <ele>606.24853515625</ele>
        <time>2010-05-30T07:51:18Z</time>
      </trkpt>
      <trkpt lat="45.65997" lon="3.35993">
        <ele>608.17138671875</ele>
        <time>2010-05-30T07:51:24Z</time>
      </trkpt>
      <trkpt lat="45.66003" lon="3.36005">
        <ele>609.61328125</ele>
        <time>2010-05-30T07:51:31Z</time>
      </trkpt>
      <trkpt lat="45.66007" lon="3.36016">
        <ele>610.09375</ele>
        <time>2010-05-30T07:51:37Z</time>
      </trkpt>
      <trkpt lat="45.6601" lon="3.36028">
        <ele>611.53588867188</ele>
        <time>2010-05-30T07:51:43Z</time>
      </trkpt>
      <trkpt lat="45.66013" lon="3.36045">
        <ele>613.93896484375</ele>
        <time>2010-05-30T07:51:50Z</time>
      </trkpt>
      <trkpt lat="45.66016" lon="3.36058">
        <ele>614.41967773438</ele>
        <time>2010-05-30T07:51:55Z</time>
      </trkpt>
      <trkpt lat="45.66022" lon="3.36075">
        <ele>615.38110351562</ele>
        <time>2010-05-30T07:52:01Z</time>
      </trkpt>
      <trkpt lat="45.66029" lon="3.36096">
        <ele>614.900390625</ele>
        <time>2010-05-30T07:52:08Z</time>
      </trkpt>
      <trkpt lat="45.66039" lon="3.36124">
        <ele>614.41967773438</ele>
        <time>2010-05-30T07:52:16Z</time>
      </trkpt>
      <trkpt lat="45.66043" lon="3.36149">
        <ele>613.93896484375</ele>
        <time>2010-05-30T07:52:23Z</time>
      </trkpt>
      <trkpt lat="45.66045" lon="3.36168">
        <ele>613.45849609375</ele>
        <time>2010-05-30T07:52:29Z</time>
      </trkpt>
      <trkpt lat="45.66044" lon="3.36204">
        <ele>612.0166015625</ele>
        <time>2010-05-30T07:52:35Z</time>
      </trkpt>
      <trkpt lat="45.66044" lon="3.36233">
        <ele>612.0166015625</ele>
        <time>2010-05-30T07:52:39Z</time>
      </trkpt>
      <trkpt lat="45.66046" lon="3.36255">
        <ele>612.0166015625</ele>
        <time>2010-05-30T07:52:42Z</time>
      </trkpt>
      <trkpt lat="45.6605" lon="3.36276">
        <ele>611.53588867188</ele>
        <time>2010-05-30T07:52:45Z</time>
      </trkpt>
      <trkpt lat="45.66065" lon="3.36326">
        <ele>612.97778320312</ele>
        <time>2010-05-30T07:52:53Z</time>
      </trkpt>
      <trkpt lat="45.66067" lon="3.36337">
        <ele>613.93896484375</ele>
        <time>2010-05-30T07:52:55Z</time>
      </trkpt>
      <trkpt lat="45.66068" lon="3.36342">
        <ele>613.45849609375</ele>
        <time>2010-05-30T07:52:56Z</time>
      </trkpt>
      <trkpt lat="45.66068" lon="3.36348">
        <ele>613.45849609375</ele>
        <time>2010-05-30T07:52:57Z</time>
      </trkpt>
      <trkpt lat="45.66072" lon="3.36367">
        <ele>612.4970703125</ele>
        <time>2010-05-30T07:53:00Z</time>
      </trkpt>
      <trkpt lat="45.66087" lon="3.36382">
        <ele>610.57446289062</ele>
        <time>2010-05-30T07:53:03Z</time>
      </trkpt>
      <trkpt lat="45.66101" lon="3.36401">
        <ele>611.05517578125</ele>
        <time>2010-05-30T07:53:06Z</time>
      </trkpt>
      <trkpt lat="45.66116" lon="3.36424">
        <ele>612.4970703125</ele>
        <time>2010-05-30T07:53:11Z</time>
      </trkpt>
      <trkpt lat="45.6612" lon="3.3643">
        <ele>613.93896484375</ele>
        <time>2010-05-30T07:53:13Z</time>
      </trkpt>
      <trkpt lat="45.66127" lon="3.36438">
        <ele>615.86181640625</ele>
        <time>2010-05-30T07:53:16Z</time>
      </trkpt>
      <trkpt lat="45.66132" lon="3.36445">
        <ele>616.34228515625</ele>
        <time>2010-05-30T07:53:18Z</time>
      </trkpt>
      <trkpt lat="45.6614" lon="3.36466">
        <ele>618.26489257812</ele>
        <time>2010-05-30T07:53:24Z</time>
      </trkpt>
      <trkpt lat="45.66138" lon="3.36488">
        <ele>619.70703125</ele>
        <time>2010-05-30T07:53:30Z</time>
      </trkpt>
      <trkpt lat="45.66131" lon="3.3651">
        <ele>621.62963867188</ele>
        <time>2010-05-30T07:53:38Z</time>
      </trkpt>
      <trkpt lat="45.66124" lon="3.36529">
        <ele>622.59106445312</ele>
        <time>2010-05-30T07:53:45Z</time>
      </trkpt>
      <trkpt lat="45.66114" lon="3.36553">
        <ele>624.513671875</ele>
        <time>2010-05-30T07:53:53Z</time>
      </trkpt>
      <trkpt lat="45.66105" lon="3.36572">
        <ele>624.513671875</ele>
        <time>2010-05-30T07:54:00Z</time>
      </trkpt>
      <trkpt lat="45.66097" lon="3.36593">
        <ele>624.99438476562</ele>
        <time>2010-05-30T07:54:07Z</time>
      </trkpt>
      <trkpt lat="45.66088" lon="3.36624">
        <ele>626.43627929688</ele>
        <time>2010-05-30T07:54:17Z</time>
      </trkpt>
      <trkpt lat="45.66079" lon="3.36658">
        <ele>628.83959960938</ele>
        <time>2010-05-30T07:54:27Z</time>
      </trkpt>
      <trkpt lat="45.66074" lon="3.36677">
        <ele>630.28149414062</ele>
        <time>2010-05-30T07:54:33Z</time>
      </trkpt>
      <trkpt lat="45.6607" lon="3.36695">
        <ele>631.24291992188</ele>
        <time>2010-05-30T07:54:39Z</time>
      </trkpt>
      <trkpt lat="45.6606" lon="3.36708">
        <ele>632.68481445312</ele>
        <time>2010-05-30T07:54:45Z</time>
      </trkpt>
      <trkpt lat="45.66051" lon="3.36718">
        <ele>634.607421875</ele>
        <time>2010-05-30T07:54:51Z</time>
      </trkpt>
      <trkpt lat="45.66039" lon="3.36733">
        <ele>636.04956054688</ele>
        <time>2010-05-30T07:55:00Z</time>
      </trkpt>
      <trkpt lat="45.66034" lon="3.36747">
        <ele>637.0107421875</ele>
        <time>2010-05-30T07:55:06Z</time>
      </trkpt>
      <trkpt lat="45.66029" lon="3.3676">
        <ele>638.45288085938</ele>
        <time>2010-05-30T07:55:12Z</time>
      </trkpt>
      <trkpt lat="45.66023" lon="3.36774">
        <ele>639.89477539062</ele>
        <time>2010-05-30T07:55:18Z</time>
      </trkpt>
      <trkpt lat="45.66013" lon="3.3679">
        <ele>642.29809570312</ele>
        <time>2010-05-30T07:55:26Z</time>
      </trkpt>
      <trkpt lat="45.66002" lon="3.36803">
        <ele>644.701171875</ele>
        <time>2010-05-30T07:55:34Z</time>
      </trkpt>
      <trkpt lat="45.66" lon="3.36807">
        <ele>645.66259765625</ele>
        <time>2010-05-30T07:55:36Z</time>
      </trkpt>
      <trkpt lat="45.6599" lon="3.36827">
        <ele>646.6240234375</ele>
        <time>2010-05-30T07:55:44Z</time>
      </trkpt>
      <trkpt lat="45.65984" lon="3.36845">
        <ele>648.54638671875</ele>
        <time>2010-05-30T07:55:52Z</time>
      </trkpt>
      <trkpt lat="45.65981" lon="3.36855">
        <ele>650.46923828125</ele>
        <time>2010-05-30T07:55:57Z</time>
      </trkpt>
      <trkpt lat="45.65982" lon="3.36869">
        <ele>651.43041992188</ele>
        <time>2010-05-30T07:56:03Z</time>
      </trkpt>
      <trkpt lat="45.65985" lon="3.36894">
        <ele>652.87255859375</ele>
        <time>2010-05-30T07:56:12Z</time>
      </trkpt>
      <trkpt lat="45.65988" lon="3.36914">
        <ele>655.27587890625</ele>
        <time>2010-05-30T07:56:20Z</time>
      </trkpt>
      <trkpt lat="45.65991" lon="3.36939">
        <ele>656.23706054688</ele>
        <time>2010-05-30T07:56:29Z</time>
      </trkpt>
      <trkpt lat="45.65987" lon="3.36957">
        <ele>657.67919921875</ele>
        <time>2010-05-30T07:56:36Z</time>
      </trkpt>
      <trkpt lat="45.65975" lon="3.36975">
        <ele>660.56298828125</ele>
        <time>2010-05-30T07:56:45Z</time>
      </trkpt>
      <trkpt lat="45.65968" lon="3.36988">
        <ele>661.04370117188</ele>
        <time>2010-05-30T07:56:51Z</time>
      </trkpt>
      <trkpt lat="45.65963" lon="3.37009">
        <ele>663.44702148438</ele>
        <time>2010-05-30T07:57:00Z</time>
      </trkpt>
      <trkpt lat="45.6596" lon="3.37034">
        <ele>665.36962890625</ele>
        <time>2010-05-30T07:57:09Z</time>
      </trkpt>
      <trkpt lat="45.65963" lon="3.37051">
        <ele>666.8115234375</ele>
        <time>2010-05-30T07:57:15Z</time>
      </trkpt>
      <trkpt lat="45.65973" lon="3.3706">
        <ele>668.25366210938</ele>
        <time>2010-05-30T07:57:21Z</time>
      </trkpt>
      <trkpt lat="45.65987" lon="3.37071">
        <ele>668.25366210938</ele>
        <time>2010-05-30T07:57:28Z</time>
      </trkpt>
      <trkpt lat="45.65992" lon="3.37089">
        <ele>668.25366210938</ele>
        <time>2010-05-30T07:57:32Z</time>
      </trkpt>
      <trkpt lat="45.65981" lon="3.37116">
        <ele>668.25366210938</ele>
        <time>2010-05-30T07:57:38Z</time>
      </trkpt>
      <trkpt lat="45.65971" lon="3.37139">
        <ele>668.25366210938</ele>
        <time>2010-05-30T07:57:43Z</time>
      </trkpt>
      <trkpt lat="45.65968" lon="3.37148">
        <ele>669.21508789062</ele>
        <time>2010-05-30T07:57:45Z</time>
      </trkpt>
      <trkpt lat="45.65973" lon="3.37161">
        <ele>668.25366210938</ele>
        <time>2010-05-30T07:57:49Z</time>
      </trkpt>
      <trkpt lat="45.65976" lon="3.37162">
        <ele>667.77270507812</ele>
        <time>2010-05-30T07:57:50Z</time>
      </trkpt>
      <trkpt lat="45.65984" lon="3.37157">
        <ele>667.77270507812</ele>
        <time>2010-05-30T07:57:52Z</time>
      </trkpt>
      <trkpt lat="45.66009" lon="3.37145">
        <ele>666.33081054688</ele>
        <time>2010-05-30T07:57:57Z</time>
      </trkpt>
      <trkpt lat="45.66038" lon="3.37144">
        <ele>664.88891601562</ele>
        <time>2010-05-30T07:58:02Z</time>
      </trkpt>
      <trkpt lat="45.66054" lon="3.37147">
        <ele>664.88891601562</ele>
        <time>2010-05-30T07:58:05Z</time>
      </trkpt>
      <trkpt lat="45.6607" lon="3.37151">
        <ele>664.408203125</ele>
        <time>2010-05-30T07:58:09Z</time>
      </trkpt>
      <trkpt lat="45.66074" lon="3.37151">
        <ele>663.92749023438</ele>
        <time>2010-05-30T07:58:13Z</time>
      </trkpt>
      <trkpt lat="45.66076" lon="3.37149">
        <ele>664.408203125</ele>
        <time>2010-05-30T07:58:19Z</time>
      </trkpt>
      <trkpt lat="45.66076" lon="3.37149">
        <ele>664.408203125</ele>
        <time>2010-05-30T07:58:22Z</time>
      </trkpt>
      <trkpt lat="45.66076" lon="3.37149">
        <ele>664.408203125</ele>
        <time>2010-05-30T07:58:23Z</time>
      </trkpt>
      <trkpt lat="45.66076" lon="3.37148">
        <ele>664.408203125</ele>
        <time>2010-05-30T07:58:33Z</time>
      </trkpt>
      <trkpt lat="45.66055" lon="3.37152">
        <ele>663.44702148438</ele>
        <time>2010-05-30T08:04:34Z</time>
      </trkpt>
      <trkpt lat="45.66057" lon="3.37153">
        <ele>663.44702148438</ele>
        <time>2010-05-30T08:04:55Z</time>
      </trkpt>
      <trkpt lat="45.66056" lon="3.37153">
        <ele>663.44702148438</ele>
        <time>2010-05-30T08:04:56Z</time>
      </trkpt>
      <trkpt lat="45.66066" lon="3.37154">
        <ele>663.92749023438</ele>
        <time>2010-05-30T08:05:13Z</time>
      </trkpt>
      <trkpt lat="45.6607" lon="3.37156">
        <ele>663.44702148438</ele>
        <time>2010-05-30T08:05:17Z</time>
      </trkpt>
      <trkpt lat="45.66081" lon="3.37163">
        <ele>663.44702148438</ele>
        <time>2010-05-30T08:05:22Z</time>
      </trkpt>
      <trkpt lat="45.66098" lon="3.37175">
        <ele>663.92749023438</ele>
        <time>2010-05-30T08:05:28Z</time>
      </trkpt>
      <trkpt lat="45.66122" lon="3.37191">
        <ele>664.408203125</ele>
        <time>2010-05-30T08:05:36Z</time>
      </trkpt>
      <trkpt lat="45.66137" lon="3.37202">
        <ele>664.408203125</ele>
        <time>2010-05-30T08:05:41Z</time>
      </trkpt>
      <trkpt lat="45.66143" lon="3.37207">
        <ele>663.92749023438</ele>
        <time>2010-05-30T08:05:43Z</time>
      </trkpt>
      <trkpt lat="45.66169" lon="3.37228">
        <ele>662.96630859375</ele>
        <time>2010-05-30T08:05:50Z</time>
      </trkpt>
      <trkpt lat="45.66182" lon="3.37253">
        <ele>661.5244140625</ele>
        <time>2010-05-30T08:05:55Z</time>
      </trkpt>
      <trkpt lat="45.6619" lon="3.37265">
        <ele>661.5244140625</ele>
        <time>2010-05-30T08:05:58Z</time>
      </trkpt>
      <trkpt lat="45.66197" lon="3.37261">
        <ele>661.04370117188</ele>
        <time>2010-05-30T08:06:00Z</time>
      </trkpt>
      <trkpt lat="45.66218" lon="3.37261">
        <ele>661.5244140625</ele>
        <time>2010-05-30T08:06:06Z</time>
      </trkpt>
      <trkpt lat="45.6623" lon="3.37266">
        <ele>661.04370117188</ele>
        <time>2010-05-30T08:06:09Z</time>
      </trkpt>
      <trkpt lat="45.66235" lon="3.37268">
        <ele>661.04370117188</ele>
        <time>2010-05-30T08:06:10Z</time>
      </trkpt>
      <trkpt lat="45.66255" lon="3.37274">
        <ele>659.60180664062</ele>
        <time>2010-05-30T08:06:15Z</time>
      </trkpt>
      <trkpt lat="45.66264" lon="3.37274">
        <ele>658.64038085938</ele>
        <time>2010-05-30T08:06:17Z</time>
      </trkpt>
      <trkpt lat="45.66274" lon="3.37271">
        <ele>658.64038085938</ele>
        <time>2010-05-30T08:06:19Z</time>
      </trkpt>
      <trkpt lat="45.66311" lon="3.37273">
        <ele>658.15991210938</ele>
        <time>2010-05-30T08:06:26Z</time>
      </trkpt>
      <trkpt lat="45.66333" lon="3.37272">
        <ele>658.15991210938</ele>
        <time>2010-05-30T08:06:32Z</time>
      </trkpt>
      <trkpt lat="45.66347" lon="3.37263">
        <ele>658.64038085938</ele>
        <time>2010-05-30T08:06:36Z</time>
      </trkpt>
      <trkpt lat="45.66363" lon="3.37255">
        <ele>659.12109375</ele>
        <time>2010-05-30T08:06:40Z</time>
      </trkpt>
      <trkpt lat="45.66373" lon="3.37254">
        <ele>659.60180664062</ele>
        <time>2010-05-30T08:06:42Z</time>
      </trkpt>
      <trkpt lat="45.66386" lon="3.37251">
        <ele>660.08227539062</ele>
        <time>2010-05-30T08:06:45Z</time>
      </trkpt>
      <trkpt lat="45.6639" lon="3.37249">
        <ele>660.08227539062</ele>
        <time>2010-05-30T08:06:46Z</time>
      </trkpt>
      <trkpt lat="45.66399" lon="3.37245">
        <ele>659.60180664062</ele>
        <time>2010-05-30T08:06:48Z</time>
      </trkpt>
      <trkpt lat="45.66426" lon="3.37231">
        <ele>658.15991210938</ele>
        <time>2010-05-30T08:06:53Z</time>
      </trkpt>
      <trkpt lat="45.66444" lon="3.37222">
        <ele>656.7177734375</ele>
        <time>2010-05-30T08:06:56Z</time>
      </trkpt>
      <trkpt lat="45.66483" lon="3.37201">
        <ele>657.19848632812</ele>
        <time>2010-05-30T08:07:03Z</time>
      </trkpt>
      <trkpt lat="45.66488" lon="3.37199">
        <ele>656.7177734375</ele>
        <time>2010-05-30T08:07:04Z</time>
      </trkpt>
      <trkpt lat="45.66503" lon="3.37192">
        <ele>656.23706054688</ele>
        <time>2010-05-30T08:07:07Z</time>
      </trkpt>
      <trkpt lat="45.66513" lon="3.37187">
        <ele>656.23706054688</ele>
        <time>2010-05-30T08:07:09Z</time>
      </trkpt>
      <trkpt lat="45.66523" lon="3.37182">
        <ele>655.27587890625</ele>
        <time>2010-05-30T08:07:11Z</time>
      </trkpt>
      <trkpt lat="45.66533" lon="3.37161">
        <ele>653.35327148438</ele>
        <time>2010-05-30T08:07:15Z</time>
      </trkpt>
      <trkpt lat="45.66535" lon="3.37153">
        <ele>653.35327148438</ele>
        <time>2010-05-30T08:07:16Z</time>
      </trkpt>
      <trkpt lat="45.66541" lon="3.37138">
        <ele>651.43041992188</ele>
        <time>2010-05-30T08:07:18Z</time>
      </trkpt>
      <trkpt lat="45.6655" lon="3.37123">
        <ele>649.02709960938</ele>
        <time>2010-05-30T08:07:21Z</time>
      </trkpt>
      <trkpt lat="45.66561" lon="3.37122">
        <ele>647.1044921875</ele>
        <time>2010-05-30T08:07:24Z</time>
      </trkpt>
      <trkpt lat="45.66567" lon="3.37143">
        <ele>644.701171875</ele>
        <time>2010-05-30T08:07:28Z</time>
      </trkpt>
      <trkpt lat="45.66564" lon="3.37154">
        <ele>643.25927734375</ele>
        <time>2010-05-30T08:07:30Z</time>
      </trkpt>
      <trkpt lat="45.66568" lon="3.37182">
        <ele>639.4140625</ele>
        <time>2010-05-30T08:07:35Z</time>
      </trkpt>
      <trkpt lat="45.66574" lon="3.37194">
        <ele>637.49145507812</ele>
        <time>2010-05-30T08:07:38Z</time>
      </trkpt>
      <trkpt lat="45.66584" lon="3.37189">
        <ele>633.64599609375</ele>
        <time>2010-05-30T08:07:42Z</time>
      </trkpt>
      <trkpt lat="45.66592" lon="3.37172">
        <ele>630.28149414062</ele>
        <time>2010-05-30T08:07:45Z</time>
      </trkpt>
      <trkpt lat="45.66596" lon="3.3716">
        <ele>629.32006835938</ele>
        <time>2010-05-30T08:07:47Z</time>
      </trkpt>
      <trkpt lat="45.66618" lon="3.37118">
        <ele>623.55249023438</ele>
        <time>2010-05-30T08:07:54Z</time>
      </trkpt>
      <trkpt lat="45.66626" lon="3.37098">
        <ele>621.62963867188</ele>
        <time>2010-05-30T08:07:57Z</time>
      </trkpt>
      <trkpt lat="45.66633" lon="3.37082">
        <ele>619.70703125</ele>
        <time>2010-05-30T08:08:00Z</time>
      </trkpt>
      <trkpt lat="45.66641" lon="3.37054">
        <ele>616.82299804688</ele>
        <time>2010-05-30T08:08:04Z</time>
      </trkpt>
      <trkpt lat="45.66651" lon="3.37029">
        <ele>613.93896484375</ele>
        <time>2010-05-30T08:08:07Z</time>
      </trkpt>
      <trkpt lat="45.66658" lon="3.37015">
        <ele>612.4970703125</ele>
        <time>2010-05-30T08:08:09Z</time>
      </trkpt>
      <trkpt lat="45.66667" lon="3.37">
        <ele>611.53588867188</ele>
        <time>2010-05-30T08:08:11Z</time>
      </trkpt>
      <trkpt lat="45.66671" lon="3.36976">
        <ele>609.61328125</ele>
        <time>2010-05-30T08:08:14Z</time>
      </trkpt>
      <trkpt lat="45.6668" lon="3.36956">
        <ele>606.72924804688</ele>
        <time>2010-05-30T08:08:17Z</time>
      </trkpt>
      <trkpt lat="45.66698" lon="3.36951">
        <ele>604.326171875</ele>
        <time>2010-05-30T08:08:20Z</time>
      </trkpt>
      <trkpt lat="45.66714" lon="3.36934">
        <ele>602.40307617188</ele>
        <time>2010-05-30T08:08:23Z</time>
      </trkpt>
      <trkpt lat="45.66724" lon="3.36923">
        <ele>600.96118164062</ele>
        <time>2010-05-30T08:08:25Z</time>
      </trkpt>
      <trkpt lat="45.66734" lon="3.36914">
        <ele>600.48071289062</ele>
        <time>2010-05-30T08:08:27Z</time>
      </trkpt>
      <trkpt lat="45.6675" lon="3.36903">
        <ele>598.55786132812</ele>
        <time>2010-05-30T08:08:30Z</time>
      </trkpt>
      <trkpt lat="45.66775" lon="3.3687">
        <ele>596.15478515625</ele>
        <time>2010-05-30T08:08:35Z</time>
      </trkpt>
      <trkpt lat="45.66779" lon="3.3685">
        <ele>595.67407226562</ele>
        <time>2010-05-30T08:08:37Z</time>
      </trkpt>
      <trkpt lat="45.66785" lon="3.36832">
        <ele>595.193359375</ele>
        <time>2010-05-30T08:08:39Z</time>
      </trkpt>
      <trkpt lat="45.66794" lon="3.36818">
        <ele>593.27075195312</ele>
        <time>2010-05-30T08:08:41Z</time>
      </trkpt>
      <trkpt lat="45.66808" lon="3.36812">
        <ele>590.86743164062</ele>
        <time>2010-05-30T08:08:43Z</time>
      </trkpt>
      <trkpt lat="45.66845" lon="3.3682">
        <ele>588.94506835938</ele>
        <time>2010-05-30T08:08:48Z</time>
      </trkpt>
      <trkpt lat="45.66858" lon="3.3685">
        <ele>587.50268554688</ele>
        <time>2010-05-30T08:08:51Z</time>
      </trkpt>
      <trkpt lat="45.66882" lon="3.36893">
        <ele>586.54150390625</ele>
        <time>2010-05-30T08:08:56Z</time>
      </trkpt>
      <trkpt lat="45.66897" lon="3.36894">
        <ele>585.580078125</ele>
        <time>2010-05-30T08:08:59Z</time>
      </trkpt>
      <trkpt lat="45.66901" lon="3.36874">
        <ele>586.54150390625</ele>
        <time>2010-05-30T08:09:02Z</time>
      </trkpt>
      <trkpt lat="45.66898" lon="3.36857">
        <ele>586.54150390625</ele>
        <time>2010-05-30T08:09:04Z</time>
      </trkpt>
      <trkpt lat="45.66894" lon="3.36831">
        <ele>586.54150390625</ele>
        <time>2010-05-30T08:09:07Z</time>
      </trkpt>
      <trkpt lat="45.66891" lon="3.36794">
        <ele>586.54150390625</ele>
        <time>2010-05-30T08:09:11Z</time>
      </trkpt>
      <trkpt lat="45.66887" lon="3.36776">
        <ele>587.02197265625</ele>
        <time>2010-05-30T08:09:13Z</time>
      </trkpt>
      <trkpt lat="45.66879" lon="3.36743">
        <ele>589.42553710938</ele>
        <time>2010-05-30T08:09:18Z</time>
      </trkpt>
      <trkpt lat="45.66884" lon="3.3672">
        <ele>588.46435546875</ele>
        <time>2010-05-30T08:09:21Z</time>
      </trkpt>
      <trkpt lat="45.66901" lon="3.36661">
        <ele>588.46435546875</ele>
        <time>2010-05-30T08:09:28Z</time>
      </trkpt>
      <trkpt lat="45.66913" lon="3.36623">
        <ele>588.94506835938</ele>
        <time>2010-05-30T08:09:33Z</time>
      </trkpt>
      <trkpt lat="45.66928" lon="3.36596">
        <ele>588.46435546875</ele>
        <time>2010-05-30T08:09:37Z</time>
      </trkpt>
      <trkpt lat="45.66953" lon="3.36561">
        <ele>585.099609375</ele>
        <time>2010-05-30T08:09:42Z</time>
      </trkpt>
      <trkpt lat="45.66957" lon="3.36547">
        <ele>583.1767578125</ele>
        <time>2010-05-30T08:09:44Z</time>
      </trkpt>
      <trkpt lat="45.66961" lon="3.36538">
        <ele>582.21557617188</ele>
        <time>2010-05-30T08:09:47Z</time>
      </trkpt>
      <trkpt lat="45.66963" lon="3.36539">
        <ele>582.6962890625</ele>
        <time>2010-05-30T08:09:48Z</time>
      </trkpt>
      <trkpt lat="45.66966" lon="3.36543">
        <ele>583.1767578125</ele>
        <time>2010-05-30T08:09:50Z</time>
      </trkpt>
      <trkpt lat="45.66982" lon="3.36542">
        <ele>585.099609375</ele>
        <time>2010-05-30T08:09:56Z</time>
      </trkpt>
      <trkpt lat="45.66985" lon="3.36541">
        <ele>585.580078125</ele>
        <time>2010-05-30T08:09:57Z</time>
      </trkpt>
      <trkpt lat="45.67006" lon="3.36525">
        <ele>586.06079101562</ele>
        <time>2010-05-30T08:10:04Z</time>
      </trkpt>
      <trkpt lat="45.67013" lon="3.36521">
        <ele>585.580078125</ele>
        <time>2010-05-30T08:10:06Z</time>
      </trkpt>
      <trkpt lat="45.67028" lon="3.36514">
        <ele>585.580078125</ele>
        <time>2010-05-30T08:10:09Z</time>
      </trkpt>
      <trkpt lat="45.67041" lon="3.36506">
        <ele>584.13818359375</ele>
        <time>2010-05-30T08:10:12Z</time>
      </trkpt>
      <trkpt lat="45.67062" lon="3.36484">
        <ele>582.21557617188</ele>
        <time>2010-05-30T08:10:18Z</time>
      </trkpt>
      <trkpt lat="45.67067" lon="3.36479">
        <ele>580.77368164062</ele>
        <time>2010-05-30T08:10:20Z</time>
      </trkpt>
      <trkpt lat="45.6707" lon="3.3647">
        <ele>580.29296875</ele>
        <time>2010-05-30T08:10:22Z</time>
      </trkpt>
      <trkpt lat="45.67073" lon="3.36449">
        <ele>577.8896484375</ele>
        <time>2010-05-30T08:10:27Z</time>
      </trkpt>
      <trkpt lat="45.67077" lon="3.36436">
        <ele>575.96704101562</ele>
        <time>2010-05-30T08:10:31Z</time>
      </trkpt>
      <trkpt lat="45.67081" lon="3.36434">
        <ele>575.005859375</ele>
        <time>2010-05-30T08:10:33Z</time>
      </trkpt>
      <trkpt lat="45.67096" lon="3.36434">
        <ele>574.04443359375</ele>
        <time>2010-05-30T08:10:38Z</time>
      </trkpt>
      <trkpt lat="45.67115" lon="3.36442">
        <ele>573.08325195312</ele>
        <time>2010-05-30T08:10:43Z</time>
      </trkpt>
      <trkpt lat="45.67126" lon="3.36452">
        <ele>574.04443359375</ele>
        <time>2010-05-30T08:10:47Z</time>
      </trkpt>
      <trkpt lat="45.67144" lon="3.36464">
        <ele>574.04443359375</ele>
        <time>2010-05-30T08:10:52Z</time>
      </trkpt>
      <trkpt lat="45.67153" lon="3.36466">
        <ele>573.56396484375</ele>
        <time>2010-05-30T08:10:54Z</time>
      </trkpt>
      <trkpt lat="45.67173" lon="3.36463">
        <ele>571.64086914062</ele>
        <time>2010-05-30T08:10:58Z</time>
      </trkpt>
      <trkpt lat="45.67186" lon="3.36453">
        <ele>569.71850585938</ele>
        <time>2010-05-30T08:11:02Z</time>
      </trkpt>
      <trkpt lat="45.67188" lon="3.36451">
        <ele>568.2763671875</ele>
        <time>2010-05-30T08:11:03Z</time>
      </trkpt>
      <trkpt lat="45.67199" lon="3.36446">
        <ele>567.31518554688</ele>
        <time>2010-05-30T08:11:08Z</time>
      </trkpt>
      <trkpt lat="45.67218" lon="3.36453">
        <ele>565.392578125</ele>
        <time>2010-05-30T08:11:13Z</time>
      </trkpt>
      <trkpt lat="45.67232" lon="3.36454">
        <ele>565.87329101562</ele>
        <time>2010-05-30T08:11:17Z</time>
      </trkpt>
      <trkpt lat="45.67235" lon="3.3645">
        <ele>565.87329101562</ele>
        <time>2010-05-30T08:11:22Z</time>
      </trkpt>
      <trkpt lat="45.67235" lon="3.3645">
        <ele>565.87329101562</ele>
        <time>2010-05-30T08:11:23Z</time>
      </trkpt>
      <trkpt lat="45.67234" lon="3.36443">
        <ele>566.35375976562</ele>
        <time>2010-05-30T08:11:28Z</time>
      </trkpt>
      <trkpt lat="45.67236" lon="3.36437">
        <ele>566.83447265625</ele>
        <time>2010-05-30T08:11:32Z</time>
      </trkpt>
      <trkpt lat="45.67239" lon="3.3643">
        <ele>566.83447265625</ele>
        <time>2010-05-30T08:11:38Z</time>
      </trkpt>
      <trkpt lat="45.67243" lon="3.36422">
        <ele>566.35375976562</ele>
        <time>2010-05-30T08:11:42Z</time>
      </trkpt>
      <trkpt lat="45.67254" lon="3.36412">
        <ele>566.83447265625</ele>
        <time>2010-05-30T08:11:48Z</time>
      </trkpt>
      <trkpt lat="45.67255" lon="3.36411">
        <ele>566.35375976562</ele>
        <time>2010-05-30T08:11:49Z</time>
      </trkpt>
      <trkpt lat="45.67266" lon="3.36406">
        <ele>563.46997070312</ele>
        <time>2010-05-30T08:11:54Z</time>
      </trkpt>
      <trkpt lat="45.67279" lon="3.36409">
        <ele>562.50854492188</ele>
        <time>2010-05-30T08:11:58Z</time>
      </trkpt>
      <trkpt lat="45.67296" lon="3.36411">
        <ele>562.02807617188</ele>
        <time>2010-05-30T08:12:03Z</time>
      </trkpt>
      <trkpt lat="45.67312" lon="3.364">
        <ele>560.5859375</ele>
        <time>2010-05-30T08:12:08Z</time>
      </trkpt>
      <trkpt lat="45.67315" lon="3.36395">
        <ele>560.5859375</ele>
        <time>2010-05-30T08:12:09Z</time>
      </trkpt>
      <trkpt lat="45.67329" lon="3.36377">
        <ele>559.14404296875</ele>
        <time>2010-05-30T08:12:13Z</time>
      </trkpt>
      <trkpt lat="45.67334" lon="3.36363">
        <ele>557.22143554688</ele>
        <time>2010-05-30T08:12:17Z</time>
      </trkpt>
      <trkpt lat="45.67336" lon="3.36354">
        <ele>556.26000976562</ele>
        <time>2010-05-30T08:12:19Z</time>
      </trkpt>
      <trkpt lat="45.67347" lon="3.3634">
        <ele>556.26000976562</ele>
        <time>2010-05-30T08:12:23Z</time>
      </trkpt>
      <trkpt lat="45.67363" lon="3.36319">
        <ele>556.74072265625</ele>
        <time>2010-05-30T08:12:29Z</time>
      </trkpt>
      <trkpt lat="45.67374" lon="3.363">
        <ele>557.22143554688</ele>
        <time>2010-05-30T08:12:34Z</time>
      </trkpt>
      <trkpt lat="45.67385" lon="3.36281">
        <ele>557.7021484375</ele>
        <time>2010-05-30T08:12:39Z</time>
      </trkpt>
      <trkpt lat="45.67392" lon="3.36255">
        <ele>558.66333007812</ele>
        <time>2010-05-30T08:12:44Z</time>
      </trkpt>
      <trkpt lat="45.67397" lon="3.36239">
        <ele>560.10522460938</ele>
        <time>2010-05-30T08:12:48Z</time>
      </trkpt>
      <trkpt lat="45.67409" lon="3.36237">
        <ele>560.10522460938</ele>
        <time>2010-05-30T08:12:52Z</time>
      </trkpt>
      <trkpt lat="45.67427" lon="3.36233">
        <ele>560.10522460938</ele>
        <time>2010-05-30T08:12:57Z</time>
      </trkpt>
      <trkpt lat="45.67443" lon="3.3623">
        <ele>559.62475585938</ele>
        <time>2010-05-30T08:13:01Z</time>
      </trkpt>
      <trkpt lat="45.67456" lon="3.36226">
        <ele>558.18286132812</ele>
        <time>2010-05-30T08:13:04Z</time>
      </trkpt>
      <trkpt lat="45.6747" lon="3.36223">
        <ele>556.74072265625</ele>
        <time>2010-05-30T08:13:07Z</time>
      </trkpt>
      <trkpt lat="45.67496" lon="3.36213">
        <ele>555.29858398438</ele>
        <time>2010-05-30T08:13:12Z</time>
      </trkpt>
      <trkpt lat="45.67511" lon="3.36213">
        <ele>553.85668945312</ele>
        <time>2010-05-30T08:13:14Z</time>
      </trkpt>
      <trkpt lat="45.67533" lon="3.36216">
        <ele>552.41455078125</ele>
        <time>2010-05-30T08:13:18Z</time>
      </trkpt>
      <trkpt lat="45.67549" lon="3.36219">
        <ele>552.41455078125</ele>
        <time>2010-05-30T08:13:23Z</time>
      </trkpt>
      <trkpt lat="45.67557" lon="3.36224">
        <ele>552.89526367188</ele>
        <time>2010-05-30T08:13:26Z</time>
      </trkpt>
      <trkpt lat="45.67575" lon="3.36231">
        <ele>552.89526367188</ele>
        <time>2010-05-30T08:13:31Z</time>
      </trkpt>
      <trkpt lat="45.6759" lon="3.36235">
        <ele>553.3759765625</ele>
        <time>2010-05-30T08:13:35Z</time>
      </trkpt>
      <trkpt lat="45.67608" lon="3.36233">
        <ele>552.89526367188</ele>
        <time>2010-05-30T08:13:42Z</time>
      </trkpt>
      <trkpt lat="45.6761" lon="3.36232">
        <ele>553.3759765625</ele>
        <time>2010-05-30T08:13:43Z</time>
      </trkpt>
      <trkpt lat="45.6763" lon="3.36233">
        <ele>553.3759765625</ele>
        <time>2010-05-30T08:13:48Z</time>
      </trkpt>
      <trkpt lat="45.67642" lon="3.36232">
        <ele>553.3759765625</ele>
        <time>2010-05-30T08:13:52Z</time>
      </trkpt>
      <trkpt lat="45.67657" lon="3.3623">
        <ele>553.3759765625</ele>
        <time>2010-05-30T08:13:56Z</time>
      </trkpt>
      <trkpt lat="45.67679" lon="3.3623">
        <ele>553.85668945312</ele>
        <time>2010-05-30T08:14:01Z</time>
      </trkpt>
      <trkpt lat="45.67684" lon="3.3623">
        <ele>553.85668945312</ele>
        <time>2010-05-30T08:14:02Z</time>
      </trkpt>
      <trkpt lat="45.67703" lon="3.36243">
        <ele>553.3759765625</ele>
        <time>2010-05-30T08:14:06Z</time>
      </trkpt>
      <trkpt lat="45.67718" lon="3.36248">
        <ele>552.41455078125</ele>
        <time>2010-05-30T08:14:09Z</time>
      </trkpt>
      <trkpt lat="45.67727" lon="3.36238">
        <ele>551.93408203125</ele>
        <time>2010-05-30T08:14:12Z</time>
      </trkpt>
      <trkpt lat="45.67723" lon="3.36231">
        <ele>550.97265625</ele>
        <time>2010-05-30T08:14:15Z</time>
      </trkpt>
      <trkpt lat="45.67721" lon="3.36237">
        <ele>552.89526367188</ele>
        <time>2010-05-30T08:14:21Z</time>
      </trkpt>
      <trkpt lat="45.67719" lon="3.36239">
        <ele>552.89526367188</ele>
        <time>2010-05-30T08:14:30Z</time>
      </trkpt>
      <trkpt lat="45.67724" lon="3.36241">
        <ele>552.89526367188</ele>
        <time>2010-05-30T08:14:45Z</time>
      </trkpt>
      <trkpt lat="45.67726" lon="3.36242">
        <ele>552.89526367188</ele>
        <time>2010-05-30T08:14:58Z</time>
      </trkpt>
      <trkpt lat="45.67727" lon="3.36242">
        <ele>553.3759765625</ele>
        <time>2010-05-30T08:15:00Z</time>
      </trkpt>
      <trkpt lat="45.67732" lon="3.36235">
        <ele>553.85668945312</ele>
        <time>2010-05-30T08:15:06Z</time>
      </trkpt>
      <trkpt lat="45.67733" lon="3.36234">
        <ele>553.3759765625</ele>
        <time>2010-05-30T08:15:07Z</time>
      </trkpt>
      <trkpt lat="45.67744" lon="3.36227">
        <ele>554.81787109375</ele>
        <time>2010-05-30T08:15:13Z</time>
      </trkpt>
      <trkpt lat="45.67752" lon="3.36222">
        <ele>556.26000976562</ele>
        <time>2010-05-30T08:15:17Z</time>
      </trkpt>
      <trkpt lat="45.67757" lon="3.36217">
        <ele>557.22143554688</ele>
        <time>2010-05-30T08:15:20Z</time>
      </trkpt>
      <trkpt lat="45.67759" lon="3.36211">
        <ele>557.22143554688</ele>
        <time>2010-05-30T08:15:22Z</time>
      </trkpt>
      <trkpt lat="45.67764" lon="3.36196">
        <ele>558.66333007812</ele>
        <time>2010-05-30T08:15:27Z</time>
      </trkpt>
      <trkpt lat="45.67767" lon="3.36191">
        <ele>558.66333007812</ele>
        <time>2010-05-30T08:15:29Z</time>
      </trkpt>
      <trkpt lat="45.67775" lon="3.36176">
        <ele>560.10522460938</ele>
        <time>2010-05-30T08:15:35Z</time>
      </trkpt>
      <trkpt lat="45.67783" lon="3.36163">
        <ele>561.54736328125</ele>
        <time>2010-05-30T08:15:41Z</time>
      </trkpt>
      <trkpt lat="45.67796" lon="3.36152">
        <ele>562.50854492188</ele>
        <time>2010-05-30T08:15:48Z</time>
      </trkpt>
      <trkpt lat="45.67815" lon="3.36148">
        <ele>562.9892578125</ele>
        <time>2010-05-30T08:15:54Z</time>
      </trkpt>
      <trkpt lat="45.67833" lon="3.36146">
        <ele>561.54736328125</ele>
        <time>2010-05-30T08:15:58Z</time>
      </trkpt>
      <trkpt lat="45.67842" lon="3.36142">
        <ele>560.5859375</ele>
        <time>2010-05-30T08:16:00Z</time>
      </trkpt>
      <trkpt lat="45.67859" lon="3.36139">
        <ele>561.06665039062</ele>
        <time>2010-05-30T08:16:04Z</time>
      </trkpt>
      <trkpt lat="45.67886" lon="3.3613">
        <ele>561.06665039062</ele>
        <time>2010-05-30T08:16:10Z</time>
      </trkpt>
      <trkpt lat="45.67917" lon="3.36131">
        <ele>560.10522460938</ele>
        <time>2010-05-30T08:16:16Z</time>
      </trkpt>
      <trkpt lat="45.67923" lon="3.3613">
        <ele>560.10522460938</ele>
        <time>2010-05-30T08:16:17Z</time>
      </trkpt>
      <trkpt lat="45.67954" lon="3.36126">
        <ele>560.10522460938</ele>
        <time>2010-05-30T08:16:23Z</time>
      </trkpt>
      <trkpt lat="45.67971" lon="3.3612">
        <ele>561.06665039062</ele>
        <time>2010-05-30T08:16:28Z</time>
      </trkpt>
      <trkpt lat="45.67976" lon="3.36119">
        <ele>561.54736328125</ele>
        <time>2010-05-30T08:16:30Z</time>
      </trkpt>
      <trkpt lat="45.67986" lon="3.36117">
        <ele>563.46997070312</ele>
        <time>2010-05-30T08:16:34Z</time>
      </trkpt>
      <trkpt lat="45.68005" lon="3.36116">
        <ele>565.87329101562</ele>
        <time>2010-05-30T08:16:41Z</time>
      </trkpt>
      <trkpt lat="45.68016" lon="3.36114">
        <ele>567.31518554688</ele>
        <time>2010-05-30T08:16:46Z</time>
      </trkpt>
      <trkpt lat="45.68023" lon="3.36113">
        <ele>569.23779296875</ele>
        <time>2010-05-30T08:16:50Z</time>
      </trkpt>
      <trkpt lat="45.68032" lon="3.36117">
        <ele>570.6796875</ele>
        <time>2010-05-30T08:16:55Z</time>
      </trkpt>
      <trkpt lat="45.68042" lon="3.36117">
        <ele>570.6796875</ele>
        <time>2010-05-30T08:17:00Z</time>
      </trkpt>
      <trkpt lat="45.68053" lon="3.36117">
        <ele>571.64086914062</ele>
        <time>2010-05-30T08:17:05Z</time>
      </trkpt>
      <trkpt lat="45.68069" lon="3.3611">
        <ele>573.56396484375</ele>
        <time>2010-05-30T08:17:14Z</time>
      </trkpt>
      <trkpt lat="45.68081" lon="3.36099">
        <ele>575.486328125</ele>
        <time>2010-05-30T08:17:21Z</time>
      </trkpt>
      <trkpt lat="45.68089" lon="3.36083">
        <ele>577.8896484375</ele>
        <time>2010-05-30T08:17:29Z</time>
      </trkpt>
      <trkpt lat="45.68097" lon="3.36058">
        <ele>578.37036132812</ele>
        <time>2010-05-30T08:17:37Z</time>
      </trkpt>
      <trkpt lat="45.68098" lon="3.36053">
        <ele>577.4091796875</ele>
        <time>2010-05-30T08:17:38Z</time>
      </trkpt>
      <trkpt lat="45.68113" lon="3.36025">
        <ele>575.005859375</ele>
        <time>2010-05-30T08:17:43Z</time>
      </trkpt>
      <trkpt lat="45.68127" lon="3.3601">
        <ele>572.6025390625</ele>
        <time>2010-05-30T08:17:46Z</time>
      </trkpt>
      <trkpt lat="45.68138" lon="3.36">
        <ele>572.6025390625</ele>
        <time>2010-05-30T08:17:48Z</time>
      </trkpt>
      <trkpt lat="45.68155" lon="3.3599">
        <ele>571.16040039062</ele>
        <time>2010-05-30T08:17:51Z</time>
      </trkpt>
      <trkpt lat="45.68171" lon="3.35984">
        <ele>569.71850585938</ele>
        <time>2010-05-30T08:17:54Z</time>
      </trkpt>
      <trkpt lat="45.6819" lon="3.3599">
        <ele>567.31518554688</ele>
        <time>2010-05-30T08:17:58Z</time>
      </trkpt>
      <trkpt lat="45.68196" lon="3.35993">
        <ele>567.31518554688</ele>
        <time>2010-05-30T08:17:59Z</time>
      </trkpt>
      <trkpt lat="45.68219" lon="3.36008">
        <ele>566.35375976562</ele>
        <time>2010-05-30T08:18:03Z</time>
      </trkpt>
      <trkpt lat="45.68237" lon="3.36039">
        <ele>565.392578125</ele>
        <time>2010-05-30T08:18:08Z</time>
      </trkpt>
      <trkpt lat="45.6824" lon="3.36047">
        <ele>565.392578125</ele>
        <time>2010-05-30T08:18:09Z</time>
      </trkpt>
      <trkpt lat="45.6825" lon="3.361">
        <ele>566.35375976562</ele>
        <time>2010-05-30T08:18:16Z</time>
      </trkpt>
      <trkpt lat="45.68254" lon="3.36132">
        <ele>565.87329101562</ele>
        <time>2010-05-30T08:18:20Z</time>
      </trkpt>
      <trkpt lat="45.68258" lon="3.36148">
        <ele>565.392578125</ele>
        <time>2010-05-30T08:18:22Z</time>
      </trkpt>
      <trkpt lat="45.68279" lon="3.36189">
        <ele>565.87329101562</ele>
        <time>2010-05-30T08:18:28Z</time>
      </trkpt>
      <trkpt lat="45.68291" lon="3.36223">
        <ele>566.83447265625</ele>
        <time>2010-05-30T08:18:33Z</time>
      </trkpt>
      <trkpt lat="45.68299" lon="3.36242">
        <ele>567.31518554688</ele>
        <time>2010-05-30T08:18:37Z</time>
      </trkpt>
      <trkpt lat="45.68311" lon="3.36236">
        <ele>565.87329101562</ele>
        <time>2010-05-30T08:18:41Z</time>
      </trkpt>
      <trkpt lat="45.6834" lon="3.36198">
        <ele>564.43115234375</ele>
        <time>2010-05-30T08:18:48Z</time>
      </trkpt>
      <trkpt lat="45.68365" lon="3.36173">
        <ele>562.9892578125</ele>
        <time>2010-05-30T08:18:53Z</time>
      </trkpt>
      <trkpt lat="45.68377" lon="3.36164">
        <ele>562.50854492188</ele>
        <time>2010-05-30T08:18:55Z</time>
      </trkpt>
      <trkpt lat="45.68383" lon="3.3616">
        <ele>560.5859375</ele>
        <time>2010-05-30T08:18:56Z</time>
      </trkpt>
      <trkpt lat="45.68415" lon="3.36143">
        <ele>558.66333007812</ele>
        <time>2010-05-30T08:19:01Z</time>
      </trkpt>
      <trkpt lat="45.6843" lon="3.36138">
        <ele>556.74072265625</ele>
        <time>2010-05-30T08:19:03Z</time>
      </trkpt>
      <trkpt lat="45.68449" lon="3.36132">
        <ele>553.3759765625</ele>
        <time>2010-05-30T08:19:06Z</time>
      </trkpt>
      <trkpt lat="45.6846" lon="3.36128">
        <ele>552.89526367188</ele>
        <time>2010-05-30T08:19:08Z</time>
      </trkpt>
      <trkpt lat="45.68487" lon="3.36124">
        <ele>547.60815429688</ele>
        <time>2010-05-30T08:19:13Z</time>
      </trkpt>
      <trkpt lat="45.6851" lon="3.3612">
        <ele>543.28210449219</ele>
        <time>2010-05-30T08:19:17Z</time>
      </trkpt>
      <trkpt lat="45.68523" lon="3.36119">
        <ele>539.91760253906</ele>
        <time>2010-05-30T08:19:20Z</time>
      </trkpt>
      <trkpt lat="45.68536" lon="3.36118">
        <ele>536.55310058594</ele>
        <time>2010-05-30T08:19:23Z</time>
      </trkpt>
      <trkpt lat="45.68555" lon="3.36118">
        <ele>532.70776367188</ele>
        <time>2010-05-30T08:19:27Z</time>
      </trkpt>
      <trkpt lat="45.68571" lon="3.36122">
        <ele>528.86254882812</ele>
        <time>2010-05-30T08:19:30Z</time>
      </trkpt>
      <trkpt lat="45.68576" lon="3.36122">
        <ele>528.3818359375</ele>
        <time>2010-05-30T08:19:31Z</time>
      </trkpt>
      <trkpt lat="45.68595" lon="3.36122">
        <ele>525.97839355469</ele>
        <time>2010-05-30T08:19:34Z</time>
      </trkpt>
      <trkpt lat="45.68613" lon="3.36125">
        <ele>524.05578613281</ele>
        <time>2010-05-30T08:19:37Z</time>
      </trkpt>
      <trkpt lat="45.68647" lon="3.36115">
        <ele>523.09460449219</ele>
        <time>2010-05-30T08:19:42Z</time>
      </trkpt>
      <trkpt lat="45.68653" lon="3.3611">
        <ele>523.09460449219</ele>
        <time>2010-05-30T08:19:43Z</time>
      </trkpt>
      <trkpt lat="45.68666" lon="3.36101">
        <ele>523.09460449219</ele>
        <time>2010-05-30T08:19:45Z</time>
      </trkpt>
      <trkpt lat="45.6868" lon="3.36098">
        <ele>523.5751953125</ele>
        <time>2010-05-30T08:19:47Z</time>
      </trkpt>
      <trkpt lat="45.68699" lon="3.36107">
        <ele>523.5751953125</ele>
        <time>2010-05-30T08:19:50Z</time>
      </trkpt>
      <trkpt lat="45.68734" lon="3.36137">
        <ele>523.09460449219</ele>
        <time>2010-05-30T08:19:56Z</time>
      </trkpt>
      <trkpt lat="45.68759" lon="3.36143">
        <ele>523.5751953125</ele>
        <time>2010-05-30T08:20:00Z</time>
      </trkpt>
      <trkpt lat="45.68772" lon="3.36129">
        <ele>525.01721191406</ele>
        <time>2010-05-30T08:20:03Z</time>
      </trkpt>
      <trkpt lat="45.68776" lon="3.3612">
        <ele>526.45910644531</ele>
        <time>2010-05-30T08:20:05Z</time>
      </trkpt>
      <trkpt lat="45.6878" lon="3.36107">
        <ele>527.42041015625</ele>
        <time>2010-05-30T08:20:08Z</time>
      </trkpt>
      <trkpt lat="45.68782" lon="3.36103">
        <ele>528.3818359375</ele>
        <time>2010-05-30T08:20:09Z</time>
      </trkpt>
      <trkpt lat="45.68786" lon="3.36092">
        <ele>529.34313964844</ele>
        <time>2010-05-30T08:20:12Z</time>
      </trkpt>
      <trkpt lat="45.68792" lon="3.36072">
        <ele>532.70776367188</ele>
        <time>2010-05-30T08:20:18Z</time>
      </trkpt>
      <trkpt lat="45.68798" lon="3.36058">
        <ele>533.6689453125</ele>
        <time>2010-05-30T08:20:22Z</time>
      </trkpt>
      <trkpt lat="45.68805" lon="3.36041">
        <ele>535.11096191406</ele>
        <time>2010-05-30T08:20:27Z</time>
      </trkpt>
      <trkpt lat="45.68808" lon="3.36035">
        <ele>535.59155273438</ele>
        <time>2010-05-30T08:20:29Z</time>
      </trkpt>
      <trkpt lat="45.68811" lon="3.36029">
        <ele>536.55310058594</ele>
        <time>2010-05-30T08:20:31Z</time>
      </trkpt>
      <trkpt lat="45.68827" lon="3.36015">
        <ele>537.99499511719</ele>
        <time>2010-05-30T08:20:38Z</time>
      </trkpt>
      <trkpt lat="45.68849" lon="3.36006">
        <ele>539.43688964844</ele>
        <time>2010-05-30T08:20:47Z</time>
      </trkpt>
      <trkpt lat="45.68853" lon="3.35995">
        <ele>540.39831542969</ele>
        <time>2010-05-30T08:20:51Z</time>
      </trkpt>
      <trkpt lat="45.68852" lon="3.35991">
        <ele>539.91760253906</ele>
        <time>2010-05-30T08:20:52Z</time>
      </trkpt>
      <trkpt lat="45.6884" lon="3.35954">
        <ele>538.47570800781</ele>
        <time>2010-05-30T08:20:59Z</time>
      </trkpt>
      <trkpt lat="45.68831" lon="3.35928">
        <ele>537.03369140625</ele>
        <time>2010-05-30T08:21:03Z</time>
      </trkpt>
      <trkpt lat="45.68824" lon="3.35898">
        <ele>535.59155273438</ele>
        <time>2010-05-30T08:21:07Z</time>
      </trkpt>
      <trkpt lat="45.68818" lon="3.35872">
        <ele>533.6689453125</ele>
        <time>2010-05-30T08:21:10Z</time>
      </trkpt>
      <trkpt lat="45.68816" lon="3.35862">
        <ele>534.14965820312</ele>
        <time>2010-05-30T08:21:11Z</time>
      </trkpt>
      <trkpt lat="45.68807" lon="3.35824">
        <ele>532.70776367188</ele>
        <time>2010-05-30T08:21:15Z</time>
      </trkpt>
      <trkpt lat="45.68805" lon="3.35815">
        <ele>533.18835449219</ele>
        <time>2010-05-30T08:21:16Z</time>
      </trkpt>
      <trkpt lat="45.68803" lon="3.35807">
        <ele>532.70776367188</ele>
        <time>2010-05-30T08:21:17Z</time>
      </trkpt>
      <trkpt lat="45.68794" lon="3.35784">
        <ele>533.18835449219</ele>
        <time>2010-05-30T08:21:20Z</time>
      </trkpt>
      <trkpt lat="45.68779" lon="3.35758">
        <ele>531.74633789062</ele>
        <time>2010-05-30T08:21:24Z</time>
      </trkpt>
      <trkpt lat="45.6877" lon="3.35746">
        <ele>531.74633789062</ele>
        <time>2010-05-30T08:21:26Z</time>
      </trkpt>
      <trkpt lat="45.68754" lon="3.35728">
        <ele>529.82373046875</ele>
        <time>2010-05-30T08:21:29Z</time>
      </trkpt>
      <trkpt lat="45.68748" lon="3.35722">
        <ele>530.30444335938</ele>
        <time>2010-05-30T08:21:30Z</time>
      </trkpt>
      <trkpt lat="45.6873" lon="3.35704">
        <ele>527.90100097656</ele>
        <time>2010-05-30T08:21:33Z</time>
      </trkpt>
      <trkpt lat="45.68724" lon="3.35698">
        <ele>527.90100097656</ele>
        <time>2010-05-30T08:21:34Z</time>
      </trkpt>
      <trkpt lat="45.68689" lon="3.35672">
        <ele>527.42041015625</ele>
        <time>2010-05-30T08:21:40Z</time>
      </trkpt>
      <trkpt lat="45.68644" lon="3.35645">
        <ele>527.90100097656</ele>
        <time>2010-05-30T08:21:48Z</time>
      </trkpt>
      <trkpt lat="45.68593" lon="3.35615">
        <ele>527.42041015625</ele>
        <time>2010-05-30T08:21:57Z</time>
      </trkpt>
      <trkpt lat="45.68571" lon="3.35601">
        <ele>527.90100097656</ele>
        <time>2010-05-30T08:22:01Z</time>
      </trkpt>
      <trkpt lat="45.6856" lon="3.35574">
        <ele>528.3818359375</ele>
        <time>2010-05-30T08:22:05Z</time>
      </trkpt>
      <trkpt lat="45.68559" lon="3.35566">
        <ele>528.3818359375</ele>
        <time>2010-05-30T08:22:06Z</time>
      </trkpt>
      <trkpt lat="45.68559" lon="3.35534">
        <ele>529.34313964844</ele>
        <time>2010-05-30T08:22:10Z</time>
      </trkpt>
      <trkpt lat="45.68557" lon="3.355">
        <ele>528.86254882812</ele>
        <time>2010-05-30T08:22:14Z</time>
      </trkpt>
      <trkpt lat="45.68555" lon="3.35491">
        <ele>528.86254882812</ele>
        <time>2010-05-30T08:22:15Z</time>
      </trkpt>
      <trkpt lat="45.68553" lon="3.35474">
        <ele>527.42041015625</ele>
        <time>2010-05-30T08:22:17Z</time>
      </trkpt>
      <trkpt lat="45.68547" lon="3.35431">
        <ele>525.49780273438</ele>
        <time>2010-05-30T08:22:22Z</time>
      </trkpt>
      <trkpt lat="45.68545" lon="3.35423">
        <ele>525.49780273438</ele>
        <time>2010-05-30T08:22:23Z</time>
      </trkpt>
      <trkpt lat="45.68554" lon="3.35403">
        <ele>521.65258789062</ele>
        <time>2010-05-30T08:22:27Z</time>
      </trkpt>
      <trkpt lat="45.68567" lon="3.35398">
        <ele>520.69128417969</ele>
        <time>2010-05-30T08:22:29Z</time>
      </trkpt>
      <trkpt lat="45.68614" lon="3.35371">
        <ele>516.84594726562</ele>
        <time>2010-05-30T08:22:35Z</time>
      </trkpt>
      <trkpt lat="45.68637" lon="3.35356">
        <ele>514.92333984375</ele>
        <time>2010-05-30T08:22:38Z</time>
      </trkpt>
      <trkpt lat="45.68643" lon="3.35351">
        <ele>513.4814453125</ele>
        <time>2010-05-30T08:22:40Z</time>
      </trkpt>
      <trkpt lat="45.68644" lon="3.35353">
        <ele>513.96203613281</ele>
        <time>2010-05-30T08:22:44Z</time>
      </trkpt>
      <trkpt lat="45.68632" lon="3.35359">
        <ele>514.44262695312</ele>
        <time>2010-05-30T08:22:51Z</time>
      </trkpt>
      <trkpt lat="45.68629" lon="3.3536">
        <ele>514.92333984375</ele>
        <time>2010-05-30T08:22:52Z</time>
      </trkpt>
      <trkpt lat="45.68627" lon="3.35349">
        <ele>513.4814453125</ele>
        <time>2010-05-30T08:22:56Z</time>
      </trkpt>
      <trkpt lat="45.68627" lon="3.35343">
        <ele>513.00073242188</ele>
        <time>2010-05-30T08:22:57Z</time>
      </trkpt>
      <trkpt lat="45.68628" lon="3.35337">
        <ele>511.55871582031</ele>
        <time>2010-05-30T08:22:58Z</time>
      </trkpt>
      <trkpt lat="45.68633" lon="3.35297">
        <ele>507.23278808594</ele>
        <time>2010-05-30T08:23:04Z</time>
      </trkpt>
      <trkpt lat="45.68633" lon="3.35286">
        <ele>506.75207519531</ele>
        <time>2010-05-30T08:23:06Z</time>
      </trkpt>
      <trkpt lat="45.68634" lon="3.35274">
        <ele>505.79089355469</ele>
        <time>2010-05-30T08:23:08Z</time>
      </trkpt>
      <trkpt lat="45.68637" lon="3.35247">
        <ele>502.42614746094</ele>
        <time>2010-05-30T08:23:12Z</time>
      </trkpt>
      <trkpt lat="45.68641" lon="3.35226">
        <ele>499.54223632812</ele>
        <time>2010-05-30T08:23:16Z</time>
      </trkpt>
      <trkpt lat="45.68641" lon="3.35223">
        <ele>499.54223632812</ele>
        <time>2010-05-30T08:23:17Z</time>
      </trkpt>
      <trkpt lat="45.68642" lon="3.35204">
        <ele>498.10034179688</ele>
        <time>2010-05-30T08:23:22Z</time>
      </trkpt>
      <trkpt lat="45.68643" lon="3.35195">
        <ele>497.13891601562</ele>
        <time>2010-05-30T08:23:24Z</time>
      </trkpt>
      <trkpt lat="45.68646" lon="3.35164">
        <ele>493.77429199219</ele>
        <time>2010-05-30T08:23:29Z</time>
      </trkpt>
      <trkpt lat="45.68648" lon="3.3515">
        <ele>491.37097167969</ele>
        <time>2010-05-30T08:23:31Z</time>
      </trkpt>
      <trkpt lat="45.68653" lon="3.35104">
        <ele>487.52563476562</ele>
        <time>2010-05-30T08:23:37Z</time>
      </trkpt>
      <trkpt lat="45.68656" lon="3.35087">
        <ele>484.64184570312</ele>
        <time>2010-05-30T08:23:39Z</time>
      </trkpt>
      <trkpt lat="45.6866" lon="3.35063">
        <ele>482.23852539062</ele>
        <time>2010-05-30T08:23:42Z</time>
      </trkpt>
      <trkpt lat="45.68656" lon="3.35016">
        <ele>478.39318847656</ele>
        <time>2010-05-30T08:23:47Z</time>
      </trkpt>
      <trkpt lat="45.68652" lon="3.34988">
        <ele>474.06726074219</ele>
        <time>2010-05-30T08:23:50Z</time>
      </trkpt>
      <trkpt lat="45.68648" lon="3.34958">
        <ele>470.22192382812</ele>
        <time>2010-05-30T08:23:54Z</time>
      </trkpt>
      <trkpt lat="45.68648" lon="3.34954">
        <ele>469.74133300781</ele>
        <time>2010-05-30T08:23:55Z</time>
      </trkpt>
      <trkpt lat="45.6865" lon="3.34941">
        <ele>469.74133300781</ele>
        <time>2010-05-30T08:23:58Z</time>
      </trkpt>
      <trkpt lat="45.68656" lon="3.34918">
        <ele>468.29931640625</ele>
        <time>2010-05-30T08:24:01Z</time>
      </trkpt>
      <trkpt lat="45.68665" lon="3.34891">
        <ele>466.37670898438</ele>
        <time>2010-05-30T08:24:04Z</time>
      </trkpt>
      <trkpt lat="45.6867" lon="3.34872">
        <ele>465.89611816406</ele>
        <time>2010-05-30T08:24:06Z</time>
      </trkpt>
      <trkpt lat="45.68676" lon="3.34857">
        <ele>464.93481445312</ele>
        <time>2010-05-30T08:24:08Z</time>
      </trkpt>
      <trkpt lat="45.68693" lon="3.34807">
        <ele>461.57019042969</ele>
        <time>2010-05-30T08:24:14Z</time>
      </trkpt>
      <trkpt lat="45.68695" lon="3.34799">
        <ele>460.60876464844</ele>
        <time>2010-05-30T08:24:15Z</time>
      </trkpt>
      <trkpt lat="45.68695" lon="3.34777">
        <ele>456.28295898438</ele>
        <time>2010-05-30T08:24:19Z</time>
      </trkpt>
      <trkpt lat="45.68694" lon="3.34774">
        <ele>455.80224609375</ele>
        <time>2010-05-30T08:24:20Z</time>
      </trkpt>
      <trkpt lat="45.68686" lon="3.34765">
        <ele>452.91821289062</ele>
        <time>2010-05-30T08:24:23Z</time>
      </trkpt>
      <trkpt lat="45.68671" lon="3.34757">
        <ele>450.99560546875</ele>
        <time>2010-05-30T08:24:26Z</time>
      </trkpt>
      <trkpt lat="45.68655" lon="3.34749">
        <ele>448.59240722656</ele>
        <time>2010-05-30T08:24:30Z</time>
      </trkpt>
      <trkpt lat="45.68658" lon="3.34738">
        <ele>448.59240722656</ele>
        <time>2010-05-30T08:24:33Z</time>
      </trkpt>
      <trkpt lat="45.68662" lon="3.34737">
        <ele>449.07299804688</ele>
        <time>2010-05-30T08:24:34Z</time>
      </trkpt>
      <trkpt lat="45.68671" lon="3.34735">
        <ele>448.59240722656</ele>
        <time>2010-05-30T08:24:36Z</time>
      </trkpt>
      <trkpt lat="45.68695" lon="3.34717">
        <ele>447.63098144531</ele>
        <time>2010-05-30T08:24:41Z</time>
      </trkpt>
      <trkpt lat="45.68708" lon="3.34687">
        <ele>447.15026855469</ele>
        <time>2010-05-30T08:24:45Z</time>
      </trkpt>
      <trkpt lat="45.6872" lon="3.34652">
        <ele>446.18908691406</ele>
        <time>2010-05-30T08:24:50Z</time>
      </trkpt>
      <trkpt lat="45.68724" lon="3.34642">
        <ele>447.63098144531</ele>
        <time>2010-05-30T08:24:52Z</time>
      </trkpt>
      <trkpt lat="45.68723" lon="3.34634">
        <ele>448.59240722656</ele>
        <time>2010-05-30T08:24:54Z</time>
      </trkpt>
      <trkpt lat="45.68717" lon="3.34631">
        <ele>449.07299804688</ele>
        <time>2010-05-30T08:24:56Z</time>
      </trkpt>
      <trkpt lat="45.68694" lon="3.34624">
        <ele>450.51501464844</ele>
        <time>2010-05-30T08:25:04Z</time>
      </trkpt>
      <trkpt lat="45.68684" lon="3.34625">
        <ele>450.51501464844</ele>
        <time>2010-05-30T08:25:11Z</time>
      </trkpt>
      <trkpt lat="45.68682" lon="3.34618">
        <ele>451.47631835938</ele>
        <time>2010-05-30T08:25:15Z</time>
      </trkpt>
      <trkpt lat="45.68682" lon="3.34609">
        <ele>451.95703125</ele>
        <time>2010-05-30T08:25:19Z</time>
      </trkpt>
      <trkpt lat="45.68679" lon="3.34601">
        <ele>453.87963867188</ele>
        <time>2010-05-30T08:25:24Z</time>
      </trkpt>
      <trkpt lat="45.68672" lon="3.34594">
        <ele>456.28295898438</ele>
        <time>2010-05-30T08:25:31Z</time>
      </trkpt>
      <trkpt lat="45.68665" lon="3.34592">
        <ele>457.24426269531</ele>
        <time>2010-05-30T08:25:37Z</time>
      </trkpt>
      <trkpt lat="45.68659" lon="3.34588">
        <ele>459.16687011719</ele>
        <time>2010-05-30T08:25:42Z</time>
      </trkpt>
      <trkpt lat="45.6865" lon="3.34581">
        <ele>460.12817382812</ele>
        <time>2010-05-30T08:25:49Z</time>
      </trkpt>
      <trkpt lat="45.68637" lon="3.34572">
        <ele>460.60876464844</ele>
        <time>2010-05-30T08:25:57Z</time>
      </trkpt>
      <trkpt lat="45.68628" lon="3.34566">
        <ele>462.53137207031</ele>
        <time>2010-05-30T08:26:04Z</time>
      </trkpt>
      <trkpt lat="45.68621" lon="3.34563">
        <ele>463.01208496094</ele>
        <time>2010-05-30T08:26:10Z</time>
      </trkpt>
      <trkpt lat="45.68604" lon="3.34555">
        <ele>465.41552734375</ele>
        <time>2010-05-30T08:26:20Z</time>
      </trkpt>
      <trkpt lat="45.68591" lon="3.34547">
        <ele>466.857421875</ele>
        <time>2010-05-30T08:26:28Z</time>
      </trkpt>
      <trkpt lat="45.68586" lon="3.34544">
        <ele>468.29931640625</ele>
        <time>2010-05-30T08:26:31Z</time>
      </trkpt>
      <trkpt lat="45.68576" lon="3.34536">
        <ele>469.74133300781</ele>
        <time>2010-05-30T08:26:38Z</time>
      </trkpt>
      <trkpt lat="45.68563" lon="3.34526">
        <ele>471.18334960938</ele>
        <time>2010-05-30T08:26:47Z</time>
      </trkpt>
      <trkpt lat="45.68554" lon="3.34519">
        <ele>473.58666992188</ele>
        <time>2010-05-30T08:26:54Z</time>
      </trkpt>
      <trkpt lat="45.68544" lon="3.34514">
        <ele>475.02868652344</ele>
        <time>2010-05-30T08:27:01Z</time>
      </trkpt>
      <trkpt lat="45.68531" lon="3.34506">
        <ele>477.43188476562</ele>
        <time>2010-05-30T08:27:10Z</time>
      </trkpt>
      <trkpt lat="45.68521" lon="3.345">
        <ele>477.91247558594</ele>
        <time>2010-05-30T08:27:18Z</time>
      </trkpt>
      <trkpt lat="45.6851" lon="3.34495">
        <ele>479.83508300781</ele>
        <time>2010-05-30T08:27:25Z</time>
      </trkpt>
      <trkpt lat="45.68499" lon="3.34489">
        <ele>481.27722167969</ele>
        <time>2010-05-30T08:27:32Z</time>
      </trkpt>
      <trkpt lat="45.68481" lon="3.34484">
        <ele>483.19982910156</ele>
        <time>2010-05-30T08:27:42Z</time>
      </trkpt>
      <trkpt lat="45.68464" lon="3.34481">
        <ele>485.60302734375</ele>
        <time>2010-05-30T08:27:51Z</time>
      </trkpt>
      <trkpt lat="45.68447" lon="3.34476">
        <ele>487.52563476562</ele>
        <time>2010-05-30T08:28:00Z</time>
      </trkpt>
      <trkpt lat="45.68431" lon="3.34471">
        <ele>488.00646972656</ele>
        <time>2010-05-30T08:28:08Z</time>
      </trkpt>
      <trkpt lat="45.68427" lon="3.3447">
        <ele>488.48718261719</ele>
        <time>2010-05-30T08:28:10Z</time>
      </trkpt>
      <trkpt lat="45.6841" lon="3.34462">
        <ele>490.40979003906</ele>
        <time>2010-05-30T08:28:19Z</time>
      </trkpt>
      <trkpt lat="45.68388" lon="3.34453">
        <ele>492.33239746094</ele>
        <time>2010-05-30T08:28:30Z</time>
      </trkpt>
      <trkpt lat="45.68371" lon="3.34447">
        <ele>493.77429199219</ele>
        <time>2010-05-30T08:28:39Z</time>
      </trkpt>
      <trkpt lat="45.68355" lon="3.34441">
        <ele>495.21618652344</ele>
        <time>2010-05-30T08:28:47Z</time>
      </trkpt>
      <trkpt lat="45.68345" lon="3.34433">
        <ele>495.69689941406</ele>
        <time>2010-05-30T08:28:53Z</time>
      </trkpt>
      <trkpt lat="45.68345" lon="3.3442">
        <ele>497.13891601562</ele>
        <time>2010-05-30T08:28:59Z</time>
      </trkpt>
      <trkpt lat="45.6835" lon="3.34399">
        <ele>500.02294921875</ele>
        <time>2010-05-30T08:29:09Z</time>
      </trkpt>
      <trkpt lat="45.68351" lon="3.34394">
        <ele>500.50354003906</ele>
        <time>2010-05-30T08:29:11Z</time>
      </trkpt>
      <trkpt lat="45.68356" lon="3.34371">
        <ele>501.94555664062</ele>
        <time>2010-05-30T08:29:19Z</time>
      </trkpt>
      <trkpt lat="45.68364" lon="3.34337">
        <ele>502.90673828125</ele>
        <time>2010-05-30T08:29:30Z</time>
      </trkpt>
      <trkpt lat="45.6837" lon="3.34309">
        <ele>503.8681640625</ele>
        <time>2010-05-30T08:29:39Z</time>
      </trkpt>
      <trkpt lat="45.68376" lon="3.34285">
        <ele>504.82946777344</ele>
        <time>2010-05-30T08:29:47Z</time>
      </trkpt>
      <trkpt lat="45.68383" lon="3.34258">
        <ele>506.75207519531</ele>
        <time>2010-05-30T08:29:58Z</time>
      </trkpt>
      <trkpt lat="45.68388" lon="3.34236">
        <ele>510.11669921875</ele>
        <time>2010-05-30T08:30:08Z</time>
      </trkpt>
      <trkpt lat="45.68391" lon="3.34224">
        <ele>511.55871582031</ele>
        <time>2010-05-30T08:30:14Z</time>
      </trkpt>
      <trkpt lat="45.68395" lon="3.34204">
        <ele>513.96203613281</ele>
        <time>2010-05-30T08:30:24Z</time>
      </trkpt>
      <trkpt lat="45.68396" lon="3.34202">
        <ele>514.44262695312</ele>
        <time>2010-05-30T08:30:25Z</time>
      </trkpt>
      <trkpt lat="45.68397" lon="3.34195">
        <ele>515.40405273438</ele>
        <time>2010-05-30T08:30:29Z</time>
      </trkpt>
      <trkpt lat="45.68401" lon="3.3418">
        <ele>517.32666015625</ele>
        <time>2010-05-30T08:30:37Z</time>
      </trkpt>
      <trkpt lat="45.68405" lon="3.34163">
        <ele>518.7685546875</ele>
        <time>2010-05-30T08:30:46Z</time>
      </trkpt>
      <trkpt lat="45.68409" lon="3.34143">
        <ele>521.17199707031</ele>
        <time>2010-05-30T08:30:56Z</time>
      </trkpt>
      <trkpt lat="45.68414" lon="3.34122">
        <ele>523.5751953125</ele>
        <time>2010-05-30T08:31:07Z</time>
      </trkpt>
      <trkpt lat="45.68418" lon="3.34104">
        <ele>525.49780273438</ele>
        <time>2010-05-30T08:31:16Z</time>
      </trkpt>
      <trkpt lat="45.68423" lon="3.34079">
        <ele>527.42041015625</ele>
        <time>2010-05-30T08:31:26Z</time>
      </trkpt>
      <trkpt lat="45.68427" lon="3.34055">
        <ele>528.3818359375</ele>
        <time>2010-05-30T08:31:34Z</time>
      </trkpt>
      <trkpt lat="45.68422" lon="3.34042">
        <ele>529.34313964844</ele>
        <time>2010-05-30T08:31:39Z</time>
      </trkpt>
      <trkpt lat="45.68419" lon="3.34023">
        <ele>529.82373046875</ele>
        <time>2010-05-30T08:31:45Z</time>
      </trkpt>
      <trkpt lat="45.68416" lon="3.33984">
        <ele>530.30444335938</ele>
        <time>2010-05-30T08:31:55Z</time>
      </trkpt>
      <trkpt lat="45.68412" lon="3.33946">
        <ele>530.78515625</ele>
        <time>2010-05-30T08:32:04Z</time>
      </trkpt>
      <trkpt lat="45.68408" lon="3.3391">
        <ele>531.74633789062</ele>
        <time>2010-05-30T08:32:13Z</time>
      </trkpt>
      <trkpt lat="45.68402" lon="3.33873">
        <ele>532.70776367188</ele>
        <time>2010-05-30T08:32:23Z</time>
      </trkpt>
      <trkpt lat="45.68401" lon="3.33842">
        <ele>532.70776367188</ele>
        <time>2010-05-30T08:32:30Z</time>
      </trkpt>
      <trkpt lat="45.68404" lon="3.33824">
        <ele>532.70776367188</ele>
        <time>2010-05-30T08:32:34Z</time>
      </trkpt>
      <trkpt lat="45.68404" lon="3.33807">
        <ele>533.18835449219</ele>
        <time>2010-05-30T08:32:38Z</time>
      </trkpt>
      <trkpt lat="45.68401" lon="3.33782">
        <ele>533.6689453125</ele>
        <time>2010-05-30T08:32:44Z</time>
      </trkpt>
      <trkpt lat="45.68397" lon="3.33766">
        <ele>534.63037109375</ele>
        <time>2010-05-30T08:32:49Z</time>
      </trkpt>
      <trkpt lat="45.68393" lon="3.33751">
        <ele>535.11096191406</ele>
        <time>2010-05-30T08:32:54Z</time>
      </trkpt>
      <trkpt lat="45.68393" lon="3.33727">
        <ele>535.59155273438</ele>
        <time>2010-05-30T08:33:01Z</time>
      </trkpt>
      <trkpt lat="45.684" lon="3.33708">
        <ele>535.59155273438</ele>
        <time>2010-05-30T08:33:06Z</time>
      </trkpt>
      <trkpt lat="45.68412" lon="3.33694">
        <ele>535.11096191406</ele>
        <time>2010-05-30T08:33:11Z</time>
      </trkpt>
      <trkpt lat="45.68428" lon="3.33681">
        <ele>534.14965820312</ele>
        <time>2010-05-30T08:33:16Z</time>
      </trkpt>
      <trkpt lat="45.6844" lon="3.33666">
        <ele>533.18835449219</ele>
        <time>2010-05-30T08:33:20Z</time>
      </trkpt>
      <trkpt lat="45.68448" lon="3.33647">
        <ele>533.18835449219</ele>
        <time>2010-05-30T08:33:23Z</time>
      </trkpt>
      <trkpt lat="45.68454" lon="3.33604">
        <ele>533.18835449219</ele>
        <time>2010-05-30T08:33:30Z</time>
      </trkpt>
      <trkpt lat="45.68454" lon="3.33574">
        <ele>533.6689453125</ele>
        <time>2010-05-30T08:33:35Z</time>
      </trkpt>
      <trkpt lat="45.68455" lon="3.3355">
        <ele>533.6689453125</ele>
        <time>2010-05-30T08:33:40Z</time>
      </trkpt>
      <trkpt lat="45.68457" lon="3.33523">
        <ele>535.59155273438</ele>
        <time>2010-05-30T08:33:46Z</time>
      </trkpt>
      <trkpt lat="45.68461" lon="3.3349">
        <ele>537.03369140625</ele>
        <time>2010-05-30T08:33:55Z</time>
      </trkpt>
      <trkpt lat="45.68464" lon="3.33465">
        <ele>538.47570800781</ele>
        <time>2010-05-30T08:34:02Z</time>
      </trkpt>
      <trkpt lat="45.68464" lon="3.33436">
        <ele>540.39831542969</ele>
        <time>2010-05-30T08:34:09Z</time>
      </trkpt>
      <trkpt lat="45.6846" lon="3.33405">
        <ele>541.35949707031</ele>
        <time>2010-05-30T08:34:16Z</time>
      </trkpt>
      <trkpt lat="45.68453" lon="3.33372">
        <ele>542.32092285156</ele>
        <time>2010-05-30T08:34:24Z</time>
      </trkpt>
      <trkpt lat="45.68437" lon="3.33342">
        <ele>542.80151367188</ele>
        <time>2010-05-30T08:34:32Z</time>
      </trkpt>
      <trkpt lat="45.68422" lon="3.33304">
        <ele>544.24365234375</ele>
        <time>2010-05-30T08:34:42Z</time>
      </trkpt>
      <trkpt lat="45.68425" lon="3.33274">
        <ele>544.72424316406</ele>
        <time>2010-05-30T08:34:48Z</time>
      </trkpt>
      <trkpt lat="45.68431" lon="3.33225">
        <ele>545.20483398438</ele>
        <time>2010-05-30T08:34:56Z</time>
      </trkpt>
      <trkpt lat="45.68435" lon="3.33199">
        <ele>544.72424316406</ele>
        <time>2010-05-30T08:35:00Z</time>
      </trkpt>
      <trkpt lat="45.68438" lon="3.33147">
        <ele>544.72424316406</ele>
        <time>2010-05-30T08:35:07Z</time>
      </trkpt>
      <trkpt lat="45.68435" lon="3.33102">
        <ele>544.72424316406</ele>
        <time>2010-05-30T08:35:13Z</time>
      </trkpt>
      <trkpt lat="45.68428" lon="3.33051">
        <ele>544.24365234375</ele>
        <time>2010-05-30T08:35:20Z</time>
      </trkpt>
      <trkpt lat="45.68423" lon="3.33032">
        <ele>543.76281738281</ele>
        <time>2010-05-30T08:35:23Z</time>
      </trkpt>
      <trkpt lat="45.68417" lon="3.3301">
        <ele>543.28210449219</ele>
        <time>2010-05-30T08:35:27Z</time>
      </trkpt>
      <trkpt lat="45.68428" lon="3.32996">
        <ele>541.84020996094</ele>
        <time>2010-05-30T08:35:31Z</time>
      </trkpt>
      <trkpt lat="45.68439" lon="3.3299">
        <ele>539.91760253906</ele>
        <time>2010-05-30T08:35:33Z</time>
      </trkpt>
      <trkpt lat="45.68468" lon="3.32988">
        <ele>537.51428222656</ele>
        <time>2010-05-30T08:35:37Z</time>
      </trkpt>
      <trkpt lat="45.68481" lon="3.32995">
        <ele>536.55310058594</ele>
        <time>2010-05-30T08:35:39Z</time>
      </trkpt>
      <trkpt lat="45.685" lon="3.33004">
        <ele>534.63037109375</ele>
        <time>2010-05-30T08:35:42Z</time>
      </trkpt>
      <trkpt lat="45.68507" lon="3.33005">
        <ele>534.14965820312</ele>
        <time>2010-05-30T08:35:43Z</time>
      </trkpt>
      <trkpt lat="45.68513" lon="3.33006">
        <ele>534.14965820312</ele>
        <time>2010-05-30T08:35:44Z</time>
      </trkpt>
      <trkpt lat="45.68544" lon="3.32996">
        <ele>533.18835449219</ele>
        <time>2010-05-30T08:35:49Z</time>
      </trkpt>
      <trkpt lat="45.68565" lon="3.32976">
        <ele>531.74633789062</ele>
        <time>2010-05-30T08:35:53Z</time>
      </trkpt>
      <trkpt lat="45.68584" lon="3.32949">
        <ele>530.30444335938</ele>
        <time>2010-05-30T08:35:57Z</time>
      </trkpt>
      <trkpt lat="45.68587" lon="3.32941">
        <ele>529.82373046875</ele>
        <time>2010-05-30T08:35:58Z</time>
      </trkpt>
      <trkpt lat="45.6861" lon="3.3292">
        <ele>526.45910644531</ele>
        <time>2010-05-30T08:36:02Z</time>
      </trkpt>
      <trkpt lat="45.68657" lon="3.32899">
        <ele>523.09460449219</ele>
        <time>2010-05-30T08:36:08Z</time>
      </trkpt>
      <trkpt lat="45.68689" lon="3.32882">
        <ele>521.17199707031</ele>
        <time>2010-05-30T08:36:12Z</time>
      </trkpt>
      <trkpt lat="45.68705" lon="3.32877">
        <ele>520.69128417969</ele>
        <time>2010-05-30T08:36:14Z</time>
      </trkpt>
      <trkpt lat="45.68721" lon="3.32879">
        <ele>519.24926757812</ele>
        <time>2010-05-30T08:36:16Z</time>
      </trkpt>
      <trkpt lat="45.68763" lon="3.3289">
        <ele>515.40405273438</ele>
        <time>2010-05-30T08:36:21Z</time>
      </trkpt>
      <trkpt lat="45.68782" lon="3.32896">
        <ele>513.96203613281</ele>
        <time>2010-05-30T08:36:23Z</time>
      </trkpt>
      <trkpt lat="45.68803" lon="3.32903">
        <ele>512.03942871094</ele>
        <time>2010-05-30T08:36:25Z</time>
      </trkpt>
      <trkpt lat="45.68824" lon="3.32908">
        <ele>510.11669921875</ele>
        <time>2010-05-30T08:36:27Z</time>
      </trkpt>
      <trkpt lat="45.68856" lon="3.32918">
        <ele>507.23278808594</ele>
        <time>2010-05-30T08:36:30Z</time>
      </trkpt>
      <trkpt lat="45.6889" lon="3.32926">
        <ele>503.8681640625</ele>
        <time>2010-05-30T08:36:33Z</time>
      </trkpt>
      <trkpt lat="45.68924" lon="3.32935">
        <ele>500.98413085938</ele>
        <time>2010-05-30T08:36:36Z</time>
      </trkpt>
      <trkpt lat="45.68947" lon="3.32942">
        <ele>499.54223632812</ele>
        <time>2010-05-30T08:36:38Z</time>
      </trkpt>
      <trkpt lat="45.68976" lon="3.32954">
        <ele>496.177734375</ele>
        <time>2010-05-30T08:36:41Z</time>
      </trkpt>
      <trkpt lat="45.68994" lon="3.32961">
        <ele>492.33239746094</ele>
        <time>2010-05-30T08:36:44Z</time>
      </trkpt>
      <trkpt lat="45.69013" lon="3.32955">
        <ele>491.85168457031</ele>
        <time>2010-05-30T08:36:48Z</time>
      </trkpt>
      <trkpt lat="45.69024" lon="3.32946">
        <ele>490.89038085938</ele>
        <time>2010-05-30T08:36:50Z</time>
      </trkpt>
      <trkpt lat="45.69051" lon="3.32938">
        <ele>487.52563476562</ele>
        <time>2010-05-30T08:36:54Z</time>
      </trkpt>
      <trkpt lat="45.69067" lon="3.32941">
        <ele>487.04504394531</ele>
        <time>2010-05-30T08:36:56Z</time>
      </trkpt>
      <trkpt lat="45.69089" lon="3.32946">
        <ele>484.64184570312</ele>
        <time>2010-05-30T08:36:59Z</time>
      </trkpt>
      <trkpt lat="45.69109" lon="3.32951">
        <ele>482.23852539062</ele>
        <time>2010-05-30T08:37:02Z</time>
      </trkpt>
      <trkpt lat="45.69124" lon="3.32952">
        <ele>481.27722167969</ele>
        <time>2010-05-30T08:37:04Z</time>
      </trkpt>
      <trkpt lat="45.6915" lon="3.32949">
        <ele>479.3544921875</ele>
        <time>2010-05-30T08:37:07Z</time>
      </trkpt>
      <trkpt lat="45.69176" lon="3.32941">
        <ele>474.06726074219</ele>
        <time>2010-05-30T08:37:10Z</time>
      </trkpt>
      <trkpt lat="45.69191" lon="3.3294">
        <ele>472.14465332031</ele>
        <time>2010-05-30T08:37:12Z</time>
      </trkpt>
      <trkpt lat="45.69208" lon="3.32943">
        <ele>470.70263671875</ele>
        <time>2010-05-30T08:37:15Z</time>
      </trkpt>
      <trkpt lat="45.69225" lon="3.32936">
        <ele>469.2607421875</ele>
        <time>2010-05-30T08:37:19Z</time>
      </trkpt>
      <trkpt lat="45.69229" lon="3.32929">
        <ele>468.78002929688</ele>
        <time>2010-05-30T08:37:20Z</time>
      </trkpt>
      <trkpt lat="45.69259" lon="3.3287">
        <ele>467.33813476562</ele>
        <time>2010-05-30T08:37:28Z</time>
      </trkpt>
      <trkpt lat="45.69268" lon="3.32833">
        <ele>467.33813476562</ele>
        <time>2010-05-30T08:37:33Z</time>
      </trkpt>
      <trkpt lat="45.69278" lon="3.3277">
        <ele>466.37670898438</ele>
        <time>2010-05-30T08:37:42Z</time>
      </trkpt>
      <trkpt lat="45.69274" lon="3.32716">
        <ele>465.89611816406</ele>
        <time>2010-05-30T08:37:50Z</time>
      </trkpt>
      <trkpt lat="45.69273" lon="3.32695">
        <ele>465.89611816406</ele>
        <time>2010-05-30T08:37:53Z</time>
      </trkpt>
      <trkpt lat="45.69283" lon="3.32655">
        <ele>465.89611816406</ele>
        <time>2010-05-30T08:37:59Z</time>
      </trkpt>
      <trkpt lat="45.69287" lon="3.32649">
        <ele>465.41552734375</ele>
        <time>2010-05-30T08:38:00Z</time>
      </trkpt>
      <trkpt lat="45.693" lon="3.3263">
        <ele>465.41552734375</ele>
        <time>2010-05-30T08:38:04Z</time>
      </trkpt>
      <trkpt lat="45.69312" lon="3.32612">
        <ele>465.89611816406</ele>
        <time>2010-05-30T08:38:08Z</time>
      </trkpt>
      <trkpt lat="45.69315" lon="3.32607">
        <ele>466.37670898438</ele>
        <time>2010-05-30T08:38:09Z</time>
      </trkpt>
      <trkpt lat="45.69323" lon="3.32594">
        <ele>466.857421875</ele>
        <time>2010-05-30T08:38:12Z</time>
      </trkpt>
      <trkpt lat="45.69331" lon="3.32581">
        <ele>467.81872558594</ele>
        <time>2010-05-30T08:38:15Z</time>
      </trkpt>
      <trkpt lat="45.69339" lon="3.32569">
        <ele>468.29931640625</ele>
        <time>2010-05-30T08:38:18Z</time>
      </trkpt>
      <trkpt lat="45.69345" lon="3.32558">
        <ele>469.2607421875</ele>
        <time>2010-05-30T08:38:21Z</time>
      </trkpt>
      <trkpt lat="45.69361" lon="3.32532">
        <ele>470.22192382812</ele>
        <time>2010-05-30T08:38:28Z</time>
      </trkpt>
      <trkpt lat="45.69376" lon="3.32501">
        <ele>472.14465332031</ele>
        <time>2010-05-30T08:38:35Z</time>
      </trkpt>
      <trkpt lat="45.69378" lon="3.32497">
        <ele>472.14465332031</ele>
        <time>2010-05-30T08:38:36Z</time>
      </trkpt>
      <trkpt lat="45.69393" lon="3.32462">
        <ele>475.50927734375</ele>
        <time>2010-05-30T08:38:44Z</time>
      </trkpt>
      <trkpt lat="45.69408" lon="3.32425">
        <ele>476.95129394531</ele>
        <time>2010-05-30T08:38:52Z</time>
      </trkpt>
      <trkpt lat="45.69425" lon="3.3238">
        <ele>479.3544921875</ele>
        <time>2010-05-30T08:39:02Z</time>
      </trkpt>
      <trkpt lat="45.6943" lon="3.32345">
        <ele>481.27722167969</ele>
        <time>2010-05-30T08:39:09Z</time>
      </trkpt>
      <trkpt lat="45.69426" lon="3.32299">
        <ele>484.64184570312</ele>
        <time>2010-05-30T08:39:18Z</time>
      </trkpt>
      <trkpt lat="45.69425" lon="3.32289">
        <ele>485.12243652344</ele>
        <time>2010-05-30T08:39:20Z</time>
      </trkpt>
      <trkpt lat="45.69417" lon="3.32233">
        <ele>487.52563476562</ele>
        <time>2010-05-30T08:39:31Z</time>
      </trkpt>
      <trkpt lat="45.69411" lon="3.32188">
        <ele>489.44836425781</ele>
        <time>2010-05-30T08:39:40Z</time>
      </trkpt>
      <trkpt lat="45.69402" lon="3.32149">
        <ele>491.85168457031</ele>
        <time>2010-05-30T08:39:48Z</time>
      </trkpt>
      <trkpt lat="45.69388" lon="3.32123">
        <ele>493.77429199219</ele>
        <time>2010-05-30T08:39:55Z</time>
      </trkpt>
      <trkpt lat="45.69378" lon="3.32092">
        <ele>494.25500488281</ele>
        <time>2010-05-30T08:40:02Z</time>
      </trkpt>
      <trkpt lat="45.69372" lon="3.32061">
        <ele>491.37097167969</ele>
        <time>2010-05-30T08:40:08Z</time>
      </trkpt>
      <trkpt lat="45.6937" lon="3.32049">
        <ele>492.33239746094</ele>
        <time>2010-05-30T08:40:10Z</time>
      </trkpt>
      <trkpt lat="45.69366" lon="3.32027">
        <ele>491.85168457031</ele>
        <time>2010-05-30T08:40:14Z</time>
      </trkpt>
      <trkpt lat="45.69363" lon="3.31989">
        <ele>488.48718261719</ele>
        <time>2010-05-30T08:40:19Z</time>
      </trkpt>
      <trkpt lat="45.69364" lon="3.3198">
        <ele>488.9677734375</ele>
        <time>2010-05-30T08:40:20Z</time>
      </trkpt>
      <trkpt lat="45.69364" lon="3.31936">
        <ele>484.1611328125</ele>
        <time>2010-05-30T08:40:24Z</time>
      </trkpt>
      <trkpt lat="45.69361" lon="3.31898">
        <ele>482.23852539062</ele>
        <time>2010-05-30T08:40:27Z</time>
      </trkpt>
      <trkpt lat="45.69357" lon="3.31859">
        <ele>478.87390136719</ele>
        <time>2010-05-30T08:40:30Z</time>
      </trkpt>
      <trkpt lat="45.69356" lon="3.31846">
        <ele>478.87390136719</ele>
        <time>2010-05-30T08:40:31Z</time>
      </trkpt>
      <trkpt lat="45.69355" lon="3.31833">
        <ele>477.91247558594</ele>
        <time>2010-05-30T08:40:32Z</time>
      </trkpt>
      <trkpt lat="45.69354" lon="3.31819">
        <ele>477.43188476562</ele>
        <time>2010-05-30T08:40:33Z</time>
      </trkpt>
      <trkpt lat="45.69352" lon="3.31776">
        <ele>475.98986816406</ele>
        <time>2010-05-30T08:40:36Z</time>
      </trkpt>
      <trkpt lat="45.69347" lon="3.31734">
        <ele>471.18334960938</ele>
        <time>2010-05-30T08:40:39Z</time>
      </trkpt>
      <trkpt lat="45.69342" lon="3.31699">
        <ele>468.78002929688</ele>
        <time>2010-05-30T08:40:42Z</time>
      </trkpt>
      <trkpt lat="45.69341" lon="3.31631">
        <ele>463.49279785156</ele>
        <time>2010-05-30T08:40:47Z</time>
      </trkpt>
      <trkpt lat="45.69342" lon="3.31615">
        <ele>463.49279785156</ele>
        <time>2010-05-30T08:40:48Z</time>
      </trkpt>
      <trkpt lat="45.69346" lon="3.31584">
        <ele>461.08947753906</ele>
        <time>2010-05-30T08:40:50Z</time>
      </trkpt>
      <trkpt lat="45.69356" lon="3.31538">
        <ele>456.76354980469</ele>
        <time>2010-05-30T08:40:53Z</time>
      </trkpt>
      <trkpt lat="45.69363" lon="3.31503">
        <ele>453.39892578125</ele>
        <time>2010-05-30T08:40:56Z</time>
      </trkpt>
      <trkpt lat="45.69361" lon="3.31484">
        <ele>452.43762207031</ele>
        <time>2010-05-30T08:40:58Z</time>
      </trkpt>
      <trkpt lat="45.69355" lon="3.31467">
        <ele>451.95703125</ele>
        <time>2010-05-30T08:41:00Z</time>
      </trkpt>
      <trkpt lat="45.69346" lon="3.31416">
        <ele>450.51501464844</ele>
        <time>2010-05-30T08:41:05Z</time>
      </trkpt>
      <trkpt lat="45.69346" lon="3.31394">
        <ele>449.07299804688</ele>
        <time>2010-05-30T08:41:07Z</time>
      </trkpt>
      <trkpt lat="45.69348" lon="3.31353">
        <ele>450.03442382812</ele>
        <time>2010-05-30T08:41:11Z</time>
      </trkpt>
      <trkpt lat="45.69349" lon="3.31318">
        <ele>449.5537109375</ele>
        <time>2010-05-30T08:41:15Z</time>
      </trkpt>
      <trkpt lat="45.69349" lon="3.31311">
        <ele>449.5537109375</ele>
        <time>2010-05-30T08:41:16Z</time>
      </trkpt>
      <trkpt lat="45.6935" lon="3.3129">
        <ele>449.5537109375</ele>
        <time>2010-05-30T08:41:19Z</time>
      </trkpt>
      <trkpt lat="45.69345" lon="3.31264">
        <ele>450.99560546875</ele>
        <time>2010-05-30T08:41:23Z</time>
      </trkpt>
      <trkpt lat="45.69337" lon="3.31232">
        <ele>451.95703125</ele>
        <time>2010-05-30T08:41:28Z</time>
      </trkpt>
      <trkpt lat="45.69333" lon="3.31218">
        <ele>451.95703125</ele>
        <time>2010-05-30T08:41:30Z</time>
      </trkpt>
      <trkpt lat="45.69331" lon="3.31211">
        <ele>452.43762207031</ele>
        <time>2010-05-30T08:41:31Z</time>
      </trkpt>
      <trkpt lat="45.69322" lon="3.31169">
        <ele>452.91821289062</ele>
        <time>2010-05-30T08:41:37Z</time>
      </trkpt>
      <trkpt lat="45.69316" lon="3.31141">
        <ele>452.91821289062</ele>
        <time>2010-05-30T08:41:41Z</time>
      </trkpt>
      <trkpt lat="45.69298" lon="3.31083">
        <ele>453.39892578125</ele>
        <time>2010-05-30T08:41:50Z</time>
      </trkpt>
      <trkpt lat="45.69289" lon="3.31063">
        <ele>454.8408203125</ele>
        <time>2010-05-30T08:41:54Z</time>
      </trkpt>
      <trkpt lat="45.69282" lon="3.31035">
        <ele>456.28295898438</ele>
        <time>2010-05-30T08:41:59Z</time>
      </trkpt>
      <trkpt lat="45.69277" lon="3.31011">
        <ele>457.24426269531</ele>
        <time>2010-05-30T08:42:03Z</time>
      </trkpt>
      <trkpt lat="45.69263" lon="3.30975">
        <ele>458.20556640625</ele>
        <time>2010-05-30T08:42:10Z</time>
      </trkpt>
      <trkpt lat="45.69249" lon="3.30941">
        <ele>458.20556640625</ele>
        <time>2010-05-30T08:42:17Z</time>
      </trkpt>
      <trkpt lat="45.69235" lon="3.30929">
        <ele>458.68615722656</ele>
        <time>2010-05-30T08:42:21Z</time>
      </trkpt>
      <trkpt lat="45.692" lon="3.30923">
        <ele>461.08947753906</ele>
        <time>2010-05-30T08:42:31Z</time>
      </trkpt>
      <trkpt lat="45.69177" lon="3.3092">
        <ele>462.53137207031</ele>
        <time>2010-05-30T08:42:39Z</time>
      </trkpt>
      <trkpt lat="45.69152" lon="3.30916">
        <ele>465.89611816406</ele>
        <time>2010-05-30T08:42:48Z</time>
      </trkpt>
      <trkpt lat="45.69149" lon="3.30915">
        <ele>465.89611816406</ele>
        <time>2010-05-30T08:42:49Z</time>
      </trkpt>
      <trkpt lat="45.6913" lon="3.30911">
        <ele>467.81872558594</ele>
        <time>2010-05-30T08:42:57Z</time>
      </trkpt>
      <trkpt lat="45.69111" lon="3.30906">
        <ele>469.2607421875</ele>
        <time>2010-05-30T08:43:06Z</time>
      </trkpt>
      <trkpt lat="45.69093" lon="3.30903">
        <ele>471.18334960938</ele>
        <time>2010-05-30T08:43:15Z</time>
      </trkpt>
      <trkpt lat="45.69077" lon="3.30902">
        <ele>474.06726074219</ele>
        <time>2010-05-30T08:43:23Z</time>
      </trkpt>
      <trkpt lat="45.69056" lon="3.30901">
        <ele>476.47058105469</ele>
        <time>2010-05-30T08:43:33Z</time>
      </trkpt>
      <trkpt lat="45.6903" lon="3.309">
        <ele>478.87390136719</ele>
        <time>2010-05-30T08:43:45Z</time>
      </trkpt>
      <trkpt lat="45.69007" lon="3.30901">
        <ele>480.31591796875</ele>
        <time>2010-05-30T08:43:55Z</time>
      </trkpt>
      <trkpt lat="45.68983" lon="3.30902">
        <ele>481.27722167969</ele>
        <time>2010-05-30T08:44:05Z</time>
      </trkpt>
      <trkpt lat="45.68958" lon="3.30905">
        <ele>484.1611328125</ele>
        <time>2010-05-30T08:44:15Z</time>
      </trkpt>
      <trkpt lat="45.68933" lon="3.30904">
        <ele>485.60302734375</ele>
        <time>2010-05-30T08:44:25Z</time>
      </trkpt>
      <trkpt lat="45.68908" lon="3.30903">
        <ele>487.04504394531</ele>
        <time>2010-05-30T08:44:35Z</time>
      </trkpt>
      <trkpt lat="45.68889" lon="3.309">
        <ele>488.9677734375</ele>
        <time>2010-05-30T08:44:43Z</time>
      </trkpt>
      <trkpt lat="45.68871" lon="3.30896">
        <ele>489.92907714844</ele>
        <time>2010-05-30T08:44:51Z</time>
      </trkpt>
      <trkpt lat="45.68856" lon="3.30895">
        <ele>491.37097167969</ele>
        <time>2010-05-30T08:44:57Z</time>
      </trkpt>
      <trkpt lat="45.68835" lon="3.30891">
        <ele>493.29357910156</ele>
        <time>2010-05-30T08:45:05Z</time>
      </trkpt>
      <trkpt lat="45.68827" lon="3.30873">
        <ele>495.69689941406</ele>
        <time>2010-05-30T08:45:11Z</time>
      </trkpt>
      <trkpt lat="45.68815" lon="3.30843">
        <ele>496.177734375</ele>
        <time>2010-05-30T08:45:21Z</time>
      </trkpt>
      <trkpt lat="45.68813" lon="3.30838">
        <ele>496.65832519531</ele>
        <time>2010-05-30T08:45:26Z</time>
      </trkpt>
      <trkpt lat="45.68814" lon="3.30835">
        <ele>496.65832519531</ele>
        <time>2010-05-30T08:45:31Z</time>
      </trkpt>
      <trkpt lat="45.68813" lon="3.30835">
        <ele>497.13891601562</ele>
        <time>2010-05-30T08:45:38Z</time>
      </trkpt>
      <trkpt lat="45.68814" lon="3.30835">
        <ele>496.177734375</ele>
        <time>2010-05-30T08:45:48Z</time>
      </trkpt>
      <trkpt lat="45.68814" lon="3.30836">
        <ele>497.13891601562</ele>
        <time>2010-05-30T08:47:23Z</time>
      </trkpt>
      <trkpt lat="45.68813" lon="3.30836">
        <ele>497.13891601562</ele>
        <time>2010-05-30T08:47:31Z</time>
      </trkpt>
      <trkpt lat="45.6881" lon="3.30836">
        <ele>497.13891601562</ele>
        <time>2010-05-30T08:47:37Z</time>
      </trkpt>
      <trkpt lat="45.6881" lon="3.30836">
        <ele>497.13891601562</ele>
        <time>2010-05-30T08:47:42Z</time>
      </trkpt>
      <trkpt lat="45.6881" lon="3.30836">
        <ele>497.61962890625</ele>
        <time>2010-05-30T08:47:44Z</time>
      </trkpt>
      <trkpt lat="45.6881" lon="3.30836">
        <ele>497.61962890625</ele>
        <time>2010-05-30T08:47:46Z</time>
      </trkpt>
      <trkpt lat="45.6881" lon="3.30836">
        <ele>497.13891601562</ele>
        <time>2010-05-30T08:47:47Z</time>
      </trkpt>
      <trkpt lat="45.68807" lon="3.30831">
        <ele>498.58093261719</ele>
        <time>2010-05-30T08:47:52Z</time>
      </trkpt>
      <trkpt lat="45.688" lon="3.30818">
        <ele>498.58093261719</ele>
        <time>2010-05-30T08:47:59Z</time>
      </trkpt>
      <trkpt lat="45.68794" lon="3.30812">
        <ele>499.54223632812</ele>
        <time>2010-05-30T08:48:03Z</time>
      </trkpt>
      <trkpt lat="45.68789" lon="3.30808">
        <ele>500.98413085938</ele>
        <time>2010-05-30T08:48:06Z</time>
      </trkpt>
      <trkpt lat="45.68782" lon="3.30806">
        <ele>501.46484375</ele>
        <time>2010-05-30T08:48:09Z</time>
      </trkpt>
      <trkpt lat="45.68781" lon="3.30805">
        <ele>501.46484375</ele>
        <time>2010-05-30T08:48:10Z</time>
      </trkpt>
      <trkpt lat="45.68771" lon="3.30803">
        <ele>502.42614746094</ele>
        <time>2010-05-30T08:48:15Z</time>
      </trkpt>
      <trkpt lat="45.6876" lon="3.30802">
        <ele>504.34887695312</ele>
        <time>2010-05-30T08:48:21Z</time>
      </trkpt>
      <trkpt lat="45.68753" lon="3.308">
        <ele>504.82946777344</ele>
        <time>2010-05-30T08:48:25Z</time>
      </trkpt>
      <trkpt lat="45.6874" lon="3.30798">
        <ele>507.23278808594</ele>
        <time>2010-05-30T08:48:32Z</time>
      </trkpt>
      <trkpt lat="45.68737" lon="3.30798">
        <ele>508.19409179688</ele>
        <time>2010-05-30T08:48:34Z</time>
      </trkpt>
      <trkpt lat="45.68722" lon="3.30797">
        <ele>508.67468261719</ele>
        <time>2010-05-30T08:48:42Z</time>
      </trkpt>
      <trkpt lat="45.68706" lon="3.30795">
        <ele>510.11669921875</ele>
        <time>2010-05-30T08:48:51Z</time>
      </trkpt>
      <trkpt lat="45.6869" lon="3.30792">
        <ele>511.55871582031</ele>
        <time>2010-05-30T08:49:00Z</time>
      </trkpt>
      <trkpt lat="45.68673" lon="3.30786">
        <ele>514.44262695312</ele>
        <time>2010-05-30T08:49:09Z</time>
      </trkpt>
      <trkpt lat="45.68668" lon="3.30781">
        <ele>516.365234375</ele>
        <time>2010-05-30T08:49:13Z</time>
      </trkpt>
      <trkpt lat="45.68668" lon="3.30762">
        <ele>516.84594726562</ele>
        <time>2010-05-30T08:49:19Z</time>
      </trkpt>
      <trkpt lat="45.68668" lon="3.30757">
        <ele>516.365234375</ele>
        <time>2010-05-30T08:49:20Z</time>
      </trkpt>
      <trkpt lat="45.68676" lon="3.30716">
        <ele>515.40405273438</ele>
        <time>2010-05-30T08:49:28Z</time>
      </trkpt>
      <trkpt lat="45.68682" lon="3.30679">
        <ele>515.40405273438</ele>
        <time>2010-05-30T08:49:35Z</time>
      </trkpt>
      <trkpt lat="45.6868" lon="3.30661">
        <ele>515.88464355469</ele>
        <time>2010-05-30T08:49:39Z</time>
      </trkpt>
      <trkpt lat="45.68679" lon="3.30658">
        <ele>516.365234375</ele>
        <time>2010-05-30T08:49:40Z</time>
      </trkpt>
      <trkpt lat="45.68668" lon="3.30653">
        <ele>518.7685546875</ele>
        <time>2010-05-30T08:49:46Z</time>
      </trkpt>
      <trkpt lat="45.68666" lon="3.30653">
        <ele>518.7685546875</ele>
        <time>2010-05-30T08:49:47Z</time>
      </trkpt>
      <trkpt lat="45.68653" lon="3.30647">
        <ele>519.72985839844</ele>
        <time>2010-05-30T08:49:54Z</time>
      </trkpt>
      <trkpt lat="45.68639" lon="3.3064">
        <ele>521.65258789062</ele>
        <time>2010-05-30T08:50:01Z</time>
      </trkpt>
      <trkpt lat="45.68632" lon="3.30626">
        <ele>523.5751953125</ele>
        <time>2010-05-30T08:50:06Z</time>
      </trkpt>
      <trkpt lat="45.68629" lon="3.30614">
        <ele>522.13317871094</ele>
        <time>2010-05-30T08:50:09Z</time>
      </trkpt>
      <trkpt lat="45.68625" lon="3.30599">
        <ele>520.69128417969</ele>
        <time>2010-05-30T08:50:11Z</time>
      </trkpt>
      <trkpt lat="45.68624" lon="3.30581">
        <ele>520.21057128906</ele>
        <time>2010-05-30T08:50:13Z</time>
      </trkpt>
      <trkpt lat="45.68629" lon="3.30551">
        <ele>520.21057128906</ele>
        <time>2010-05-30T08:50:16Z</time>
      </trkpt>
      <trkpt lat="45.68639" lon="3.30517">
        <ele>520.21057128906</ele>
        <time>2010-05-30T08:50:21Z</time>
      </trkpt>
      <trkpt lat="45.68642" lon="3.30503">
        <ele>521.65258789062</ele>
        <time>2010-05-30T08:50:26Z</time>
      </trkpt>
      <trkpt lat="45.68642" lon="3.30499">
        <ele>523.09460449219</ele>
        <time>2010-05-30T08:50:28Z</time>
      </trkpt>
      <trkpt lat="45.68645" lon="3.30484">
        <ele>525.49780273438</ele>
        <time>2010-05-30T08:50:35Z</time>
      </trkpt>
      <trkpt lat="45.68649" lon="3.30466">
        <ele>527.90100097656</ele>
        <time>2010-05-30T08:50:44Z</time>
      </trkpt>
      <trkpt lat="45.68654" lon="3.30452">
        <ele>529.34313964844</ele>
        <time>2010-05-30T08:50:51Z</time>
      </trkpt>
      <trkpt lat="45.68654" lon="3.3045">
        <ele>529.82373046875</ele>
        <time>2010-05-30T08:50:52Z</time>
      </trkpt>
      <trkpt lat="45.68656" lon="3.30447">
        <ele>530.30444335938</ele>
        <time>2010-05-30T08:50:54Z</time>
      </trkpt>
      <trkpt lat="45.68656" lon="3.30444">
        <ele>529.82373046875</ele>
        <time>2010-05-30T08:50:56Z</time>
      </trkpt>
      <trkpt lat="45.68667" lon="3.30439">
        <ele>528.86254882812</ele>
        <time>2010-05-30T08:51:01Z</time>
      </trkpt>
      <trkpt lat="45.68679" lon="3.30429">
        <ele>527.90100097656</ele>
        <time>2010-05-30T08:51:04Z</time>
      </trkpt>
      <trkpt lat="45.687" lon="3.30394">
        <ele>526.93981933594</ele>
        <time>2010-05-30T08:51:10Z</time>
      </trkpt>
      <trkpt lat="45.68725" lon="3.30342">
        <ele>526.45910644531</ele>
        <time>2010-05-30T08:51:17Z</time>
      </trkpt>
      <trkpt lat="45.68728" lon="3.30335">
        <ele>525.97839355469</ele>
        <time>2010-05-30T08:51:18Z</time>
      </trkpt>
      <trkpt lat="45.68748" lon="3.30317">
        <ele>524.53649902344</ele>
        <time>2010-05-30T08:51:22Z</time>
      </trkpt>
      <trkpt lat="45.6876" lon="3.30308">
        <ele>522.61389160156</ele>
        <time>2010-05-30T08:51:24Z</time>
      </trkpt>
      <trkpt lat="45.68785" lon="3.303">
        <ele>520.69128417969</ele>
        <time>2010-05-30T08:51:27Z</time>
      </trkpt>
      <trkpt lat="45.68794" lon="3.303">
        <ele>520.21057128906</ele>
        <time>2010-05-30T08:51:28Z</time>
      </trkpt>
      <trkpt lat="45.68824" lon="3.30302">
        <ele>515.88464355469</ele>
        <time>2010-05-30T08:51:31Z</time>
      </trkpt>
      <trkpt lat="45.68834" lon="3.30302">
        <ele>515.88464355469</ele>
        <time>2010-05-30T08:51:32Z</time>
      </trkpt>
      <trkpt lat="45.6886" lon="3.30304">
        <ele>512.52001953125</ele>
        <time>2010-05-30T08:51:35Z</time>
      </trkpt>
      <trkpt lat="45.68871" lon="3.303">
        <ele>511.55871582031</ele>
        <time>2010-05-30T08:51:37Z</time>
      </trkpt>
      <trkpt lat="45.68876" lon="3.30297">
        <ele>511.07800292969</ele>
        <time>2010-05-30T08:51:38Z</time>
      </trkpt>
      <trkpt lat="45.68905" lon="3.30285">
        <ele>508.67468261719</ele>
        <time>2010-05-30T08:51:42Z</time>
      </trkpt>
      <trkpt lat="45.68927" lon="3.30281">
        <ele>505.31018066406</ele>
        <time>2010-05-30T08:51:45Z</time>
      </trkpt>
      <trkpt lat="45.68935" lon="3.30281">
        <ele>505.79089355469</ele>
        <time>2010-05-30T08:51:46Z</time>
      </trkpt>
      <trkpt lat="45.68958" lon="3.30283">
        <ele>501.94555664062</ele>
        <time>2010-05-30T08:51:49Z</time>
      </trkpt>
      <trkpt lat="45.68966" lon="3.30284">
        <ele>501.94555664062</ele>
        <time>2010-05-30T08:51:50Z</time>
      </trkpt>
      <trkpt lat="45.69001" lon="3.30297">
        <ele>497.61962890625</ele>
        <time>2010-05-30T08:51:54Z</time>
      </trkpt>
      <trkpt lat="45.69033" lon="3.30322">
        <ele>496.65832519531</ele>
        <time>2010-05-30T08:51:58Z</time>
      </trkpt>
      <trkpt lat="45.69054" lon="3.30343">
        <ele>495.21618652344</ele>
        <time>2010-05-30T08:52:01Z</time>
      </trkpt>
      <trkpt lat="45.69093" lon="3.3038">
        <ele>493.77429199219</ele>
        <time>2010-05-30T08:52:07Z</time>
      </trkpt>
      <trkpt lat="45.69134" lon="3.30401">
        <ele>490.89038085938</ele>
        <time>2010-05-30T08:52:13Z</time>
      </trkpt>
      <trkpt lat="45.69187" lon="3.3043">
        <ele>488.48718261719</ele>
        <time>2010-05-30T08:52:21Z</time>
      </trkpt>
      <trkpt lat="45.69198" lon="3.30436">
        <ele>487.52563476562</ele>
        <time>2010-05-30T08:52:23Z</time>
      </trkpt>
      <trkpt lat="45.69205" lon="3.30424">
        <ele>486.564453125</ele>
        <time>2010-05-30T08:52:27Z</time>
      </trkpt>
      <trkpt lat="45.69208" lon="3.3042">
        <ele>486.564453125</ele>
        <time>2010-05-30T08:52:28Z</time>
      </trkpt>
      <trkpt lat="45.69224" lon="3.30406">
        <ele>485.12243652344</ele>
        <time>2010-05-30T08:52:32Z</time>
      </trkpt>
      <trkpt lat="45.6924" lon="3.30393">
        <ele>482.71923828125</ele>
        <time>2010-05-30T08:52:35Z</time>
      </trkpt>
      <trkpt lat="45.69246" lon="3.30388">
        <ele>482.23852539062</ele>
        <time>2010-05-30T08:52:36Z</time>
      </trkpt>
      <trkpt lat="45.69271" lon="3.30366">
        <ele>479.3544921875</ele>
        <time>2010-05-30T08:52:40Z</time>
      </trkpt>
      <trkpt lat="45.69285" lon="3.30354">
        <ele>477.91247558594</ele>
        <time>2010-05-30T08:52:42Z</time>
      </trkpt>
      <trkpt lat="45.693" lon="3.30344">
        <ele>475.50927734375</ele>
        <time>2010-05-30T08:52:44Z</time>
      </trkpt>
      <trkpt lat="45.69314" lon="3.30333">
        <ele>475.02868652344</ele>
        <time>2010-05-30T08:52:46Z</time>
      </trkpt>
      <trkpt lat="45.69336" lon="3.30324">
        <ele>471.18334960938</ele>
        <time>2010-05-30T08:52:49Z</time>
      </trkpt>
      <trkpt lat="45.6937" lon="3.30311">
        <ele>470.22192382812</ele>
        <time>2010-05-30T08:52:54Z</time>
      </trkpt>
      <trkpt lat="45.69387" lon="3.30297">
        <ele>470.70263671875</ele>
        <time>2010-05-30T08:52:57Z</time>
      </trkpt>
      <trkpt lat="45.69424" lon="3.30259">
        <ele>470.22192382812</ele>
        <time>2010-05-30T08:53:04Z</time>
      </trkpt>
      <trkpt lat="45.69436" lon="3.3025">
        <ele>470.70263671875</ele>
        <time>2010-05-30T08:53:06Z</time>
      </trkpt>
      <trkpt lat="45.69463" lon="3.30239">
        <ele>470.22192382812</ele>
        <time>2010-05-30T08:53:10Z</time>
      </trkpt>
      <trkpt lat="45.69499" lon="3.30236">
        <ele>469.74133300781</ele>
        <time>2010-05-30T08:53:15Z</time>
      </trkpt>
      <trkpt lat="45.69506" lon="3.30235">
        <ele>469.74133300781</ele>
        <time>2010-05-30T08:53:16Z</time>
      </trkpt>
      <trkpt lat="45.69532" lon="3.30223">
        <ele>469.74133300781</ele>
        <time>2010-05-30T08:53:20Z</time>
      </trkpt>
      <trkpt lat="45.69537" lon="3.30216">
        <ele>469.2607421875</ele>
        <time>2010-05-30T08:53:21Z</time>
      </trkpt>
      <trkpt lat="45.69563" lon="3.30184">
        <ele>469.74133300781</ele>
        <time>2010-05-30T08:53:26Z</time>
      </trkpt>
      <trkpt lat="45.69576" lon="3.30154">
        <ele>470.22192382812</ele>
        <time>2010-05-30T08:53:30Z</time>
      </trkpt>
      <trkpt lat="45.69577" lon="3.30146">
        <ele>470.70263671875</ele>
        <time>2010-05-30T08:53:31Z</time>
      </trkpt>
      <trkpt lat="45.69577" lon="3.30132">
        <ele>471.18334960938</ele>
        <time>2010-05-30T08:53:33Z</time>
      </trkpt>
      <trkpt lat="45.69571" lon="3.301">
        <ele>472.14465332031</ele>
        <time>2010-05-30T08:53:39Z</time>
      </trkpt>
      <trkpt lat="45.69556" lon="3.30072">
        <ele>473.58666992188</ele>
        <time>2010-05-30T08:53:46Z</time>
      </trkpt>
      <trkpt lat="45.69534" lon="3.30048">
        <ele>474.54797363281</ele>
        <time>2010-05-30T08:53:54Z</time>
      </trkpt>
      <trkpt lat="45.69522" lon="3.30026">
        <ele>475.98986816406</ele>
        <time>2010-05-30T08:54:00Z</time>
      </trkpt>
      <trkpt lat="45.69524" lon="3.29989">
        <ele>478.39318847656</ele>
        <time>2010-05-30T08:54:08Z</time>
      </trkpt>
      <trkpt lat="45.6953" lon="3.29948">
        <ele>479.83508300781</ele>
        <time>2010-05-30T08:54:17Z</time>
      </trkpt>
      <trkpt lat="45.69536" lon="3.29926">
        <ele>481.27722167969</ele>
        <time>2010-05-30T08:54:23Z</time>
      </trkpt>
      <trkpt lat="45.69543" lon="3.29908">
        <ele>482.23852539062</ele>
        <time>2010-05-30T08:54:30Z</time>
      </trkpt>
      <trkpt lat="45.6955" lon="3.29892">
        <ele>483.19982910156</ele>
        <time>2010-05-30T08:54:35Z</time>
      </trkpt>
      <trkpt lat="45.69557" lon="3.29861">
        <ele>484.1611328125</ele>
        <time>2010-05-30T08:54:43Z</time>
      </trkpt>
      <trkpt lat="45.69559" lon="3.29828">
        <ele>486.08374023438</ele>
        <time>2010-05-30T08:54:52Z</time>
      </trkpt>
      <trkpt lat="45.69558" lon="3.29808">
        <ele>487.52563476562</ele>
        <time>2010-05-30T08:54:58Z</time>
      </trkpt>
      <trkpt lat="45.69558" lon="3.29785">
        <ele>489.92907714844</ele>
        <time>2010-05-30T08:55:05Z</time>
      </trkpt>
      <trkpt lat="45.6956" lon="3.29765">
        <ele>492.33239746094</ele>
        <time>2010-05-30T08:55:11Z</time>
      </trkpt>
      <trkpt lat="45.69566" lon="3.29741">
        <ele>493.29357910156</ele>
        <time>2010-05-30T08:55:18Z</time>
      </trkpt>
      <trkpt lat="45.69577" lon="3.29711">
        <ele>494.25500488281</ele>
        <time>2010-05-30T08:55:27Z</time>
      </trkpt>
      <trkpt lat="45.69584" lon="3.29686">
        <ele>496.65832519531</ele>
        <time>2010-05-30T08:55:34Z</time>
      </trkpt>
      <trkpt lat="45.69596" lon="3.29658">
        <ele>498.58093261719</ele>
        <time>2010-05-30T08:55:42Z</time>
      </trkpt>
      <trkpt lat="45.69602" lon="3.29634">
        <ele>500.50354003906</ele>
        <time>2010-05-30T08:55:48Z</time>
      </trkpt>
      <trkpt lat="45.69606" lon="3.29611">
        <ele>501.46484375</ele>
        <time>2010-05-30T08:55:54Z</time>
      </trkpt>
      <trkpt lat="45.69615" lon="3.29608">
        <ele>500.98413085938</ele>
        <time>2010-05-30T08:55:58Z</time>
      </trkpt>
      <trkpt lat="45.69626" lon="3.29619">
        <ele>500.50354003906</ele>
        <time>2010-05-30T08:56:01Z</time>
      </trkpt>
      <trkpt lat="45.69633" lon="3.29629">
        <ele>499.0615234375</ele>
        <time>2010-05-30T08:56:03Z</time>
      </trkpt>
      <trkpt lat="45.69652" lon="3.29652">
        <ele>497.61962890625</ele>
        <time>2010-05-30T08:56:07Z</time>
      </trkpt>
      <trkpt lat="45.69664" lon="3.29657">
        <ele>496.65832519531</ele>
        <time>2010-05-30T08:56:09Z</time>
      </trkpt>
      <trkpt lat="45.69683" lon="3.29664">
        <ele>494.25500488281</ele>
        <time>2010-05-30T08:56:12Z</time>
      </trkpt>
      <trkpt lat="45.69705" lon="3.2968">
        <ele>491.37097167969</ele>
        <time>2010-05-30T08:56:15Z</time>
      </trkpt>
      <trkpt lat="45.69732" lon="3.29708">
        <ele>486.08374023438</ele>
        <time>2010-05-30T08:56:19Z</time>
      </trkpt>
      <trkpt lat="45.69756" lon="3.29712">
        <ele>485.60302734375</ele>
        <time>2010-05-30T08:56:22Z</time>
      </trkpt>
      <trkpt lat="45.69805" lon="3.29701">
        <ele>483.19982910156</ele>
        <time>2010-05-30T08:56:28Z</time>
      </trkpt>
      <trkpt lat="45.69847" lon="3.29703">
        <ele>481.27722167969</ele>
        <time>2010-05-30T08:56:33Z</time>
      </trkpt>
      <trkpt lat="45.69867" lon="3.29705">
        <ele>477.43188476562</ele>
        <time>2010-05-30T08:56:37Z</time>
      </trkpt>
      <trkpt lat="45.69874" lon="3.29691">
        <ele>477.43188476562</ele>
        <time>2010-05-30T08:56:42Z</time>
      </trkpt>
      <trkpt lat="45.69877" lon="3.29642">
        <ele>477.91247558594</ele>
        <time>2010-05-30T08:56:52Z</time>
      </trkpt>
      <trkpt lat="45.6988" lon="3.29622">
        <ele>478.39318847656</ele>
        <time>2010-05-30T08:56:56Z</time>
      </trkpt>
      <trkpt lat="45.69882" lon="3.29601">
        <ele>478.87390136719</ele>
        <time>2010-05-30T08:57:00Z</time>
      </trkpt>
      <trkpt lat="45.69884" lon="3.2959">
        <ele>479.3544921875</ele>
        <time>2010-05-30T08:57:02Z</time>
      </trkpt>
      <trkpt lat="45.69884" lon="3.29585">
        <ele>479.3544921875</ele>
        <time>2010-05-30T08:57:03Z</time>
      </trkpt>
      <trkpt lat="45.69891" lon="3.29543">
        <ele>479.83508300781</ele>
        <time>2010-05-30T08:57:10Z</time>
      </trkpt>
      <trkpt lat="45.69895" lon="3.29525">
        <ele>479.83508300781</ele>
        <time>2010-05-30T08:57:13Z</time>
      </trkpt>
      <trkpt lat="45.69905" lon="3.29486">
        <ele>480.79663085938</ele>
        <time>2010-05-30T08:57:20Z</time>
      </trkpt>
      <trkpt lat="45.69906" lon="3.29481">
        <ele>481.27722167969</ele>
        <time>2010-05-30T08:57:21Z</time>
      </trkpt>
      <trkpt lat="45.69902" lon="3.29446">
        <ele>482.23852539062</ele>
        <time>2010-05-30T08:57:27Z</time>
      </trkpt>
      <trkpt lat="45.69903" lon="3.29416">
        <ele>482.23852539062</ele>
        <time>2010-05-30T08:57:32Z</time>
      </trkpt>
      <trkpt lat="45.69907" lon="3.2938">
        <ele>482.71923828125</ele>
        <time>2010-05-30T08:57:38Z</time>
      </trkpt>
      <trkpt lat="45.6991" lon="3.29363">
        <ele>483.19982910156</ele>
        <time>2010-05-30T08:57:41Z</time>
      </trkpt>
      <trkpt lat="45.69922" lon="3.29321">
        <ele>485.12243652344</ele>
        <time>2010-05-30T08:57:49Z</time>
      </trkpt>
      <trkpt lat="45.69932" lon="3.29291">
        <ele>487.04504394531</ele>
        <time>2010-05-30T08:57:56Z</time>
      </trkpt>
      <trkpt lat="45.69934" lon="3.29269">
        <ele>488.9677734375</ele>
        <time>2010-05-30T08:58:02Z</time>
      </trkpt>
      <trkpt lat="45.69935" lon="3.2925">
        <ele>491.37097167969</ele>
        <time>2010-05-30T08:58:08Z</time>
      </trkpt>
      <trkpt lat="45.69935" lon="3.29245">
        <ele>492.33239746094</ele>
        <time>2010-05-30T08:58:10Z</time>
      </trkpt>
      <trkpt lat="45.69942" lon="3.29228">
        <ele>494.25500488281</ele>
        <time>2010-05-30T08:58:18Z</time>
      </trkpt>
      <trkpt lat="45.69947" lon="3.29219">
        <ele>495.69689941406</ele>
        <time>2010-05-30T08:58:23Z</time>
      </trkpt>
      <trkpt lat="45.69948" lon="3.29214">
        <ele>496.65832519531</ele>
        <time>2010-05-30T08:58:25Z</time>
      </trkpt>
      <trkpt lat="45.69946" lon="3.29207">
        <ele>497.13891601562</ele>
        <time>2010-05-30T08:58:28Z</time>
      </trkpt>
      <trkpt lat="45.69935" lon="3.29198">
        <ele>498.58093261719</ele>
        <time>2010-05-30T08:58:35Z</time>
      </trkpt>
      <trkpt lat="45.6993" lon="3.29193">
        <ele>499.0615234375</ele>
        <time>2010-05-30T08:58:38Z</time>
      </trkpt>
      <trkpt lat="45.69935" lon="3.29179">
        <ele>500.02294921875</ele>
        <time>2010-05-30T08:58:43Z</time>
      </trkpt>
      <trkpt lat="45.69941" lon="3.29173">
        <ele>499.0615234375</ele>
        <time>2010-05-30T08:58:45Z</time>
      </trkpt>
      <trkpt lat="45.69973" lon="3.29156">
        <ele>497.61962890625</ele>
        <time>2010-05-30T08:58:51Z</time>
      </trkpt>
      <trkpt lat="45.69979" lon="3.29154">
        <ele>497.61962890625</ele>
        <time>2010-05-30T08:58:52Z</time>
      </trkpt>
      <trkpt lat="45.70001" lon="3.29143">
        <ele>496.65832519531</ele>
        <time>2010-05-30T08:58:55Z</time>
      </trkpt>
      <trkpt lat="45.70032" lon="3.29133">
        <ele>493.77429199219</ele>
        <time>2010-05-30T08:58:59Z</time>
      </trkpt>
      <trkpt lat="45.70058" lon="3.29117">
        <ele>492.33239746094</ele>
        <time>2010-05-30T08:59:03Z</time>
      </trkpt>
      <trkpt lat="45.70074" lon="3.29094">
        <ele>490.40979003906</ele>
        <time>2010-05-30T08:59:07Z</time>
      </trkpt>
      <trkpt lat="45.70079" lon="3.29069">
        <ele>490.89038085938</ele>
        <time>2010-05-30T08:59:11Z</time>
      </trkpt>
      <trkpt lat="45.70079" lon="3.29055">
        <ele>490.89038085938</ele>
        <time>2010-05-30T08:59:14Z</time>
      </trkpt>
      <trkpt lat="45.70079" lon="3.29051">
        <ele>491.37097167969</ele>
        <time>2010-05-30T08:59:15Z</time>
      </trkpt>
      <trkpt lat="45.70079" lon="3.29047">
        <ele>490.89038085938</ele>
        <time>2010-05-30T08:59:16Z</time>
      </trkpt>
      <trkpt lat="45.70078" lon="3.29024">
        <ele>490.89038085938</ele>
        <time>2010-05-30T08:59:22Z</time>
      </trkpt>
      <trkpt lat="45.70075" lon="3.29004">
        <ele>492.33239746094</ele>
        <time>2010-05-30T08:59:26Z</time>
      </trkpt>
      <trkpt lat="45.70075" lon="3.28987">
        <ele>492.81298828125</ele>
        <time>2010-05-30T08:59:29Z</time>
      </trkpt>
      <trkpt lat="45.70076" lon="3.28947">
        <ele>494.25500488281</ele>
        <time>2010-05-30T08:59:35Z</time>
      </trkpt>
      <trkpt lat="45.70076" lon="3.28941">
        <ele>493.77429199219</ele>
        <time>2010-05-30T08:59:36Z</time>
      </trkpt>
      <trkpt lat="45.70081" lon="3.28922">
        <ele>494.25500488281</ele>
        <time>2010-05-30T08:59:39Z</time>
      </trkpt>
      <trkpt lat="45.70084" lon="3.28917">
        <ele>494.25500488281</ele>
        <time>2010-05-30T08:59:40Z</time>
      </trkpt>
      <trkpt lat="45.70092" lon="3.289">
        <ele>493.77429199219</ele>
        <time>2010-05-30T08:59:43Z</time>
      </trkpt>
      <trkpt lat="45.70093" lon="3.28872">
        <ele>493.77429199219</ele>
        <time>2010-05-30T08:59:48Z</time>
      </trkpt>
      <trkpt lat="45.70074" lon="3.28815">
        <ele>494.25500488281</ele>
        <time>2010-05-30T08:59:57Z</time>
      </trkpt>
      <trkpt lat="45.70062" lon="3.28776">
        <ele>494.73559570312</ele>
        <time>2010-05-30T09:00:03Z</time>
      </trkpt>
      <trkpt lat="45.70048" lon="3.28733">
        <ele>494.25500488281</ele>
        <time>2010-05-30T09:00:10Z</time>
      </trkpt>
      <trkpt lat="45.7004" lon="3.28706">
        <ele>493.29357910156</ele>
        <time>2010-05-30T09:00:15Z</time>
      </trkpt>
      <trkpt lat="45.70034" lon="3.28693">
        <ele>492.81298828125</ele>
        <time>2010-05-30T09:00:18Z</time>
      </trkpt>
      <trkpt lat="45.70035" lon="3.28658">
        <ele>490.89038085938</ele>
        <time>2010-05-30T09:00:23Z</time>
      </trkpt>
      <trkpt lat="45.70037" lon="3.28649">
        <ele>490.40979003906</ele>
        <time>2010-05-30T09:00:24Z</time>
      </trkpt>
      <trkpt lat="45.70043" lon="3.28633">
        <ele>488.9677734375</ele>
        <time>2010-05-30T09:00:26Z</time>
      </trkpt>
      <trkpt lat="45.70061" lon="3.28605">
        <ele>488.9677734375</ele>
        <time>2010-05-30T09:00:30Z</time>
      </trkpt>
      <trkpt lat="45.70066" lon="3.28599">
        <ele>488.9677734375</ele>
        <time>2010-05-30T09:00:31Z</time>
      </trkpt>
      <trkpt lat="45.70107" lon="3.28549">
        <ele>487.52563476562</ele>
        <time>2010-05-30T09:00:39Z</time>
      </trkpt>
      <trkpt lat="45.70126" lon="3.28523">
        <ele>487.52563476562</ele>
        <time>2010-05-30T09:00:43Z</time>
      </trkpt>
      <trkpt lat="45.7014" lon="3.28489">
        <ele>488.9677734375</ele>
        <time>2010-05-30T09:00:48Z</time>
      </trkpt>
      <trkpt lat="45.70146" lon="3.28459">
        <ele>490.40979003906</ele>
        <time>2010-05-30T09:00:53Z</time>
      </trkpt>
      <trkpt lat="45.70147" lon="3.28449">
        <ele>491.37097167969</ele>
        <time>2010-05-30T09:00:55Z</time>
      </trkpt>
      <trkpt lat="45.70148" lon="3.2843">
        <ele>493.29357910156</ele>
        <time>2010-05-30T09:00:58Z</time>
      </trkpt>
      <trkpt lat="45.70148" lon="3.28424">
        <ele>493.29357910156</ele>
        <time>2010-05-30T09:00:59Z</time>
      </trkpt>
      <trkpt lat="45.70149" lon="3.28412">
        <ele>494.25500488281</ele>
        <time>2010-05-30T09:01:01Z</time>
      </trkpt>
      <trkpt lat="45.70149" lon="3.28406">
        <ele>493.77429199219</ele>
        <time>2010-05-30T09:01:02Z</time>
      </trkpt>
      <trkpt lat="45.7015" lon="3.28394">
        <ele>494.25500488281</ele>
        <time>2010-05-30T09:01:04Z</time>
      </trkpt>
      <trkpt lat="45.70152" lon="3.28381">
        <ele>495.21618652344</ele>
        <time>2010-05-30T09:01:06Z</time>
      </trkpt>
      <trkpt lat="45.70153" lon="3.28374">
        <ele>495.21618652344</ele>
        <time>2010-05-30T09:01:07Z</time>
      </trkpt>
      <trkpt lat="45.70154" lon="3.28355">
        <ele>494.25500488281</ele>
        <time>2010-05-30T09:01:10Z</time>
      </trkpt>
      <trkpt lat="45.70153" lon="3.28308">
        <ele>494.73559570312</ele>
        <time>2010-05-30T09:01:17Z</time>
      </trkpt>
      <trkpt lat="45.70145" lon="3.28259">
        <ele>495.21618652344</ele>
        <time>2010-05-30T09:01:24Z</time>
      </trkpt>
      <trkpt lat="45.70138" lon="3.28219">
        <ele>496.177734375</ele>
        <time>2010-05-30T09:01:30Z</time>
      </trkpt>
      <trkpt lat="45.70133" lon="3.28161">
        <ele>495.69689941406</ele>
        <time>2010-05-30T09:01:38Z</time>
      </trkpt>
      <trkpt lat="45.70131" lon="3.28091">
        <ele>496.177734375</ele>
        <time>2010-05-30T09:01:48Z</time>
      </trkpt>
      <trkpt lat="45.70131" lon="3.28049">
        <ele>495.69689941406</ele>
        <time>2010-05-30T09:01:54Z</time>
      </trkpt>
      <trkpt lat="45.7013" lon="3.28042">
        <ele>495.69689941406</ele>
        <time>2010-05-30T09:01:55Z</time>
      </trkpt>
      <trkpt lat="45.70123" lon="3.28021">
        <ele>495.21618652344</ele>
        <time>2010-05-30T09:01:58Z</time>
      </trkpt>
      <trkpt lat="45.701" lon="3.27982">
        <ele>491.85168457031</ele>
        <time>2010-05-30T09:02:03Z</time>
      </trkpt>
      <trkpt lat="45.70095" lon="3.27973">
        <ele>491.37097167969</ele>
        <time>2010-05-30T09:02:04Z</time>
      </trkpt>
      <trkpt lat="45.70072" lon="3.27939">
        <ele>489.92907714844</ele>
        <time>2010-05-30T09:02:08Z</time>
      </trkpt>
      <trkpt lat="45.70067" lon="3.27931">
        <ele>489.92907714844</ele>
        <time>2010-05-30T09:02:09Z</time>
      </trkpt>
      <trkpt lat="45.70062" lon="3.27923">
        <ele>489.44836425781</ele>
        <time>2010-05-30T09:02:10Z</time>
      </trkpt>
      <trkpt lat="45.70052" lon="3.27908">
        <ele>489.44836425781</ele>
        <time>2010-05-30T09:02:12Z</time>
      </trkpt>
      <trkpt lat="45.70047" lon="3.27901">
        <ele>489.92907714844</ele>
        <time>2010-05-30T09:02:13Z</time>
      </trkpt>
      <trkpt lat="45.70013" lon="3.27848">
        <ele>490.89038085938</ele>
        <time>2010-05-30T09:02:21Z</time>
      </trkpt>
      <trkpt lat="45.69986" lon="3.27821">
        <ele>491.85168457031</ele>
        <time>2010-05-30T09:02:27Z</time>
      </trkpt>
      <trkpt lat="45.69977" lon="3.27812">
        <ele>492.33239746094</ele>
        <time>2010-05-30T09:02:29Z</time>
      </trkpt>
      <trkpt lat="45.69963" lon="3.27783">
        <ele>492.33239746094</ele>
        <time>2010-05-30T09:02:34Z</time>
      </trkpt>
      <trkpt lat="45.69961" lon="3.27769">
        <ele>492.81298828125</ele>
        <time>2010-05-30T09:02:36Z</time>
      </trkpt>
      <trkpt lat="45.6996" lon="3.27744">
        <ele>494.25500488281</ele>
        <time>2010-05-30T09:02:40Z</time>
      </trkpt>
      <trkpt lat="45.69971" lon="3.27736">
        <ele>494.73559570312</ele>
        <time>2010-05-30T09:02:44Z</time>
      </trkpt>
      <trkpt lat="45.69975" lon="3.27738">
        <ele>494.73559570312</ele>
        <time>2010-05-30T09:02:45Z</time>
      </trkpt>
      <trkpt lat="45.7002" lon="3.27754">
        <ele>494.25500488281</ele>
        <time>2010-05-30T09:02:54Z</time>
      </trkpt>
      <trkpt lat="45.70056" lon="3.27762">
        <ele>495.69689941406</ele>
        <time>2010-05-30T09:03:01Z</time>
      </trkpt>
      <trkpt lat="45.70084" lon="3.27766">
        <ele>497.61962890625</ele>
        <time>2010-05-30T09:03:07Z</time>
      </trkpt>
      <trkpt lat="45.70096" lon="3.27756">
        <ele>498.10034179688</ele>
        <time>2010-05-30T09:03:11Z</time>
      </trkpt>
      <trkpt lat="45.70104" lon="3.27735">
        <ele>498.58093261719</ele>
        <time>2010-05-30T09:03:15Z</time>
      </trkpt>
      <trkpt lat="45.7012" lon="3.27695">
        <ele>498.58093261719</ele>
        <time>2010-05-30T09:03:22Z</time>
      </trkpt>
      <trkpt lat="45.70126" lon="3.27671">
        <ele>499.0615234375</ele>
        <time>2010-05-30T09:03:26Z</time>
      </trkpt>
      <trkpt lat="45.70129" lon="3.2762">
        <ele>499.54223632812</ele>
        <time>2010-05-30T09:03:34Z</time>
      </trkpt>
      <trkpt lat="45.70127" lon="3.27571">
        <ele>496.65832519531</ele>
        <time>2010-05-30T09:03:40Z</time>
      </trkpt>
      <trkpt lat="45.70118" lon="3.27519">
        <ele>494.25500488281</ele>
        <time>2010-05-30T09:03:45Z</time>
      </trkpt>
      <trkpt lat="45.70107" lon="3.27485">
        <ele>489.44836425781</ele>
        <time>2010-05-30T09:03:48Z</time>
      </trkpt>
      <trkpt lat="45.70096" lon="3.27449">
        <ele>486.08374023438</ele>
        <time>2010-05-30T09:03:51Z</time>
      </trkpt>
      <trkpt lat="45.70091" lon="3.27425">
        <ele>485.12243652344</ele>
        <time>2010-05-30T09:03:53Z</time>
      </trkpt>
      <trkpt lat="45.70084" lon="3.27388">
        <ele>484.1611328125</ele>
        <time>2010-05-30T09:03:56Z</time>
      </trkpt>
      <trkpt lat="45.70082" lon="3.27376">
        <ele>483.68041992188</ele>
        <time>2010-05-30T09:03:57Z</time>
      </trkpt>
      <trkpt lat="45.70078" lon="3.27352">
        <ele>483.19982910156</ele>
        <time>2010-05-30T09:03:59Z</time>
      </trkpt>
      <trkpt lat="45.7008" lon="3.273">
        <ele>482.71923828125</ele>
        <time>2010-05-30T09:04:03Z</time>
      </trkpt>
      <trkpt lat="45.70091" lon="3.27228">
        <ele>480.31591796875</ele>
        <time>2010-05-30T09:04:09Z</time>
      </trkpt>
      <trkpt lat="45.70095" lon="3.27194">
        <ele>481.27722167969</ele>
        <time>2010-05-30T09:04:12Z</time>
      </trkpt>
      <trkpt lat="45.70115" lon="3.27128">
        <ele>479.83508300781</ele>
        <time>2010-05-30T09:04:18Z</time>
      </trkpt>
      <trkpt lat="45.70133" lon="3.27059">
        <ele>477.91247558594</ele>
        <time>2010-05-30T09:04:24Z</time>
      </trkpt>
      <trkpt lat="45.70152" lon="3.26974">
        <ele>475.98986816406</ele>
        <time>2010-05-30T09:04:31Z</time>
      </trkpt>
      <trkpt lat="45.70163" lon="3.26928">
        <ele>473.58666992188</ele>
        <time>2010-05-30T09:04:35Z</time>
      </trkpt>
      <trkpt lat="45.70164" lon="3.26874">
        <ele>471.18334960938</ele>
        <time>2010-05-30T09:04:39Z</time>
      </trkpt>
      <trkpt lat="45.70161" lon="3.26845">
        <ele>470.22192382812</ele>
        <time>2010-05-30T09:04:41Z</time>
      </trkpt>
      <trkpt lat="45.70146" lon="3.26774">
        <ele>467.81872558594</ele>
        <time>2010-05-30T09:04:46Z</time>
      </trkpt>
      <trkpt lat="45.70131" lon="3.26727">
        <ele>467.33813476562</ele>
        <time>2010-05-30T09:04:50Z</time>
      </trkpt>
      <trkpt lat="45.70124" lon="3.26683">
        <ele>467.33813476562</ele>
        <time>2010-05-30T09:04:54Z</time>
      </trkpt>
      <trkpt lat="45.70125" lon="3.26619">
        <ele>468.78002929688</ele>
        <time>2010-05-30T09:05:01Z</time>
      </trkpt>
      <trkpt lat="45.70123" lon="3.26597">
        <ele>469.2607421875</ele>
        <time>2010-05-30T09:05:04Z</time>
      </trkpt>
      <trkpt lat="45.70121" lon="3.2656">
        <ele>471.66394042969</ele>
        <time>2010-05-30T09:05:09Z</time>
      </trkpt>
      <trkpt lat="45.7012" lon="3.26552">
        <ele>471.66394042969</ele>
        <time>2010-05-30T09:05:10Z</time>
      </trkpt>
      <trkpt lat="45.70118" lon="3.26531">
        <ele>473.10607910156</ele>
        <time>2010-05-30T09:05:13Z</time>
      </trkpt>
      <trkpt lat="45.70113" lon="3.26503">
        <ele>474.54797363281</ele>
        <time>2010-05-30T09:05:17Z</time>
      </trkpt>
      <trkpt lat="45.70112" lon="3.26496">
        <ele>474.54797363281</ele>
        <time>2010-05-30T09:05:18Z</time>
      </trkpt>
      <trkpt lat="45.7011" lon="3.26482">
        <ele>475.98986816406</ele>
        <time>2010-05-30T09:05:20Z</time>
      </trkpt>
      <trkpt lat="45.70108" lon="3.26475">
        <ele>475.98986816406</ele>
        <time>2010-05-30T09:05:21Z</time>
      </trkpt>
      <trkpt lat="45.70103" lon="3.26455">
        <ele>475.98986816406</ele>
        <time>2010-05-30T09:05:24Z</time>
      </trkpt>
      <trkpt lat="45.70095" lon="3.26431">
        <ele>477.91247558594</ele>
        <time>2010-05-30T09:05:28Z</time>
      </trkpt>
      <trkpt lat="45.70079" lon="3.26386">
        <ele>478.87390136719</ele>
        <time>2010-05-30T09:05:36Z</time>
      </trkpt>
      <trkpt lat="45.70076" lon="3.26373">
        <ele>478.87390136719</ele>
        <time>2010-05-30T09:05:39Z</time>
      </trkpt>
      <trkpt lat="45.70087" lon="3.26364">
        <ele>478.39318847656</ele>
        <time>2010-05-30T09:05:43Z</time>
      </trkpt>
      <trkpt lat="45.70092" lon="3.26364">
        <ele>477.91247558594</ele>
        <time>2010-05-30T09:05:44Z</time>
      </trkpt>
      <trkpt lat="45.70131" lon="3.2637">
        <ele>476.47058105469</ele>
        <time>2010-05-30T09:05:51Z</time>
      </trkpt>
      <trkpt lat="45.70144" lon="3.26372">
        <ele>475.02868652344</ele>
        <time>2010-05-30T09:05:53Z</time>
      </trkpt>
      <trkpt lat="45.70188" lon="3.26367">
        <ele>472.62536621094</ele>
        <time>2010-05-30T09:05:59Z</time>
      </trkpt>
      <trkpt lat="45.70219" lon="3.2638">
        <ele>471.18334960938</ele>
        <time>2010-05-30T09:06:03Z</time>
      </trkpt>
      <trkpt lat="45.70233" lon="3.26398">
        <ele>473.10607910156</ele>
        <time>2010-05-30T09:06:06Z</time>
      </trkpt>
      <trkpt lat="45.70258" lon="3.2645">
        <ele>472.62536621094</ele>
        <time>2010-05-30T09:06:14Z</time>
      </trkpt>
      <trkpt lat="45.70262" lon="3.26457">
        <ele>473.10607910156</ele>
        <time>2010-05-30T09:06:15Z</time>
      </trkpt>
      <trkpt lat="45.70285" lon="3.26484">
        <ele>470.22192382812</ele>
        <time>2010-05-30T09:06:19Z</time>
      </trkpt>
      <trkpt lat="45.70324" lon="3.26517">
        <ele>467.33813476562</ele>
        <time>2010-05-30T09:06:24Z</time>
      </trkpt>
      <trkpt lat="45.70341" lon="3.2653">
        <ele>465.41552734375</ele>
        <time>2010-05-30T09:06:26Z</time>
      </trkpt>
      <trkpt lat="45.70358" lon="3.26543">
        <ele>464.93481445312</ele>
        <time>2010-05-30T09:06:28Z</time>
      </trkpt>
      <trkpt lat="45.70375" lon="3.26555">
        <ele>463.49279785156</ele>
        <time>2010-05-30T09:06:30Z</time>
      </trkpt>
      <trkpt lat="45.70384" lon="3.26562">
        <ele>463.49279785156</ele>
        <time>2010-05-30T09:06:31Z</time>
      </trkpt>
      <trkpt lat="45.70422" lon="3.26596">
        <ele>463.01208496094</ele>
        <time>2010-05-30T09:06:36Z</time>
      </trkpt>
      <trkpt lat="45.70443" lon="3.26615">
        <ele>463.01208496094</ele>
        <time>2010-05-30T09:06:39Z</time>
      </trkpt>
      <trkpt lat="45.70493" lon="3.26674">
        <ele>463.01208496094</ele>
        <time>2010-05-30T09:06:47Z</time>
      </trkpt>
      <trkpt lat="45.70539" lon="3.26722">
        <ele>460.12817382812</ele>
        <time>2010-05-30T09:06:54Z</time>
      </trkpt>
      <trkpt lat="45.70547" lon="3.26729">
        <ele>460.12817382812</ele>
        <time>2010-05-30T09:06:55Z</time>
      </trkpt>
      <trkpt lat="45.70579" lon="3.26753">
        <ele>458.20556640625</ele>
        <time>2010-05-30T09:06:59Z</time>
      </trkpt>
      <trkpt lat="45.70616" lon="3.26769">
        <ele>454.8408203125</ele>
        <time>2010-05-30T09:07:03Z</time>
      </trkpt>
      <trkpt lat="45.70626" lon="3.26772">
        <ele>455.32153320312</ele>
        <time>2010-05-30T09:07:04Z</time>
      </trkpt>
      <trkpt lat="45.70665" lon="3.26785">
        <ele>452.91821289062</ele>
        <time>2010-05-30T09:07:08Z</time>
      </trkpt>
      <trkpt lat="45.70674" lon="3.26789">
        <ele>451.47631835938</ele>
        <time>2010-05-30T09:07:09Z</time>
      </trkpt>
      <trkpt lat="45.70683" lon="3.26793">
        <ele>451.95703125</ele>
        <time>2010-05-30T09:07:10Z</time>
      </trkpt>
      <trkpt lat="45.70726" lon="3.26823">
        <ele>449.5537109375</ele>
        <time>2010-05-30T09:07:15Z</time>
      </trkpt>
      <trkpt lat="45.70763" lon="3.26855">
        <ele>448.59240722656</ele>
        <time>2010-05-30T09:07:20Z</time>
      </trkpt>
      <trkpt lat="45.70813" lon="3.26895">
        <ele>447.15026855469</ele>
        <time>2010-05-30T09:07:27Z</time>
      </trkpt>
      <trkpt lat="45.70848" lon="3.26921">
        <ele>445.70837402344</ele>
        <time>2010-05-30T09:07:32Z</time>
      </trkpt>
      <trkpt lat="45.70863" lon="3.26938">
        <ele>444.26647949219</ele>
        <time>2010-05-30T09:07:35Z</time>
      </trkpt>
      <trkpt lat="45.70868" lon="3.26933">
        <ele>444.26647949219</ele>
        <time>2010-05-30T09:07:39Z</time>
      </trkpt>
      <trkpt lat="45.70861" lon="3.26921">
        <ele>444.26647949219</ele>
        <time>2010-05-30T09:07:42Z</time>
      </trkpt>
      <trkpt lat="45.7084" lon="3.26887">
        <ele>442.82446289062</ele>
        <time>2010-05-30T09:07:48Z</time>
      </trkpt>
      <trkpt lat="45.70832" lon="3.26871">
        <ele>442.34387207031</ele>
        <time>2010-05-30T09:07:50Z</time>
      </trkpt>
      <trkpt lat="45.70828" lon="3.26862">
        <ele>441.86315917969</ele>
        <time>2010-05-30T09:07:51Z</time>
      </trkpt>
      <trkpt lat="45.70817" lon="3.26834">
        <ele>439.9404296875</ele>
        <time>2010-05-30T09:07:54Z</time>
      </trkpt>
      <trkpt lat="45.7079" lon="3.26768">
        <ele>437.05651855469</ele>
        <time>2010-05-30T09:08:00Z</time>
      </trkpt>
      <trkpt lat="45.70782" lon="3.26745">
        <ele>435.61450195312</ele>
        <time>2010-05-30T09:08:02Z</time>
      </trkpt>
      <trkpt lat="45.70769" lon="3.26698">
        <ele>432.25</ele>
        <time>2010-05-30T09:08:06Z</time>
      </trkpt>
      <trkpt lat="45.70752" lon="3.26639">
        <ele>429.36596679688</ele>
        <time>2010-05-30T09:08:11Z</time>
      </trkpt>
      <trkpt lat="45.70746" lon="3.26616">
        <ele>428.40466308594</ele>
        <time>2010-05-30T09:08:13Z</time>
      </trkpt>
      <trkpt lat="45.70736" lon="3.26561">
        <ele>428.40466308594</ele>
        <time>2010-05-30T09:08:18Z</time>
      </trkpt>
      <trkpt lat="45.70736" lon="3.26519">
        <ele>427.92395019531</ele>
        <time>2010-05-30T09:08:22Z</time>
      </trkpt>
      <trkpt lat="45.7074" lon="3.2649">
        <ele>428.88537597656</ele>
        <time>2010-05-30T09:08:25Z</time>
      </trkpt>
      <trkpt lat="45.70742" lon="3.26473">
        <ele>431.28857421875</ele>
        <time>2010-05-30T09:08:27Z</time>
      </trkpt>
      <trkpt lat="45.70742" lon="3.26464">
        <ele>431.28857421875</ele>
        <time>2010-05-30T09:08:28Z</time>
      </trkpt>
      <trkpt lat="45.70743" lon="3.26456">
        <ele>432.73071289062</ele>
        <time>2010-05-30T09:08:29Z</time>
      </trkpt>
      <trkpt lat="45.70745" lon="3.26425">
        <ele>434.6533203125</ele>
        <time>2010-05-30T09:08:33Z</time>
      </trkpt>
      <trkpt lat="45.70745" lon="3.26416">
        <ele>434.6533203125</ele>
        <time>2010-05-30T09:08:34Z</time>
      </trkpt>
      <trkpt lat="45.70745" lon="3.26408">
        <ele>435.61450195312</ele>
        <time>2010-05-30T09:08:35Z</time>
      </trkpt>
      <trkpt lat="45.70746" lon="3.26384">
        <ele>434.6533203125</ele>
        <time>2010-05-30T09:08:38Z</time>
      </trkpt>
      <trkpt lat="45.70746" lon="3.26375">
        <ele>433.69189453125</ele>
        <time>2010-05-30T09:08:39Z</time>
      </trkpt>
      <trkpt lat="45.70747" lon="3.26366">
        <ele>433.69189453125</ele>
        <time>2010-05-30T09:08:40Z</time>
      </trkpt>
      <trkpt lat="45.70747" lon="3.26356">
        <ele>433.21130371094</ele>
        <time>2010-05-30T09:08:41Z</time>
      </trkpt>
      <trkpt lat="45.70752" lon="3.26322">
        <ele>429.36596679688</ele>
        <time>2010-05-30T09:08:44Z</time>
      </trkpt>
      <trkpt lat="45.70754" lon="3.2631">
        <ele>429.36596679688</ele>
        <time>2010-05-30T09:08:45Z</time>
      </trkpt>
      <trkpt lat="45.70761" lon="3.26259">
        <ele>426.00134277344</ele>
        <time>2010-05-30T09:08:49Z</time>
      </trkpt>
      <trkpt lat="45.70766" lon="3.26237">
        <ele>425.52075195312</ele>
        <time>2010-05-30T09:08:51Z</time>
      </trkpt>
      <trkpt lat="45.7077" lon="3.2622">
        <ele>424.07873535156</ele>
        <time>2010-05-30T09:08:53Z</time>
      </trkpt>
      <trkpt lat="45.70782" lon="3.26202">
        <ele>423.59802246094</ele>
        <time>2010-05-30T09:08:57Z</time>
      </trkpt>
      <trkpt lat="45.70787" lon="3.26201">
        <ele>423.59802246094</ele>
        <time>2010-05-30T09:08:58Z</time>
      </trkpt>
      <trkpt lat="45.70816" lon="3.26188">
        <ele>423.59802246094</ele>
        <time>2010-05-30T09:09:04Z</time>
      </trkpt>
      <trkpt lat="45.7084" lon="3.26167">
        <ele>426.00134277344</ele>
        <time>2010-05-30T09:09:11Z</time>
      </trkpt>
      <trkpt lat="45.70853" lon="3.26155">
        <ele>426.96276855469</ele>
        <time>2010-05-30T09:09:16Z</time>
      </trkpt>
      <trkpt lat="45.70862" lon="3.26143">
        <ele>429.36596679688</ele>
        <time>2010-05-30T09:09:20Z</time>
      </trkpt>
      <trkpt lat="45.7088" lon="3.26109">
        <ele>432.25</ele>
        <time>2010-05-30T09:09:29Z</time>
      </trkpt>
      <trkpt lat="45.70895" lon="3.26078">
        <ele>432.73071289062</ele>
        <time>2010-05-30T09:09:36Z</time>
      </trkpt>
      <trkpt lat="45.70913" lon="3.26039">
        <ele>433.69189453125</ele>
        <time>2010-05-30T09:09:44Z</time>
      </trkpt>
      <trkpt lat="45.70929" lon="3.25992">
        <ele>433.21130371094</ele>
        <time>2010-05-30T09:09:52Z</time>
      </trkpt>
      <trkpt lat="45.70949" lon="3.25932">
        <ele>433.21130371094</ele>
        <time>2010-05-30T09:10:01Z</time>
      </trkpt>
      <trkpt lat="45.70973" lon="3.25863">
        <ele>434.17260742188</ele>
        <time>2010-05-30T09:10:11Z</time>
      </trkpt>
      <trkpt lat="45.70987" lon="3.25823">
        <ele>434.6533203125</ele>
        <time>2010-05-30T09:10:17Z</time>
      </trkpt>
      <trkpt lat="45.70993" lon="3.25787">
        <ele>436.09521484375</ele>
        <time>2010-05-30T09:10:22Z</time>
      </trkpt>
      <trkpt lat="45.70995" lon="3.25712">
        <ele>436.09521484375</ele>
        <time>2010-05-30T09:10:32Z</time>
      </trkpt>
      <trkpt lat="45.71001" lon="3.25661">
        <ele>436.09521484375</ele>
        <time>2010-05-30T09:10:39Z</time>
      </trkpt>
      <trkpt lat="45.71005" lon="3.25591">
        <ele>436.09521484375</ele>
        <time>2010-05-30T09:10:48Z</time>
      </trkpt>
      <trkpt lat="45.71007" lon="3.25505">
        <ele>436.09521484375</ele>
        <time>2010-05-30T09:10:58Z</time>
      </trkpt>
      <trkpt lat="45.71008" lon="3.25496">
        <ele>435.61450195312</ele>
        <time>2010-05-30T09:10:59Z</time>
      </trkpt>
      <trkpt lat="45.7102" lon="3.25431">
        <ele>436.09521484375</ele>
        <time>2010-05-30T09:11:07Z</time>
      </trkpt>
      <trkpt lat="45.71035" lon="3.2539">
        <ele>437.537109375</ele>
        <time>2010-05-30T09:11:13Z</time>
      </trkpt>
      <trkpt lat="45.71051" lon="3.25349">
        <ele>438.97912597656</ele>
        <time>2010-05-30T09:11:20Z</time>
      </trkpt>
      <trkpt lat="45.71064" lon="3.2531">
        <ele>441.38244628906</ele>
        <time>2010-05-30T09:11:27Z</time>
      </trkpt>
      <trkpt lat="45.7108" lon="3.25259">
        <ele>444.7470703125</ele>
        <time>2010-05-30T09:11:36Z</time>
      </trkpt>
      <trkpt lat="45.71092" lon="3.25209">
        <ele>445.70837402344</ele>
        <time>2010-05-30T09:11:45Z</time>
      </trkpt>
      <trkpt lat="45.71096" lon="3.25194">
        <ele>445.22766113281</ele>
        <time>2010-05-30T09:11:48Z</time>
      </trkpt>
      <trkpt lat="45.71117" lon="3.25182">
        <ele>443.78576660156</ele>
        <time>2010-05-30T09:11:53Z</time>
      </trkpt>
      <trkpt lat="45.71156" lon="3.25167">
        <ele>442.82446289062</ele>
        <time>2010-05-30T09:12:00Z</time>
      </trkpt>
      <trkpt lat="45.71203" lon="3.25152">
        <ele>440.90185546875</ele>
        <time>2010-05-30T09:12:07Z</time>
      </trkpt>
      <trkpt lat="45.71217" lon="3.25148">
        <ele>439.9404296875</ele>
        <time>2010-05-30T09:12:09Z</time>
      </trkpt>
      <trkpt lat="45.71225" lon="3.25145">
        <ele>439.9404296875</ele>
        <time>2010-05-30T09:12:10Z</time>
      </trkpt>
      <trkpt lat="45.7126" lon="3.25144">
        <ele>438.49853515625</ele>
        <time>2010-05-30T09:12:15Z</time>
      </trkpt>
      <trkpt lat="45.7132" lon="3.25155">
        <ele>436.57592773438</ele>
        <time>2010-05-30T09:12:23Z</time>
      </trkpt>
      <trkpt lat="45.71346" lon="3.2516">
        <ele>435.13391113281</ele>
        <time>2010-05-30T09:12:26Z</time>
      </trkpt>
      <trkpt lat="45.71373" lon="3.25168">
        <ele>431.28857421875</ele>
        <time>2010-05-30T09:12:29Z</time>
      </trkpt>
      <trkpt lat="45.71382" lon="3.25171">
        <ele>431.76916503906</ele>
        <time>2010-05-30T09:12:30Z</time>
      </trkpt>
      <trkpt lat="45.71418" lon="3.25182">
        <ele>429.36596679688</ele>
        <time>2010-05-30T09:12:34Z</time>
      </trkpt>
      <trkpt lat="45.71426" lon="3.25184">
        <ele>428.40466308594</ele>
        <time>2010-05-30T09:12:35Z</time>
      </trkpt>
      <trkpt lat="45.71443" lon="3.25175">
        <ele>427.443359375</ele>
        <time>2010-05-30T09:12:39Z</time>
      </trkpt>
      <trkpt lat="45.71443" lon="3.25161">
        <ele>426.96276855469</ele>
        <time>2010-05-30T09:12:41Z</time>
      </trkpt>
      <trkpt lat="45.71434" lon="3.25101">
        <ele>427.443359375</ele>
        <time>2010-05-30T09:12:47Z</time>
      </trkpt>
      <trkpt lat="45.7143" lon="3.25079">
        <ele>426.00134277344</ele>
        <time>2010-05-30T09:12:49Z</time>
      </trkpt>
      <trkpt lat="45.71419" lon="3.25034">
        <ele>424.55944824219</ele>
        <time>2010-05-30T09:12:53Z</time>
      </trkpt>
      <trkpt lat="45.71416" lon="3.25023">
        <ele>424.55944824219</ele>
        <time>2010-05-30T09:12:54Z</time>
      </trkpt>
      <trkpt lat="45.71413" lon="3.25011">
        <ele>423.59802246094</ele>
        <time>2010-05-30T09:12:55Z</time>
      </trkpt>
      <trkpt lat="45.71404" lon="3.24978">
        <ele>424.55944824219</ele>
        <time>2010-05-30T09:12:58Z</time>
      </trkpt>
      <trkpt lat="45.71385" lon="3.24915">
        <ele>423.11743164062</ele>
        <time>2010-05-30T09:13:04Z</time>
      </trkpt>
      <trkpt lat="45.71374" lon="3.24866">
        <ele>422.63671875</ele>
        <time>2010-05-30T09:13:09Z</time>
      </trkpt>
      <trkpt lat="45.71365" lon="3.24794">
        <ele>422.63671875</ele>
        <time>2010-05-30T09:13:17Z</time>
      </trkpt>
      <trkpt lat="45.71364" lon="3.24776">
        <ele>423.59802246094</ele>
        <time>2010-05-30T09:13:20Z</time>
      </trkpt>
      <trkpt lat="45.71373" lon="3.24751">
        <ele>421.67541503906</ele>
        <time>2010-05-30T09:13:24Z</time>
      </trkpt>
      <trkpt lat="45.71375" lon="3.24743">
        <ele>421.67541503906</ele>
        <time>2010-05-30T09:13:25Z</time>
      </trkpt>
      <trkpt lat="45.71392" lon="3.24696">
        <ele>419.75280761719</ele>
        <time>2010-05-30T09:13:30Z</time>
      </trkpt>
      <trkpt lat="45.71412" lon="3.2463">
        <ele>419.27221679688</ele>
        <time>2010-05-30T09:13:36Z</time>
      </trkpt>
      <trkpt lat="45.71429" lon="3.24556">
        <ele>419.27221679688</ele>
        <time>2010-05-30T09:13:43Z</time>
      </trkpt>
      <trkpt lat="45.71442" lon="3.24491">
        <ele>417.83020019531</ele>
        <time>2010-05-30T09:13:49Z</time>
      </trkpt>
      <trkpt lat="45.7147" lon="3.24428">
        <ele>414.46545410156</ele>
        <time>2010-05-30T09:13:55Z</time>
      </trkpt>
      <trkpt lat="45.71508" lon="3.24369">
        <ele>412.06225585938</ele>
        <time>2010-05-30T09:14:01Z</time>
      </trkpt>
      <trkpt lat="45.71519" lon="3.24349">
        <ele>410.1396484375</ele>
        <time>2010-05-30T09:14:03Z</time>
      </trkpt>
      <trkpt lat="45.71564" lon="3.24268">
        <ele>406.77490234375</ele>
        <time>2010-05-30T09:14:11Z</time>
      </trkpt>
      <trkpt lat="45.71586" lon="3.24231">
        <ele>404.85229492188</ele>
        <time>2010-05-30T09:14:15Z</time>
      </trkpt>
      <trkpt lat="45.71592" lon="3.24222">
        <ele>404.37170410156</ele>
        <time>2010-05-30T09:14:16Z</time>
      </trkpt>
      <trkpt lat="45.71605" lon="3.24206">
        <ele>403.41040039062</ele>
        <time>2010-05-30T09:14:18Z</time>
      </trkpt>
      <trkpt lat="45.71643" lon="3.24175">
        <ele>399.56506347656</ele>
        <time>2010-05-30T09:14:23Z</time>
      </trkpt>
      <trkpt lat="45.71651" lon="3.24169">
        <ele>399.56506347656</ele>
        <time>2010-05-30T09:14:24Z</time>
      </trkpt>
      <trkpt lat="45.71671" lon="3.24139">
        <ele>397.16174316406</ele>
        <time>2010-05-30T09:14:28Z</time>
      </trkpt>
      <trkpt lat="45.71673" lon="3.24128">
        <ele>396.68115234375</ele>
        <time>2010-05-30T09:14:29Z</time>
      </trkpt>
      <trkpt lat="45.71684" lon="3.24062">
        <ele>390.91320800781</ele>
        <time>2010-05-30T09:14:34Z</time>
      </trkpt>
      <trkpt lat="45.71693" lon="3.24013">
        <ele>387.54858398438</ele>
        <time>2010-05-30T09:14:37Z</time>
      </trkpt>
      <trkpt lat="45.71706" lon="3.23945">
        <ele>383.22265625</ele>
        <time>2010-05-30T09:14:41Z</time>
      </trkpt>
      <trkpt lat="45.71716" lon="3.23894">
        <ele>379.37744140625</ele>
        <time>2010-05-30T09:14:44Z</time>
      </trkpt>
      <trkpt lat="45.71725" lon="3.23844">
        <ele>377.93542480469</ele>
        <time>2010-05-30T09:14:47Z</time>
      </trkpt>
      <trkpt lat="45.71731" lon="3.23811">
        <ele>376.01281738281</ele>
        <time>2010-05-30T09:14:49Z</time>
      </trkpt>
      <trkpt lat="45.71746" lon="3.23733">
        <ele>373.12890625</ele>
        <time>2010-05-30T09:14:54Z</time>
      </trkpt>
      <trkpt lat="45.71767" lon="3.23621">
        <ele>370.24487304688</ele>
        <time>2010-05-30T09:15:02Z</time>
      </trkpt>
      <trkpt lat="45.7179" lon="3.23502">
        <ele>367.84155273438</ele>
        <time>2010-05-30T09:15:11Z</time>
      </trkpt>
      <trkpt lat="45.71811" lon="3.23395">
        <ele>365.43835449219</ele>
        <time>2010-05-30T09:15:20Z</time>
      </trkpt>
      <trkpt lat="45.71827" lon="3.23352">
        <ele>363.51574707031</ele>
        <time>2010-05-30T09:15:24Z</time>
      </trkpt>
      <trkpt lat="45.71851" lon="3.23316">
        <ele>362.55432128906</ele>
        <time>2010-05-30T09:15:28Z</time>
      </trkpt>
      <trkpt lat="45.71894" lon="3.23256">
        <ele>360.63171386719</ele>
        <time>2010-05-30T09:15:35Z</time>
      </trkpt>
      <trkpt lat="45.7191" lon="3.23229">
        <ele>359.67041015625</ele>
        <time>2010-05-30T09:15:38Z</time>
      </trkpt>
      <trkpt lat="45.71924" lon="3.23185">
        <ele>358.708984375</ele>
        <time>2010-05-30T09:15:42Z</time>
      </trkpt>
      <trkpt lat="45.71925" lon="3.23159">
        <ele>357.26708984375</ele>
        <time>2010-05-30T09:15:44Z</time>
      </trkpt>
      <trkpt lat="45.71925" lon="3.23086">
        <ele>355.8251953125</ele>
        <time>2010-05-30T09:15:50Z</time>
      </trkpt>
      <trkpt lat="45.71929" lon="3.2301">
        <ele>353.90258789062</ele>
        <time>2010-05-30T09:15:56Z</time>
      </trkpt>
      <trkpt lat="45.71933" lon="3.22948">
        <ele>350.53784179688</ele>
        <time>2010-05-30T09:16:01Z</time>
      </trkpt>
      <trkpt lat="45.71934" lon="3.22935">
        <ele>350.53784179688</ele>
        <time>2010-05-30T09:16:02Z</time>
      </trkpt>
      <trkpt lat="45.71928" lon="3.22888">
        <ele>350.05725097656</ele>
        <time>2010-05-30T09:16:06Z</time>
      </trkpt>
      <trkpt lat="45.71901" lon="3.22807">
        <ele>350.05725097656</ele>
        <time>2010-05-30T09:16:13Z</time>
      </trkpt>
      <trkpt lat="45.71874" lon="3.2273">
        <ele>349.09582519531</ele>
        <time>2010-05-30T09:16:20Z</time>
      </trkpt>
      <trkpt lat="45.7187" lon="3.2272">
        <ele>348.13464355469</ele>
        <time>2010-05-30T09:16:21Z</time>
      </trkpt>
      <trkpt lat="45.71845" lon="3.22648">
        <ele>348.615234375</ele>
        <time>2010-05-30T09:16:28Z</time>
      </trkpt>
      <trkpt lat="45.71809" lon="3.22578">
        <ele>347.65393066406</ele>
        <time>2010-05-30T09:16:36Z</time>
      </trkpt>
      <trkpt lat="45.71787" lon="3.22537">
        <ele>348.13464355469</ele>
        <time>2010-05-30T09:16:41Z</time>
      </trkpt>
      <trkpt lat="45.71753" lon="3.22477">
        <ele>348.615234375</ele>
        <time>2010-05-30T09:16:49Z</time>
      </trkpt>
      <trkpt lat="45.71716" lon="3.22415">
        <ele>347.65393066406</ele>
        <time>2010-05-30T09:16:57Z</time>
      </trkpt>
      <trkpt lat="45.71677" lon="3.2236">
        <ele>348.13464355469</ele>
        <time>2010-05-30T09:17:05Z</time>
      </trkpt>
      <trkpt lat="45.71641" lon="3.22306">
        <ele>348.13464355469</ele>
        <time>2010-05-30T09:17:13Z</time>
      </trkpt>
      <trkpt lat="45.71619" lon="3.22277">
        <ele>347.17321777344</ele>
        <time>2010-05-30T09:17:19Z</time>
      </trkpt>
      <trkpt lat="45.71611" lon="3.22267">
        <ele>347.17321777344</ele>
        <time>2010-05-30T09:17:22Z</time>
      </trkpt>
      <trkpt lat="45.71601" lon="3.22274">
        <ele>345.73132324219</ele>
        <time>2010-05-30T09:17:27Z</time>
      </trkpt>
      <trkpt lat="45.71589" lon="3.22278">
        <ele>347.65393066406</ele>
        <time>2010-05-30T09:17:32Z</time>
      </trkpt>
      <trkpt lat="45.71585" lon="3.22276">
        <ele>346.69262695312</ele>
        <time>2010-05-30T09:17:34Z</time>
      </trkpt>
    </trkseg>
  </trk>
</gpx>